[[{"header":{"parameterUnit":"m.s-1","parameterCategory":1,"la1":30.6,"la2":28.766,"lo1":-90.7593,"lo2":-88.6598,"dy":0.0162,"dx":0.0183,"nx":116,"ny":114,"refTime":"2024-06-17T18:00:00:Z","depth":0,"parameterNumber":2,"parameterNumberName":"U-component_of_WINDS"},"data":[0.0,0.0,0.0,0.0,0.0,0.0,0.0,0.0,0.0,0.0,0.0,0.0,0.0,0.0,0.0,0.0,0.0,0.0,0.0,0.0,0.0,0.0,0.0,0.0,0.0,0.0,0.0,0.0,0.0,0.0,0.0,0.0,0.0,0.0,0.0,0.0,0.0,0.0,0.0,0.0,0.0,0.0,0.0,0.0,0.0,0.0,0.0,0.0,0.0,0.0,0.0,0.0,0.0,0.0,0.0,0.0,0.0,0.0,0.0,0.0,0.0,0.0,0.0,0.0,0.0,0.0,0.0,0.0,0.0,0.0,0.0,0.0,0.0,0.0,0.0,0.0,0.0,0.0,0.0,0.0,0.0,0.0,0.0,0.0,0.0,0.0,0.0,0.0,0.0,0.0,0.0,0.0,0.0,0.0,0.0,0.0,0.0,0.0,0.0,0.0,0.0,0.0,0.0,0.0,0.0,0.0,0.0,0.0,0.0,0.0,0.0,0.0,0.0,0.0,0.0,0.0,0.0,0.0,0.0,0.0,0.0,0.0,0.0,0.0,0.0,0.0,0.0,0.0,0.0,0.0,0.0,0.0,0.0,0.0,0.0,0.0,0.0,0.0,0.0,0.0,0.0,0.0,0.0,0.0,0.0,0.0,0.0,0.0,0.0,0.0,0.0,0.0,0.0,0.0,0.0,0.0,0.0,0.0,0.0,0.0,0.0,0.0,0.0,0.0,0.0,0.0,0.0,0.0,0.0,0.0,0.0,0.0,0.0,0.0,0.0,0.0,0.0,0.0,0.0,0.0,0.0,0.0,0.0,0.0,0.0,0.0,0.0,0.0,0.0,0.0,0.0,0.0,0.0,0.0,0.0,0.0,0.0,0.0,0.0,0.0,0.0,0.0,0.0,0.0,0.0,0.0,0.0,0.0,0.0,0.0,0.0,0.0,0.0,0.0,0.0,0.0,0.0,0.0,0.0,0.0,0.0,0.0,0.0,0.0,0.0,0.0,0.0,0.0,0.0,0.0,0.0,0.0,0.0,0.0,0.0,0.0,0.0,0.0,0.0,0.0,0.0,0.0,0.0,0.0,0.0,0.0,0.0,0.0,0.0,0.0,0.0,0.0,0.0,0.0,0.0,0.0,0.0,0.0,0.0,0.0,0.0,0.0,0.0,0.0,0.0,0.0,0.0,0.0,0.0,0.0,0.0,0.0,0.0,0.0,0.0,0.0,0.0,0.0,0.0,0.0,0.0,0.0,0.0,0.0,0.0,0.0,0.0,0.0,0.0,0.0,0.0,0.0,0.0,0.0,0.0,0.0,0.0,0.0,0.0,0.0,0.0,0.0,0.0,0.0,0.0,0.0,0.0,0.0,0.0,0.0,0.0,0.0,0.0,0.0,0.0,0.0,0.0,0.0,0.0,0.0,0.0,0.0,0.0,0.0,0.0,0.0,0.0,0.0,0.0,0.0,0.0,0.0,0.0,0.0,0.0,0.0,0.0,0.0,0.0,0.0,0.0,0.0,0.0,0.0,0.0,0.0,0.0,0.0,0.0,0.0,0.0,0.0,0.0,0.0,0.0,0.0,0.0,0.0,0.0,0.0,0.0,0.0,0.0,0.0,0.0,0.0,0.0,0.0,0.0,0.0,0.0,0.0,0.0,0.0,0.0,0.0,0.0,0.0,0.0,0.0,0.0,0.0,0.0,0.0,0.0,0.0,0.0,0.0,0.0,0.0,0.0,0.0,0.0,0.0,0.0,0.0,0.0,0.0,0.0,0.0,0.0,0.0,0.0,0.0,0.0,0.0,0.0,0.0,0.0,0.0,0.0,0.0,0.0,0.0,0.0,0.0,0.0,0.0,0.0,0.0,0.0,0.0,0.0,0.0,0.0,0.0,0.0,0.0,0.0,0.0,0.0,0.0,0.0,0.0,0.0,0.0,0.0,0.0,0.0,0.0,0.0,0.0,0.0,0.0,0.0,0.0,0.0,0.0,0.0,0.0,0.0,0.0,0.0,0.0,0.0,0.0,0.0,0.0,0.0,0.0,0.0,0.0,0.0,0.0,0.0,0.0,0.0,0.0,0.0,0.0,0.0,0.0,0.0,0.0,0.0,0.0,0.0,0.0,0.0,0.0,0.0,0.0,0.0,0.0,0.0,0.0,0.0,0.0,0.0,0.0,0.0,0.0,0.0,0.0,0.0,0.0,0.0,0.0,0.0,0.0,0.0,0.0,0.0,0.0,0.0,0.0,0.0,0.0,0.0,0.0,0.0,0.0,0.0,0.0,0.0,0.0,0.0,0.0,0.0,0.0,0.0,0.0,0.0,0.0,0.0,0.0,0.0,0.0,0.0,0.0,0.0,0.0,0.0,0.0,0.0,0.0,0.0,0.0,0.0,0.0,0.0,0.0,0.0,0.0,0.0,0.0,0.0,0.0,0.0,0.0,0.0,0.0,0.0,0.0,0.0,0.0,0.0,0.0,0.0,0.0,0.0,0.0,0.0,0.0,0.0,0.0,0.0,0.0,0.0,0.0,0.0,0.0,0.0,0.0,0.0,0.0,0.0,0.0,0.0,0.0,0.0,0.0,0.0,0.0,0.0,0.0,0.0,0.0,0.0,0.0,0.0,0.0,0.0,0.0,0.0,0.0,0.0,0.0,0.0,0.0,0.0,0.0,0.0,0.0,0.0,0.0,0.0,0.0,0.0,0.0,0.0,0.0,0.0,0.0,0.0,0.0,0.0,0.0,0.0,0.0,0.0,0.0,0.0,0.0,0.0,0.0,0.0,0.0,0.0,0.0,0.0,0.0,0.0,0.0,0.0,0.0,0.0,0.0,0.0,0.0,0.0,0.0,0.0,0.0,0.0,0.0,0.0,0.0,0.0,0.0,0.0,0.0,0.0,0.0,0.0,0.0,0.0,0.0,0.0,0.0,0.0,0.0,0.0,0.0,0.0,0.0,0.0,0.0,0.0,0.0,0.0,0.0,0.0,0.0,0.0,0.0,0.0,0.0,0.0,0.0,0.0,0.0,0.0,0.0,0.0,0.0,0.0,0.0,0.0,0.0,0.0,0.0,0.0,0.0,0.0,0.0,0.0,0.0,0.0,0.0,0.0,0.0,0.0,0.0,0.0,0.0,0.0,0.0,0.0,0.0,0.0,0.0,0.0,0.0,0.0,0.0,0.0,0.0,0.0,0.0,0.0,0.0,0.0,0.0,0.0,0.0,0.0,0.0,0.0,0.0,0.0,0.0,0.0,0.0,0.0,0.0,0.0,0.0,0.0,0.0,0.0,0.0,0.0,0.0,0.0,0.0,0.0,0.0,0.0,0.0,0.0,0.0,0.0,0.0,0.0,0.0,0.0,0.0,0.0,0.0,0.0,0.0,0.0,0.0,0.0,0.0,0.0,0.0,0.0,0.0,0.0,0.0,0.0,0.0,0.0,0.0,0.0,0.0,0.0,0.0,0.0,0.0,0.0,0.0,0.0,0.0,0.0,0.0,0.0,0.0,0.0,0.0,0.0,0.0,0.0,0.0,0.0,0.0,0.0,0.0,0.0,0.0,0.0,0.0,0.0,0.0,0.0,0.0,0.0,0.0,0.0,0.0,0.0,0.0,0.0,0.0,0.0,0.0,0.0,0.0,0.0,0.0,0.0,0.0,0.0,0.0,0.0,0.0,0.0,0.0,0.0,0.0,0.0,0.0,0.0,0.0,0.0,0.0,0.0,0.0,0.0,0.0,0.0,0.0,0.0,0.0,0.0,0.0,0.0,0.0,0.0,0.0,0.0,0.0,0.0,0.0,0.0,0.0,0.0,0.0,0.0,0.0,0.0,0.0,0.0,0.0,0.0,0.0,0.0,0.0,0.0,0.0,0.0,0.0,0.0,0.0,0.0,0.0,0.0,0.0,0.0,0.0,0.0,0.0,0.0,0.0,0.0,0.0,0.0,0.0,0.0,0.0,0.0,0.0,0.0,0.0,0.0,0.0,0.0,0.0,0.0,0.0,0.0,0.0,0.0,0.0,0.0,0.0,0.0,0.0,0.0,0.0,0.0,0.0,0.0,0.0,0.0,0.0,0.0,0.0,0.0,0.0,0.0,0.0,0.0,0.0,0.0,0.0,0.0,0.0,0.0,0.0,0.0,0.0,0.0,0.0,0.0,0.0,0.0,0.0,0.0,0.0,0.0,0.0,0.0,0.0,0.0,0.0,0.0,0.0,0.0,0.0,0.0,0.0,0.0,0.0,0.0,0.0,0.0,0.0,0.0,0.0,0.0,0.0,0.0,0.0,0.0,0.0,0.0,0.0,0.0,0.0,0.0,0.0,0.0,0.0,0.0,0.0,0.0,0.0,0.0,0.0,0.0,0.0,0.0,0.0,0.0,0.0,0.0,0.0,0.0,0.0,0.0,0.0,0.0,0.0,0.0,0.0,0.0,0.0,0.0,0.0,0.0,0.0,0.0,0.0,0.0,0.0,0.0,0.0,0.0,0.0,0.0,0.0,0.0,0.0,0.0,0.0,0.0,0.0,0.0,0.0,0.0,0.0,0.0,0.0,0.0,0.0,0.0,0.0,0.0,0.0,0.0,0.0,0.0,0.0,0.0,0.0,0.0,0.0,0.0,0.0,0.0,0.0,0.0,0.0,0.0,0.0,0.0,0.0,0.0,0.0,0.0,0.0,0.0,0.0,0.0,0.0,0.0,0.0,0.0,0.0,0.0,0.0,0.0,0.0,0.0,0.0,0.0,0.0,0.0,0.0,0.0,0.0,0.0,0.0,0.0,0.0,0.0,0.0,0.0,0.0,0.0,0.0,0.0,0.0,0.0,0.0,0.0,0.0,0.0,0.0,0.0,0.0,0.0,0.0,0.0,0.0,0.0,0.0,0.0,0.0,0.0,0.0,0.0,0.0,0.0,0.0,0.0,0.0,0.0,0.0,0.0,0.0,0.0,0.0,0.0,0.0,0.0,0.0,0.0,0.0,0.0,0.0,0.0,0.0,0.0,0.0,0.0,0.0,0.0,0.0,0.0,0.0,0.0,0.0,0.0,0.0,0.0,0.0,0.0,0.0,0.0,0.0,0.0,0.0,0.0,0.0,0.0,0.0,0.0,0.0,0.0,0.0,0.0,0.0,0.0,0.0,0.0,0.0,0.0,0.0,0.0,0.0,0.0,0.0,0.0,0.0,0.0,0.0,0.0,0.0,0.0,0.0,0.0,0.0,0.0,0.0,0.0,0.0,0.0,0.0,0.0,0.0,0.0,0.0,0.0,0.0,0.0,0.0,0.0,0.0,0.0,0.0,0.0,0.0,0.0,0.0,0.0,0.0,0.0,0.0,0.0,0.0,0.0,0.0,0.0,0.0,0.0,0.0,0.0,0.0,0.0,0.0,0.0,0.0,0.0,0.0,0.0,0.0,0.0,0.0,0.0,0.0,0.0,0.0,0.0,0.0,0.0,0.0,0.0,0.0,0.0,0.0,0.0,0.0,0.0,0.0,0.0,0.0,0.0,0.0,0.0,0.0,0.0,0.0,0.0,0.0,0.0,0.0,0.0,0.0,0.0,0.0,0.0,0.0,0.0,0.0,0.0,0.0,0.0,0.0,0.0,0.0,0.0,0.0,0.0,0.0,0.0,0.0,0.0,0.0,0.0,0.0,0.0,0.0,0.0,0.0,0.0,0.0,0.0,0.0,0.0,0.0,0.0,0.0,0.0,0.0,0.0,0.0,0.0,0.0,0.0,0.0,0.0,0.0,0.0,0.0,0.0,0.0,0.0,0.0,0.0,0.0,0.0,0.0,0.0,0.0,0.0,0.0,0.0,0.0,0.0,0.0,0.0,0.0,0.0,0.0,0.0,0.0,0.0,0.0,0.0,0.0,0.0,0.0,0.0,0.0,0.0,0.0,0.0,0.0,0.0,0.0,0.0,0.0,0.0,0.0,0.0,0.0,0.0,0.0,0.0,0.0,0.0,0.0,0.0,0.0,0.0,0.0,0.0,0.0,0.0,0.0,0.0,0.0,0.0,0.0,0.0,0.0,0.0,0.0,0.0,0.0,0.0,0.0,0.0,0.0,0.0,0.0,0.0,0.0,0.0,0.0,0.0,0.0,0.0,0.0,0.0,0.0,1.4605,1.4149,0.0,0.0,0.0,0.0,0.0,0.0,0.0,0.0,0.0,0.0,0.0,0.0,0.0,0.0,0.0,0.0,0.0,0.0,0.0,0.0,0.0,0.0,0.0,1.1116,1.143,1.1622,1.1876,1.1932,1.1726,1.1693,1.1606,1.1428,1.1417,1.1374,1.1315,1.1098,1.116,1.1488,1.1284,1.1688,1.267,1.2774,1.2624,1.2271,0.0,0.0,0.0,0.0,0.0,0.0,0.0,0.0,0.0,0.0,0.0,0.0,0.0,0.0,0.0,0.0,0.0,0.0,0.0,0.0,0.0,0.0,0.0,0.0,0.0,0.0,0.0,0.0,0.0,0.0,0.0,0.0,0.0,0.0,0.0,0.0,0.0,0.0,0.0,0.0,0.0,0.0,0.0,0.0,0.0,0.0,0.0,0.0,0.0,0.0,0.0,0.0,0.0,0.0,0.0,0.0,0.0,0.0,0.0,0.0,0.0,0.0,0.0,0.0,0.0,0.0,0.0,0.0,0.0,0.0,1.5885,1.5482,0.0,0.0,0.0,0.0,0.0,0.0,0.0,0.0,0.0,0.0,0.0,0.0,0.0,0.0,0.0,0.0,0.0,0.0,0.0,0.0,0.0,1.0436,1.1205,1.1362,1.1577,1.1956,1.2074,1.1958,1.156,1.1846,1.1841,1.1435,1.1435,1.145,1.1495,1.1427,1.1642,1.2182,1.2376,1.3038,1.4096,1.4888,1.4586,1.3366,1.3043,0.0,0.0,0.0,0.0,0.0,0.0,0.0,0.0,0.0,0.0,0.0,0.0,0.0,0.0,0.0,0.0,0.0,0.0,0.0,0.0,0.0,0.0,0.0,0.0,0.0,0.0,0.0,0.0,0.0,0.0,0.0,0.0,0.0,0.0,0.0,0.0,0.0,0.0,0.0,0.0,0.0,0.0,0.0,0.0,0.0,0.0,0.0,0.0,0.0,0.0,0.0,0.0,0.0,0.0,0.0,0.0,0.0,0.0,0.0,0.0,0.0,0.0,0.0,1.8041,1.8285,1.8581,1.8642,1.8498,1.8165,1.7106,1.6883,1.7146,1.5847,0.0,0.0,0.0,0.0,0.0,0.0,0.0,0.0,0.0,0.0,0.0,0.0,0.0,0.0,0.0,0.0,0.0,0.0,0.0,1.0567,1.1157,1.1826,1.241,1.2808,1.3207,1.3277,1.289,1.2903,1.2751,1.2341,1.2322,1.2443,1.2675,1.2339,1.263,1.3626,1.4676,1.5452,1.5934,1.6427,1.6586,1.6425,1.4738,1.4124,1.4275,0.0,0.0,0.0,0.0,0.0,0.0,0.0,0.0,0.0,0.0,0.0,0.0,0.0,0.0,0.0,0.0,0.0,0.0,0.0,0.0,0.0,0.0,0.0,0.0,0.0,0.0,0.0,0.0,0.0,0.0,0.0,0.0,0.0,0.0,0.0,0.0,0.0,0.0,0.0,0.0,0.0,1.2885,1.3584,0.0,0.0,0.0,0.0,0.0,0.0,0.0,0.0,0.0,0.0,0.0,0.0,0.0,1.8128,1.8773,1.8759,1.8697,1.8651,1.8733,1.8549,1.8095,1.8319,1.8691,1.9105,1.8706,0.0,1.657,1.5804,0.0,0.0,0.0,0.0,0.0,0.0,0.0,0.0,0.0,0.0,0.0,0.0,0.0,0.0,0.0,0.0,0.0,0.0,0.0,0.0,0.0,1.2444,1.3069,1.3482,1.389,1.3993,1.3593,1.3337,1.3034,1.2637,1.2619,1.2668,1.2802,1.3053,1.388,1.5258,1.6468,1.7239,1.766,1.8064,1.8284,1.8304,1.7436,1.6483,1.5448,1.4303,0.0,0.0,0.0,0.0,0.0,0.0,0.0,0.0,0.0,0.0,0.0,0.0,0.0,0.0,0.0,0.0,0.0,0.0,0.0,0.0,0.0,0.0,0.0,0.0,0.0,0.0,0.0,0.0,0.0,0.0,0.0,0.0,0.0,0.0,0.0,0.0,0.0,0.0,0.0,1.3301,1.4385,1.4599,1.4868,1.4792,0.0,0.0,0.0,0.0,0.0,0.0,0.0,0.0,0.0,1.8457,1.8326,1.8506,1.9062,1.9332,1.9431,1.9362,1.9535,1.9481,1.925,1.9356,1.9564,1.9802,1.9685,1.9158,1.8279,1.7266,1.6556,1.6044,0.0,0.0,0.0,0.0,1.5539,1.6118,0.0,0.0,0.0,0.0,0.0,0.0,0.0,0.0,0.0,0.0,0.0,0.0,1.2388,1.3258,1.3956,1.4466,1.4799,1.4799,1.4392,1.3897,1.3438,1.301,1.29,1.29,1.2992,1.4099,1.5404,1.6909,1.8118,1.8924,1.9309,1.9732,1.9861,1.9769,1.9769,1.871,1.6865,1.5851,1.475,1.3601,0.0,0.0,0.0,0.0,0.0,0.0,0.0,0.0,0.0,0.0,0.0,0.0,0.0,0.0,0.0,0.0,0.0,0.0,0.0,0.0,0.0,0.0,0.0,0.0,0.0,0.0,0.0,0.0,0.0,0.0,0.0,0.0,0.0,0.0,0.0,0.0,0.0,1.4165,1.5003,1.5019,1.5579,1.5625,0.0,0.0,0.0,0.0,0.0,0.0,1.8105,1.8199,1.8605,1.9432,1.9154,1.9128,1.945,1.992,2.0134,2.0134,2.0317,2.0424,2.0424,2.0424,2.0384,2.0317,2.0317,2.0227,1.995,1.867,1.7967,1.7571,1.6659,1.6504,1.6784,1.6711,1.7001,1.7514,0.0,0.0,0.0,0.0,0.0,0.0,0.0,0.0,0.0,0.0,0.0,1.2349,1.3162,1.4286,1.5331,1.6103,1.6195,1.603,1.5641,1.4873,1.4268,1.386,1.3474,1.3456,1.3823,1.5753,1.7367,1.8576,1.9785,2.0573,2.0998,2.1398,2.1379,2.1016,2.1016,2.0319,1.9037,1.7476,1.632,1.5436,1.3856,0.0,0.0,0.0,0.0,0.0,0.0,0.0,0.0,0.0,0.0,0.0,0.0,0.0,0.0,0.0,0.0,0.0,0.0,0.0,0.0,0.0,0.0,0.0,0.0,0.0,0.0,0.0,0.0,0.0,0.0,0.0,0.0,0.0,0.0,0.0,0.0,0.0,0.0,1.451,1.5606,0.0,0.0,0.0,0.0,1.5417,1.622,1.7108,1.797,1.8547,1.9243,2.0127,2.0418,2.0726,2.1002,2.1029,2.1042,2.1042,2.1056,2.1069,2.1069,2.1069,2.0909,2.0686,2.0686,2.0672,2.0579,1.9345,1.8656,1.8305,1.7664,1.7585,1.7791,1.7548,1.8018,1.8796,0.0,0.0,0.0,0.9724,0.9798,0.9833,0.9744,1.0085,1.0425,1.0662,1.1963,1.3181,1.3978,1.5386,1.6486,1.7037,1.7073,1.6908,1.6505,1.5478,1.4928,1.5053,1.4671,1.5129,1.6561,1.7807,1.9036,2.0225,2.1196,2.1874,2.2254,2.24,2.24,2.2254,2.2254,2.1874,2.1086,1.8961,1.7605,1.6743,1.5402,1.4282,0.0,0.0,0.0,0.0,0.0,0.0,0.0,0.0,0.0,0.0,0.0,0.0,0.0,0.0,0.0,0.0,0.0,0.0,0.0,0.0,0.0,0.0,0.0,0.0,0.0,0.0,0.0,0.0,0.0,0.0,0.0,0.0,0.0,0.0,0.0,0.0,0.0,1.6673,1.6998,0.0,1.5869,1.6519,1.7018,1.7061,1.809,1.8918,1.9397,1.9983,2.0561,2.1069,2.1221,2.1408,2.167,2.167,2.167,2.167,2.167,2.167,2.167,2.167,2.1617,2.1555,2.1555,2.1555,2.1502,2.09,2.0435,2.0107,1.9891,1.9883,1.9915,1.9668,1.9773,1.9883,0.0,0.9342,0.0,0.9571,0.969,0.9744,0.9713,1.0154,1.0651,1.1055,1.2501,1.3846,1.4799,1.623,1.733,1.7862,1.7789,1.7533,1.7116,1.5975,1.5366,1.5522,1.5638,1.6587,1.8466,1.9259,2.0156,2.1224,2.1854,2.2303,2.259,2.2715,2.2793,2.2834,2.2834,2.2711,2.2405,2.0647,1.9291,1.821,1.7,1.612,1.5368,0.0,0.0,0.0,0.0,0.0,0.0,0.0,0.0,0.0,0.0,0.0,0.0,0.0,0.0,0.0,0.0,0.0,0.0,0.0,0.0,0.0,0.0,0.0,0.0,0.0,0.0,0.0,0.0,0.0,0.0,0.0,0.0,0.0,0.0,1.651,1.7147,1.7787,1.798,1.7808,1.7199,1.7847,1.839,1.8561,1.9595,2.0345,2.0668,2.1229,2.1683,2.2024,2.2131,2.2331,2.2592,2.2626,2.2626,2.2626,2.2626,2.2626,2.2626,2.2626,2.2539,2.2445,2.2445,2.2445,2.2418,2.2158,2.1674,2.109,2.0999,2.0909,2.0802,2.0708,2.0358,1.9685,0.0,0.9017,0.9198,0.9208,0.9494,0.9703,0.9703,1.0375,1.1037,1.1448,1.2924,1.4392,1.5586,1.6815,1.7862,1.863,1.8301,1.7877,1.7486,1.6316,1.5494,1.5189,1.6297,1.7651,1.9266,1.9944,2.0654,2.1491,2.1758,2.1873,2.1866,2.2273,2.2514,2.2635,2.2635,2.2714,2.2837,2.2441,2.1386,1.9873,1.8649,1.7935,1.7385,0.0,0.0,0.0,0.0,0.0,0.0,0.0,0.0,0.0,0.0,0.0,0.0,0.0,0.0,0.0,0.0,0.0,0.0,0.0,0.0,0.0,0.0,0.0,0.0,0.0,0.0,0.0,0.0,0.0,0.0,0.0,0.0,0.0,1.6257,1.6839,1.7265,1.7609,1.8397,1.8698,1.8123,1.907,1.9733,1.9733,2.0526,2.1201,2.159,2.2105,2.2558,2.2886,2.3145,2.3439,2.3768,2.3768,2.3803,2.3803,2.3803,2.3803,2.3803,2.3803,2.3607,2.3305,2.3305,2.3305,2.3278,2.2985,2.2168,2.1093,2.0792,2.0469,2.0195,2.0491,1.9612,1.8164,0.8655,0.8982,0.9273,0.9521,0.9639,0.9703,0.9703,1.0375,1.1037,1.1448,1.3419,1.5111,1.6046,1.7459,1.8462,1.8694,1.7702,1.6884,1.6432,1.4934,1.4287,1.4891,1.6144,1.7664,1.9485,1.9502,2.0172,2.1567,2.1258,2.1096,2.1096,2.1216,2.128,2.1317,2.1317,2.1586,2.1987,2.1595,2.162,2.1815,2.0386,1.9419,1.865,0.0,0.0,0.0,0.0,0.0,0.0,0.0,0.0,0.0,0.0,0.0,0.0,0.0,0.0,0.0,0.0,0.0,0.0,0.0,0.0,0.0,0.0,0.0,0.0,0.0,0.0,0.0,0.0,0.0,0.0,0.0,1.5226,1.6508,1.6873,1.7346,1.7966,1.8654,1.9133,1.9328,1.9175,1.9844,2.0266,2.0266,2.1045,2.1552,2.1687,2.2228,2.2589,2.2666,2.3027,2.3261,2.3375,2.3375,2.3518,2.3803,2.3483,2.3518,2.3803,2.3803,2.3763,2.3647,2.3647,2.3647,2.3563,2.2289,2.142,2.092,2.0702,1.9937,1.8844,1.8625,1.7293,1.562,0.8803,0.9049,0.9263,0.9639,0.9703,0.9758,0.9923,1.0485,1.1177,1.1908,1.3823,1.5478,1.6451,1.7406,1.8019,1.8114,1.6898,1.5853,1.5254,1.4149,1.4004,1.5091,1.6418,1.787,1.9411,1.9396,1.9836,2.077,2.0127,1.9796,1.9796,1.9796,1.9903,2.0142,2.025,2.0632,2.116,2.1034,2.128,2.1645,2.0604,2.0095,1.978,1.7916,1.7195,1.7096,1.6086,1.604,1.6376,1.5991,0.0,0.0,0.0,0.0,0.0,0.0,0.0,0.0,0.0,0.0,0.0,0.0,0.0,0.0,0.0,0.0,0.0,0.0,0.0,0.0,0.0,0.0,0.0,0.0,1.6253,1.7306,1.7848,1.8214,1.8684,1.9472,1.9707,1.9794,1.9907,2.0454,2.0801,2.0801,2.1433,2.1905,2.2081,2.2512,2.2754,2.2754,2.3085,2.3295,2.3295,2.3295,2.3404,2.3622,2.3404,2.3404,2.3622,2.2942,2.2651,2.2579,2.1898,2.1606,2.1557,2.0418,1.9591,1.9101,0.0,0.0,0.0,0.0,1.6155,1.5133,0.9068,0.918,0.9281,0.9648,0.9703,0.9831,1.0246,1.0632,1.1331,1.2545,1.4012,1.5389,1.6586,1.677,1.6867,1.7066,1.586,1.4758,1.3953,1.3722,1.4165,1.5346,1.6639,1.7846,1.8962,1.9139,1.9284,1.9434,1.862,1.8204,1.8204,1.8204,1.8468,1.8926,1.9172,1.9565,2.0094,2.0339,2.0387,2.0261,1.9792,2.0015,2.0388,1.791,1.7563,1.8233,1.7069,1.7015,1.746,1.7045,0.0,0.0,0.0,0.0,0.0,0.0,0.0,0.0,0.0,0.0,0.0,0.0,0.0,0.0,0.0,0.0,0.0,0.0,0.0,0.0,0.0,0.0,0.0,0.0,1.6887,1.7482,1.8681,1.8939,1.9245,1.9978,2.0086,2.0175,2.0409,2.0928,2.1237,2.1237,2.1683,2.2123,2.2483,2.281,0.0,0.0,0.0,2.3042,2.2843,2.2843,2.2843,2.288,2.2856,2.2843,2.2843,2.14,2.074,2.0665,1.9214,1.861,1.8552,1.8098,1.7207,1.6319,1.755,1.7768,1.7223,1.5984,1.5667,1.5637,0.9171,0.9401,0.9611,0.9684,0.9703,0.9831,1.0246,1.0632,1.1331,1.2545,1.3442,1.4368,1.541,1.554,1.5583,1.5686,1.4609,1.3557,1.27,1.2995,1.352,1.4195,1.5094,1.6253,1.7645,1.718,1.7409,1.8384,1.7491,1.7036,1.7036,1.7036,1.7091,1.7202,1.7252,1.7592,1.8158,1.8212,1.8805,1.9669,1.8733,1.8689,1.9123,1.8252,1.7858,1.7698,1.7128,1.7223,1.7511,1.713,1.6645,1.6204,1.5857,1.4958,0.0,0.0,0.0,0.0,0.0,0.0,0.0,0.0,0.0,0.0,0.0,0.0,0.0,0.0,0.0,0.0,0.0,0.0,0.0,1.6593,1.6781,1.6955,1.7216,1.7796,1.8631,1.9814,2.0315,2.0563,2.0646,2.1144,2.1425,2.1425,2.1728,2.1934,2.2044,2.2508,2.211,2.0647,2.1148,2.0797,1.938,1.938,1.9536,1.9836,1.9398,0.0,1.9688,1.927,1.9063,1.9063,1.8723,1.861,1.8497,1.7132,1.565,1.4305,1.496,1.5085,1.486,1.4571,1.4424,1.4263,0.9411,0.9585,0.9703,0.9703,0.9607,0.9698,1.0089,1.0274,1.0733,1.1802,1.2596,1.3347,1.4129,1.4052,1.3907,1.386,1.2928,1.2456,1.2684,1.3075,1.3653,1.4473,1.5149,1.5917,1.6766,1.6456,1.6664,1.7408,1.6799,1.6561,1.6706,1.6706,1.6706,1.6706,1.6839,1.6995,1.7164,1.7302,1.7576,1.7915,1.736,1.7316,1.7534,1.7465,1.7439,1.7407,1.7057,1.7273,1.7655,1.7316,1.6799,1.627,1.6108,1.5083,1.3814,0.0,0.0,0.0,0.0,0.0,0.0,0.0,0.0,0.0,0.0,0.0,0.0,0.0,0.0,1.4984,1.5428,0.0,1.6134,1.6673,1.6245,1.5923,1.6208,1.6586,1.7416,1.8959,2.0201,2.0954,2.1099,2.0694,2.0441,2.0441,2.0001,1.9747,1.9747,2.0079,1.9836,1.8932,1.9238,1.8975,1.8101,1.8101,1.8219,1.8406,1.8114,1.8105,1.8251,1.7418,1.6968,1.6839,1.603,1.5633,1.5501,1.4905,1.4153,1.3452,1.39,1.3957,1.3831,1.3753,1.3631,1.353,0.9639,0.9703,0.9681,0.9644,0.952,0.9524,0.9904,0.9866,1.0128,1.1079,1.1672,1.2227,1.2802,1.2498,1.2203,1.2149,1.1588,1.1798,1.3087,1.3473,1.4123,1.5137,1.5632,1.5982,1.6226,1.6287,1.642,1.6622,1.6468,1.6477,1.6706,1.6706,1.6706,1.6706,1.6923,1.6863,1.6634,1.6839,1.671,1.6284,1.6311,1.6284,1.6311,1.6539,1.6808,1.7059,1.6742,1.6912,1.7238,1.702,1.6484,1.5908,1.5901,1.4881,1.3628,1.326,1.2477,0.0,0.0,0.0,0.0,0.0,0.0,0.0,0.0,1.3809,1.4256,1.5089,1.5479,1.5916,1.6732,1.612,1.569,1.6344,1.5409,1.4774,1.5229,1.5302,1.5901,1.7414,1.9178,2.0376,2.0606,1.966,1.9032,1.9036,1.8152,1.7593,1.7631,1.7789,1.7734,1.7378,1.7414,1.7282,1.6964,1.6964,1.6964,1.6925,1.6929,1.6911,1.6863,1.5544,1.486,1.4688,1.329,1.2605,1.254,1.2849,1.2965,1.3004,1.3351,1.3386,1.3293,1.3281,1.3312,1.3289,0.9684,0.9703,0.9652,0.9463,0.941,0.9504,0.9791,0.981,1.0128,1.1079,1.0858,1.0909,1.1607,1.1018,1.0745,1.1206,1.1598,1.228,1.3376,1.393,1.4582,1.5415,1.5728,1.5897,1.5934,1.619,1.6323,1.6332,1.6549,1.667,1.6706,1.6706,1.6706,1.6706,1.673,1.6585,1.6359,1.6384,1.6344,1.6308,1.6284,1.6311,1.6311,1.6326,1.6363,1.6347,1.5833,1.5564,1.5404,1.5365,1.5144,1.4871,1.4815,1.4491,1.3966,1.3174,1.2559,1.2127,1.209,1.2376,1.2838,1.3566,1.3615,1.405,0.0,1.6299,1.6226,1.7008,1.6721,1.626,1.6141,1.5499,1.5002,1.5101,1.4292,1.3676,1.3751,1.3961,1.4269,1.4705,1.6231,1.7353,1.7503,1.7566,1.7655,1.7807,1.7672,1.7659,1.7749,1.8004,1.7436,1.5917,1.6065,1.5459,1.392,1.3879,1.3879,1.3879,1.3778,1.3707,1.3707,1.3412,1.3269,1.3248,1.2865,1.2605,1.2501,1.254,1.2579,1.2579,1.2617,1.2649,1.2706,1.3385,1.3646,1.3624,0.9703,0.9476,0.9295,0.9288,0.9284,0.9285,0.9341,0.9269,0.9395,0.9855,0.9803,0.9855,1.0244,1.001,1.0045,1.0593,1.1123,1.1954,1.3183,1.3918,1.4654,1.5463,1.5753,1.5885,1.5885,1.6151,1.6384,1.6525,1.6791,1.7008,1.7153,1.7153,1.7153,1.7153,1.7153,1.7037,1.6771,1.6585,1.6441,1.6284,1.6115,1.6166,1.6275,1.5946,1.5818,1.5753,1.5241,1.4875,0.0,1.4282,1.4096,1.3997,1.3974,1.3656,1.3259,1.2893,1.2768,1.274,1.286,1.3058,1.3204,1.3111,1.3292,1.3747,1.4674,1.4848,1.4982,1.5636,1.5582,1.5426,1.5455,1.47,1.4113,1.4181,1.3263,1.2503,1.2503,1.2597,1.2699,1.2713,1.3429,1.4727,1.6927,1.6424,1.6017,1.6169,1.5396,1.4979,1.5104,1.5285,1.5052,1.4322,1.4429,1.4135,1.3403,1.3403,1.3403,1.3403,1.3336,1.3308,1.3302,1.3247,1.3207,1.3111,1.2834,1.2652,1.263,1.2535,1.2501,1.2501,1.2501,1.2501,1.254,1.2888,1.3004,1.2997,0.0,0.9384,0.9125,0.9192,0.917,0.9101,0.8971,0.8852,0.8858,0.9031,0.9136,0.9256,0.9408,0.9459,0.968,1.0154,1.0749,1.1605,1.2798,1.3713,1.4545,1.5354,1.5644,1.5813,1.5885,1.6251,1.6501,1.6706,1.7032,1.7298,1.7508,1.7508,1.7508,1.7508,1.7508,1.7298,1.6972,1.6779,1.6501,1.6151,1.5997,1.5958,1.6018,1.5559,1.5246,1.5016,1.463,1.4268,1.3894,1.334,1.3208,1.3268,1.3268,1.3099,1.294,1.3012,1.3055,1.309,1.3113,1.3221,1.3207,1.2674,1.3045,1.3558,1.3618,1.3788,1.4054,1.4504,1.4414,1.4301,1.4479,1.3642,1.2974,1.3108,1.238,1.1793,1.1793,1.1759,1.1698,1.1597,1.1671,1.2795,1.5532,1.4803,1.4299,1.457,1.3605,1.3084,1.3268,1.3342,1.3403,1.3403,1.3403,1.3403,1.3403,1.3403,1.3403,1.3403,1.3403,1.3403,1.3403,1.3403,1.3315,1.32,1.2949,1.2807,1.2679,1.261,1.2542,1.2501,1.2501,1.2501,1.2501,1.2501,1.2501,1.2501,0.0,0.9534,0.9349,0.9228,0.9095,0.896,0.883,0.8804,0.8896,0.9158,0.9206,0.9272,0.9476,0.9488,0.9608,0.9889,1.0641,1.1455,1.2268,1.3326,1.428,1.5089,1.5366,1.5632,1.5885,1.6416,1.6694,1.6706,1.7213,1.7479,1.7508,1.7508,1.7508,1.7508,1.7508,1.7201,1.6706,1.6706,1.6392,1.5897,1.5897,1.5741,1.5487,1.5221,1.463,1.3954,1.393,1.3581,1.3051,1.2509,1.2518,1.2735,1.2735,1.3085,1.3521,1.3797,1.3502,1.2996,1.2558,1.2535,1.2655,1.2662,1.3209,1.3815,1.4332,1.4458,1.4565,1.4823,1.3899,1.3059,1.3068,1.2172,1.1514,1.1628,1.1735,1.1793,1.1793,1.1678,1.159,1.1584,1.1584,1.1778,1.2226,1.2316,1.2558,1.3042,1.3036,1.3125,1.3376,1.3397,1.3403,1.3403,1.3403,1.3403,1.3403,1.3403,1.3403,1.3403,1.3403,1.3403,1.3403,1.3403,1.3315,1.3214,1.3207,1.2996,1.2693,1.2686,1.2637,1.2501,1.2501,1.2501,1.2501,1.2501,1.2501,1.2501,0.0,0.0,0.8659,0.9002,0.8817,0.8592,0.8535,0.8606,0.8764,0.903,0.9227,0.0,0.0,0.0,0.0,0.0,1.0466,1.1171,1.1978,1.3027,1.3918,1.4545,1.5173,1.5535,1.5632,1.6151,1.6416,1.6416,1.6791,1.696,1.696,1.696,1.696,1.696,1.696,1.6863,1.6682,1.6501,1.6429,1.638,1.5849,1.568,1.5716,1.527,1.4497,1.3604,0.0,1.275,1.2256,1.1894,1.1463,1.1134,1.1323,1.1065,1.0866,1.1616,1.1894,1.1923,1.1612,1.1657,1.1722,1.1317,1.1473,1.177,1.2056,1.2109,1.2097,1.1994,1.1699,1.1449,1.1373,1.119,1.1178,1.1529,1.1705,1.1864,1.1972,1.181,1.1512,1.1126,1.0991,1.0992,1.1087,1.1841,1.2474,1.2969,1.3003,1.3132,1.3383,1.3403,1.3403,1.3403,1.3403,1.3403,1.3403,1.3403,1.3403,1.3403,1.3403,1.3403,1.3403,1.3403,1.337,1.3315,1.3254,1.3159,1.301,1.2774,1.2659,1.2605,1.2542,1.2501,1.2501,1.2501,1.2501,1.2501,0.0,0.0,0.0,0.8632,0.8428,0.0,0.0,0.0,0.0,0.0,0.0,0.0,0.0,0.0,0.0,0.0,0.0,1.0822,1.1436,1.2388,1.3208,1.3845,1.4377,1.4787,1.5065,1.5403,1.5694,1.5861,1.6139,1.632,1.6416,1.6416,1.6416,1.6416,1.6416,1.6356,1.626,1.6079,1.6054,1.6079,1.5463,1.5197,1.5125,1.4594,1.3774,0.0,1.194,1.1334,1.0943,1.1039,1.0686,1.0245,1.039,1.0122,0.9871,1.0457,1.0739,1.0864,1.082,1.0733,1.0578,1.0306,1.0465,1.0651,1.0698,1.0772,1.0765,1.0548,1.0389,1.0337,1.0426,1.0332,1.0538,1.1327,1.1471,1.1587,1.1803,1.1697,1.1388,1.0842,1.0693,1.062,1.0723,1.1415,1.2088,1.2689,1.2762,1.2929,1.3383,1.3403,1.3403,1.3403,1.3403,1.3403,1.3403,1.3403,1.3403,1.3403,1.3403,1.3403,1.3403,1.3403,1.3403,1.3397,1.3295,1.322,1.32,1.2969,1.2827,1.2679,1.2623,1.2549,1.2501,1.2501,1.2501,1.2501,0.0,0.0,0.0,0.0,0.0,0.0,0.0,0.0,0.0,0.0,0.0,0.0,0.0,0.0,0.0,0.0,0.0,0.0,1.0665,1.1424,1.2219,1.3003,1.3063,1.3449,1.422,1.4244,1.4485,1.4989,1.5241,1.5507,1.576,1.5774,1.5774,1.576,1.5774,1.5642,1.5413,1.5413,1.5268,1.504,1.4738,1.4328,1.3833,1.327,1.2563,1.1679,1.0237,0.9473,0.9282,0.9949,1.0103,0.9964,0.9877,1.0121,1.0407,1.0239,1.0026,0.991,1.0171,0.9755,0.9321,0.971,1.0207,1.0539,1.0404,1.0531,1.0604,1.0447,0.9937,0.9692,1.0118,0.9638,0.9602,1.0893,1.0966,1.0986,1.1331,1.1364,1.122,1.084,1.0656,1.068,1.0946,1.0976,1.1333,1.2174,1.228,1.2558,1.33,1.3321,1.3321,1.3321,1.3321,1.3362,1.3362,1.3403,1.3403,1.3362,1.3403,1.3403,1.3403,1.3403,1.3403,1.3403,1.3403,1.3315,1.3227,1.3214,1.3003,1.2699,1.2693,1.2637,1.2501,1.2501,1.2501,1.2501,0.0,0.0,0.0,0.0,0.0,0.0,0.0,0.0,0.0,0.0,0.0,0.0,0.0,0.0,0.0,0.0,0.0,0.0,1.037,1.0966,1.1569,1.2183,1.2581,1.2921,1.3194,1.3391,1.3468,1.3471,1.3527,1.3595,1.3676,1.4034,1.3998,1.3676,1.4023,1.4137,1.4078,1.4078,1.424,1.4461,1.3979,1.3714,1.3534,1.2896,1.2147,1.131,1.0194,0.9335,0.875,0.8681,0.8582,0.8396,0.7973,0.8042,0.8328,0.86,0.8942,0.9277,0.9564,0.9701,0.9831,1.0037,1.0177,1.0194,1.0057,0.9988,0.9803,0.9273,0.9042,0.8849,0.8616,0.8792,0.915,0.9683,1.0232,1.0698,1.1008,1.0884,1.0744,1.0536,1.0309,1.0213,1.037,1.0386,1.0696,1.1428,1.1726,1.2031,1.243,1.2443,1.2443,1.2443,1.2443,1.2567,1.2899,1.3231,1.3238,1.2899,1.3231,1.3403,1.3403,1.3403,1.3403,1.3403,1.3403,1.3376,1.3336,1.322,1.3105,1.2888,1.2773,1.2637,1.2501,1.2501,1.2501,1.2501,0.0,0.0,0.0,0.0,0.0,0.0,0.0,0.0,0.0,0.0,0.0,0.0,0.0,0.0,0.0,0.0,0.0,0.0,0.0,1.0412,1.087,1.152,1.1713,1.2021,1.2386,1.2156,1.2215,1.2632,1.2345,1.2331,1.2538,1.2814,1.2699,1.2296,1.2561,1.2687,1.2687,1.2687,1.2814,0.0,0.0,1.2373,1.2212,1.1726,1.1185,1.0519,0.9291,0.824,0.745,0.7375,0.7652,0.7936,0.7434,0.7377,0.7577,0.7985,0.8412,0.8793,0.9099,0.9382,0.9608,0.9683,0.9777,0.9773,0.9495,0.9382,0.9192,0.86,0.8264,0.8059,0.7944,0.8003,0.8313,0.9081,0.9673,1.0156,1.0621,1.0682,1.0605,1.0437,1.0257,1.021,1.0275,1.0286,1.0477,1.0909,1.1265,1.1645,1.2098,1.211,1.211,1.211,1.211,1.2193,1.2443,1.2692,1.2692,1.2443,1.2692,1.2816,1.2816,1.2816,1.2816,1.2816,1.2816,1.2816,1.281,1.2732,1.2615,1.2472,1.2529,1.2423,1.2356,1.2451,1.2501,1.2501,0.0,0.0,0.0,0.0,0.0,0.0,0.0,0.0,0.0,0.9269,0.96,0.9724,0.9516,0.95,0.0,0.0,0.0,0.0,0.0,0.0,1.019,1.0954,1.0773,1.0989,1.1734,1.0975,1.1046,1.2046,1.1472,1.1411,1.1835,1.1899,1.1685,1.125,1.1335,1.1356,1.1356,1.1324,1.1324,1.1345,1.1074,1.0806,1.0558,0.0,0.9984,0.9499,0.7955,0.676,0.5986,0.632,0.7177,0.8026,0.767,0.7565,0.7682,0.8055,0.8285,0.8507,0.8849,0.9027,0.9119,0.9103,0.924,0.928,0.8802,0.8697,0.8581,0.8084,0.7553,0.7264,0.7541,0.7254,0.7432,0.8714,0.9151,0.9544,1.0239,1.0542,1.0634,1.0429,1.0451,1.0416,1.0433,1.0433,1.0476,1.0615,1.0949,1.1364,1.1896,1.1902,1.1902,1.1902,1.1986,1.1986,1.1902,1.2027,1.2069,1.2027,1.2069,1.211,1.211,1.211,1.211,1.211,1.211,1.211,1.211,1.211,1.1989,1.1849,1.2124,1.2144,1.2043,1.2245,1.2192,1.1992,0.0,0.0,0.0,0.0,0.0,0.0,0.0,0.0,0.0,0.0,0.9822,0.9724,0.9516,0.95,0.0,0.0,0.0,0.0,0.0,0.0,0.0,1.0406,1.0382,1.055,1.0972,1.0827,1.0773,1.0814,1.0714,1.0568,1.0466,1.0843,1.0662,1.0037,1.0423,1.0597,1.0577,1.0299,1.0377,1.0654,1.0313,1.0116,0.9997,0.9621,0.0,0.0,0.6905,0.6024,0.5681,0.6336,0.7039,0.7634,0.7784,0.7946,0.8128,0.8421,0.8628,0.8769,0.8995,0.9152,0.9253,0.9125,0.8999,0.8811,0.832,0.7975,0.7588,0.6993,0.6702,0.6517,0.6416,0.6735,0.721,0.7825,0.849,0.9124,0.9812,1.0037,1.0251,1.0528,1.0566,1.0604,1.0625,1.0636,1.0641,1.0663,1.0746,1.084,1.0945,1.0945,1.0945,1.0945,1.132,1.132,1.0945,1.1694,1.1902,1.1528,1.1902,1.211,1.211,1.211,1.211,1.211,1.211,1.211,1.211,1.211,1.1989,1.1808,1.1801,1.1706,1.153,1.1506,1.063,0.9454,0.0,0.0,0.0,0.0,0.0,0.0,0.0,0.9157,0.9674,1.0377,1.0438,1.0241,0.9761,0.9584,0.95,0.0,0.0,0.0,0.0,0.0,0.0,1.0069,1.0226,1.045,1.0739,1.0547,1.0553,1.0814,0.0,1.0295,1.0319,1.0406,1.014,0.9593,0.9685,0.9721,0.9721,0.9558,0.956,0.963,0.9148,0.9088,0.9217,0.8703,0.0,0.0,0.6813,0.616,0.5664,0.6087,0.673,0.7433,0.7864,0.8077,0.8198,0.8503,0.871,0.8858,0.9033,0.9184,0.9264,0.9049,0.8778,0.8426,0.7818,0.7404,0.6975,0.6372,0.6173,0.6081,0.5931,0.6339,0.6839,0.7263,0.7908,0.8628,0.9443,0.972,1.0014,1.0538,1.0612,1.0672,1.069,1.0695,1.0695,1.0695,1.0695,1.0695,1.0695,1.0695,1.0695,1.0695,1.0904,1.0945,1.0695,1.1153,1.1278,1.1029,1.1278,1.1362,1.1362,1.1362,1.1362,1.1362,1.1362,1.1362,1.1362,1.1362,1.1327,1.1252,1.1376,1.1327,1.1117,1.0347,0.9511,0.8677,0.0,0.0,0.0,0.0,0.0,0.0,0.0,0.9507,0.9985,1.0954,1.0929,1.0643,1.0123,0.9841,0.962,0.0,0.0,0.0,0.0,0.0,0.0,0.0,1.0154,1.0436,1.0701,0.0,0.0,1.1087,1.0568,0.0,0.0,0.0,0.0,0.0,0.9374,0.9237,0.9182,0.9096,0.8953,0.0,0.0,0.8078,0.8246,0.0,0.0,0.0,0.0,0.6164,0.5594,0.586,0.6385,0.7018,0.7624,0.7941,0.8154,0.8454,0.8688,0.8858,0.9033,0.9184,0.9247,0.8973,0.8648,0.8199,0.7473,0.7013,0.66,0.6024,0.5882,0.5821,0.5757,0.6071,0.6482,0.6975,0.7488,0.8149,0.916,0.9514,0.9927,1.0528,1.0661,1.0695,1.0695,1.0695,1.0695,1.0695,1.0695,1.0695,1.0695,1.0695,1.0695,1.0695,1.0695,1.0695,1.0695,1.0695,1.0695,1.0695,1.0695,1.0695,1.0695,1.0695,1.0695,1.0695,1.0695,1.0695,1.0695,1.0695,1.0695,1.0726,1.0971,1.0766,1.0201,0.9079,0.8137,0.7271,0.0,0.0,0.0,0.0,0.0,0.0,0.0,0.9381,0.9753,1.1409,1.0891,1.0441,1.0617,1.04,1.0033,0.0,0.0,0.0,0.0,0.0,0.0,0.0,0.0,0.0,0.0,0.0,0.0,1.1087,1.1036,0.0,0.0,0.0,0.0,0.0,0.0,0.9689,0.9443,0.914,0.0,0.0,0.0,0.0,0.0,0.0,0.0,0.0,0.0,0.5243,0.5166,0.5844,0.6045,0.6121,0.673,0.7471,0.8137,0.8361,0.8595,0.8858,0.9033,0.9184,0.9247,0.8973,0.8648,0.8199,0.7473,0.6948,0.6471,0.6002,0.58,0.5757,0.5871,0.6013,0.6363,0.7057,0.7372,0.7959,0.9139,0.9514,0.9927,1.0528,1.0661,1.0695,1.0695,1.0695,1.0695,1.0695,1.0695,1.0695,1.0695,1.0695,1.0695,1.0695,1.0695,1.0695,1.0695,1.0695,1.0695,1.0695,1.0695,1.0695,1.0695,1.0695,1.0695,1.0695,1.0695,1.0695,1.0695,1.0695,1.0695,1.0684,1.0683,0.9662,0.8173,0.7924,0.5813,0.3055,0.0,0.0,0.0,0.0,0.0,0.0,0.9245,0.9235,0.9662,1.125,1.1058,1.0761,1.0713,1.0605,1.025,0.956,0.0,0.0,0.0,0.0,0.0,0.0,0.0,0.0,0.0,0.0,1.1087,1.1087,1.1087,0.0,0.0,0.0,0.0,0.0,0.0,0.9757,0.9512,0.9538,0.0,0.0,0.0,0.0,0.0,0.0,0.0,0.0,0.0,0.0,0.5154,0.5371,0.5578,0.5805,0.5973,0.6498,0.7187,0.772,0.8149,0.8497,0.8742,0.8908,0.9017,0.8883,0.8519,0.8061,0.74,0.6855,0.6352,0.5876,0.574,0.5724,0.5773,0.5899,0.6116,0.6576,0.6757,0.7186,0.8198,0.8579,0.906,0.9955,1.0188,1.0381,1.0668,1.0695,1.0695,1.0695,1.0695,1.0695,1.0695,1.0695,1.0695,1.0695,1.0695,1.0695,1.0695,1.0695,1.0695,1.0695,1.0695,1.0695,1.0695,1.0695,1.0695,1.0695,1.0695,1.0695,1.0695,1.0695,1.0695,1.0607,0.9516,0.8606,0.7653,0.5486,0.3741,0.235,0.0,0.0,0.0,0.0,0.0,0.8137,0.9178,0.9131,0.9551,1.1102,1.1051,1.0822,1.0713,1.0568,1.0238,0.9656,0.9548,0.0,0.0,0.0,0.0,0.0,0.0,0.0,0.0,0.0,1.1014,1.1087,1.1171,1.1171,0.0,0.0,1.0761,1.0412,0.0,0.0,0.0,0.0,0.0,0.0,0.0,0.0,0.0,0.0,0.0,0.0,0.0,0.0,0.0,0.0,0.0,0.554,0.5491,0.5832,0.6396,0.7149,0.7674,0.8107,0.841,0.866,0.8784,0.8693,0.8361,0.7875,0.7269,0.6757,0.6276,0.5805,0.5691,0.5691,0.5691,0.5778,0.5942,0.6249,0.6393,0.6758,0.7633,0.805,0.8579,0.9491,0.9769,1.009,1.0495,1.0636,1.0695,1.0695,1.0695,1.0695,1.0695,1.0695,1.0695,1.0695,1.0695,1.0695,1.0695,1.0695,1.0695,1.0695,1.0695,1.0695,1.0695,1.0695,1.0695,1.0695,1.0695,1.0398,0.994,0.994,0.9601,0.9017,0.7801,0.6907,0.6078,0.3611,0.232,0.1607,0.0,0.0,0.0,0.0,0.0,0.0,0.9473,0.9135,0.9336,1.1077,1.0731,1.0412,1.0677,1.0226,0.9913,0.9901,0.9644,0.0,0.0,0.0,0.0,0.0,0.0,0.0,0.0,0.0,1.0834,1.1087,1.1376,1.1364,1.1117,1.1376,1.1219,1.0689,0.0,0.0,0.0,0.0,0.0,0.0,0.0,0.0,0.5018,0.0,0.0,0.0,0.0,0.0,0.0,0.0,0.0,0.0,0.0,0.5638,0.6051,0.6779,0.7328,0.7785,0.8112,0.841,0.8562,0.8448,0.8144,0.775,0.7149,0.6703,0.6276,0.5805,0.5691,0.5691,0.5691,0.5691,0.5827,0.6233,0.6464,0.691,0.7782,0.8312,0.8764,0.9253,0.9525,0.9851,1.0172,1.053,1.0695,1.0695,1.0695,1.0695,1.0695,1.0695,1.0695,1.0695,1.0695,1.0695,1.0695,1.0695,1.0695,1.0695,1.0695,1.0695,1.0695,1.0695,1.0695,1.0695,1.0695,0.9731,0.8136,0.8136,0.7087,0.5454,0.5454,0.4346,0.2761,0.272,0.1561,0.0039,0.0,0.0,0.0,0.0,0.0,0.0,0.0,0.8449,0.8846,0.999,1.0068,1.0057,1.0142,1.0009,0.9829,0.9644,0.9548,0.0,0.0,0.0,0.0,0.0,0.0,0.0,0.0,1.0472,1.0834,1.1087,1.1376,1.1557,1.1641,1.1557,1.1316,1.0954,1.0701,1.0322,0.0,0.0,0.0,0.0,0.5655,0.4998,0.4998,0.0,0.0,0.0,0.0,0.0,0.0,0.0,0.0,0.0,0.0,0.0,0.0,0.5865,0.6632,0.7362,0.7372,0.7616,0.7807,0.7635,0.7439,0.7149,0.6683,0.6458,0.6208,0.5794,0.5691,0.5691,0.5691,0.5691,0.5881,0.6426,0.6573,0.6883,0.7649,0.8166,0.8205,0.754,0.8122,0.9135,1.0435,1.063,1.0695,1.0695,1.0695,1.0695,1.0695,1.0695,1.0695,1.0695,1.0695,1.0695,1.0695,1.0695,1.0695,1.0695,1.0695,1.0695,1.0695,1.0695,1.0695,1.0612,0.9434,0.8595,0.801,0.6752,0.5915,0.5282,0.4038,0.3208,0.2555,0.1329,0.0478,0.0,0.0,0.0,0.0,0.0,0.0,0.0,0.0,0.7958,0.8354,0.933,0.9454,0.9528,0.9716,0.974,0.968,0.9512,0.95,0.0,0.0,0.0,0.0,0.0,0.0,0.0,1.0045,1.0388,1.0785,1.1255,1.152,1.1737,1.1906,1.1834,1.1605,1.1243,1.0966,1.0527,0.0,0.0,0.0,0.0,0.5494,0.4963,0.4882,0.0,0.0,0.0,0.0,0.0,0.0,0.0,0.0,0.0,0.0,0.0,0.0,0.0,0.5986,0.6643,0.6747,0.7008,0.7214,0.7089,0.6958,0.6763,0.6448,0.6285,0.6134,0.5778,0.5691,0.5691,0.5691,0.5691,0.5859,0.6344,0.6466,0.6574,0.6739,0.7108,0.6972,0.5846,0.6384,0.7532,0.9339,0.9031,0.8975,0.9684,0.9731,0.9731,0.9731,1.0357,1.0695,1.0695,1.0695,1.0695,1.0695,1.0695,1.0695,1.0695,1.0695,1.0695,1.0695,1.0695,1.0357,0.9643,0.8553,0.7338,0.0,0.4826,0.399,0.3232,0.2127,0.1689,0.1543,0.0403,0.0,0.0,0.0,0.0,0.0,0.0,0.0,0.0,0.0,0.7647,0.7885,0.8988,0.8876,0.8888,0.9392,0.9452,0.9464,0.944,0.9452,0.0,0.0,0.0,0.0,0.0,0.0,0.0,1.0226,1.0274,1.0671,1.1465,1.1786,1.1954,1.199,1.2231,1.2075,1.1557,1.1279,1.0731,0.0,0.0,0.0,0.0,0.5219,0.4876,0.0,0.0,0.0,0.0,0.0,0.0,0.0,0.0,0.0,0.0,0.0,0.0,0.0,0.0,0.0,0.0,0.0,0.6509,0.6725,0.6714,0.6632,0.6497,0.6303,0.6172,0.0,0.5757,0.5691,0.5719,0.5746,0.574,0.5827,0.6127,0.6267,0.6093,0.5374,0.5366,0.5193,0.4479,0.4549,0.5362,0.7158,0.6177,0.6083,0.7801,0.7927,0.7927,0.7927,0.9434,1.0315,1.0315,1.0315,1.0445,1.0695,1.057,1.0529,1.0529,1.0529,1.0445,1.0315,1.0445,0.9559,0.7885,0.7759,0.579,0.2688,0.2564,0.1514,0.0,0.0,0.0,0.0,0.0,0.0,0.0,0.0,0.0,0.0,0.0,0.0,0.0,0.0,0.0,0.0,0.0,0.8628,0.8743,0.8863,0.9071,0.9119,0.0,0.0,0.0,0.0,0.0,0.0,0.0,0.0,0.0,0.968,1.0094,1.0587,1.1195,1.187,1.2412,1.2822,1.2882,1.2629,1.2099,1.1834,1.08,0.0,0.0,0.0,0.0,0.5234,0.4906,0.0,0.0,0.0,0.0,0.4723,0.4757,0.0,0.0,0.0,0.0,0.0,0.0,0.0,0.0,0.5181,0.5339,0.5453,0.0,0.5941,0.582,0.5847,0.5903,0.0,0.5904,0.5904,0.574,0.5691,0.5794,0.6094,0.6067,0.623,0.6899,0.6237,0.5693,0.5869,0.4195,0.3506,0.4956,0.4005,0.39,0.5722,0.5596,0.558,0.5999,0.6041,0.6041,0.6041,0.6417,0.6627,0.6627,0.6627,0.7968,1.0654,0.9392,0.872,0.872,0.872,0.7968,0.671,0.8094,0.7718,0.5957,0.4575,0.3486,0.2606,0.122,0.0379,0.0,0.0,0.0,0.0,0.0,0.0,0.0,0.0,0.0,0.0,0.0,0.0,0.0,0.0,0.0,0.0,0.0,0.8279,0.8467,0.8842,0.9011,0.0,0.0,0.0,0.0,0.0,0.0,0.0,0.0,0.0,0.956,0.968,1.0094,1.0611,1.1291,1.1846,1.2448,1.3099,1.2967,1.2711,1.2247,1.1385,1.0095,0.0,0.0,0.0,0.5376,0.5107,0.0,0.0,0.0,0.0,0.0,0.4586,0.4628,0.0,0.4776,0.4839,0.4923,0.0,0.0,0.0,0.0,0.5061,0.511,0.511,0.5453,0.5773,0.5708,0.5784,0.587,0.587,0.5838,0.5784,0.5724,0.5691,0.5642,0.5432,0.5326,0.5286,0.5319,0.48,0.434,0.4165,0.2396,0.16,0.2774,0.2053,0.2186,0.3988,0.3402,0.3276,0.4113,0.4155,0.4155,0.4155,0.4952,0.5413,0.5413,0.5413,0.6334,0.8261,0.7338,0.6878,0.6878,0.6878,0.6334,0.5413,0.6417,0.5873,0.4113,0.3108,0.2228,0.1388,0.0421,0.0,0.0,0.0,0.0,0.0,0.0,0.0,0.0,0.0,0.0,0.0,0.0,0.0,0.0,0.0,0.0,0.0,0.0,0.0,0.0,0.0,0.0,0.0,0.0,0.0,0.0,0.0,0.0,0.0,0.0,0.95,0.9644,0.9961,1.0178,1.0695,1.1489,1.1858,1.2388,1.3099,1.2942,1.2641,1.2093,1.0456,0.9075,0.7907,0.7099,0.6001,0.4833,0.4933,0.0,0.0,0.0,0.0,0.0,0.0,0.0,0.0,0.469,0.4769,0.4812,0.4917,0.0,0.0,0.0,0.0,0.0,0.5058,0.5352,0.5685,0.5815,0.5969,0.6107,0.6107,0.5793,0.556,0.5717,0.5508,0.5087,0.451,0.4258,0.3917,0.3243,0.3049,0.2641,0.167,0.0639,0.0,0.0,0.0,0.0589,0.2144,0.0884,0.0631,0.2186,0.227,0.227,0.227,0.3736,0.4575,0.4575,0.4575,0.4575,0.4575,0.4868,0.4994,0.4994,0.4994,0.4826,0.4575,0.4868,0.3988,0.227,0.227,0.143,0.0,0.0,0.0,0.0,0.0,0.0,0.0,0.0,0.0,0.0,0.0,0.0,0.0,0.0,0.0,0.0,0.0,0.0,0.0,0.0,0.0,0.0,0.0,0.0,0.0,0.0,0.0,0.0,0.0,0.0,0.0,0.95,0.95,0.9728,1.0226,1.0274,1.0695,1.1489,1.2219,1.2771,1.3111,1.3509,1.2943,1.1468,0.9676,0.83,0.7271,0.6423,0.5641,0.496,0.4879,0.0,0.0,0.0,0.0,0.0,0.0,0.0,0.0,0.453,0.4664,0.4798,0.4754,0.0,0.0,0.0,0.0,0.0,0.5319,0.4992,0.4716,0.5389,0.5827,0.6107,0.6107,0.5369,0.4946,0.5842,0.4605,0.3656,0.4707,0.4052,0.3449,0.3649,0.2755,0.1624,0.0452,0.0116,0.0,0.0,0.0,0.0126,0.0379,0.0168,0.0126,0.0379,0.0421,0.0421,0.0421,0.0673,0.0842,0.0842,0.0842,0.0842,0.0842,0.2354,0.3108,0.3108,0.3108,0.2312,0.0884,0.2396,0.2144,0.0421,0.0421,0.0253,0.0,0.0,0.0,0.0,0.0,0.0,0.0,0.0,0.0,0.0,0.0,0.0,0.0,0.0,0.0,0.0,0.0,0.0,0.0,0.0,0.0,0.0,0.0,0.0,0.0,0.0,0.0,0.0,0.0,0.9416,0.962,0.9925,0.9805,0.9901,1.0286,1.0737,1.1279,1.193,1.2593,1.3123,1.3521,1.3126,1.2015,1.0333,0.901,0.7811,0.6722,0.611,0.5529,0.4988,0.0,0.0,0.0,0.0,0.0,0.0,0.0,0.0,0.0,0.0,0.4606,0.4735,0.4746,0.0,0.0,0.0,0.0,0.0,0.5065,0.4714,0.4366,0.4678,0.4629,0.4535,0.453,0.4066,0.3785,0.4256,0.3585,0.2943,0.3049,0.2598,0.2108,0.1793,0.1239,0.0652,0.0077,0.0,0.0,0.0,0.0,0.0,0.0,0.0,0.0,0.0,0.0,0.0,0.0,0.0,0.0,0.0,0.0,0.0,0.0,0.0842,0.1262,0.1262,0.1262,0.0799,0.0042,0.0842,0.0799,0.0,0.0,0.0,0.0,0.0,0.0,0.0,0.0,0.0,0.0,0.0,0.0,0.0,0.0,0.0,0.0,0.0,0.0,0.0,0.0,0.0,0.0,0.0,0.0,0.0,0.0,0.0,0.0,0.0,0.0,0.0,0.0,0.93,0.9648,1.0178,1.013,1.0298,1.0761,1.1255,1.1814,1.2485,1.2846,1.3163,1.3426,1.217,1.0752,0.9252,0.8185,0.7122,0.6116,0.573,0.5317,0.4944,0.0,0.0,0.0,0.0,0.0,0.0,0.0,0.0,0.0,0.0,0.0,0.0,0.0,0.0,0.0,0.4795,0.4798,0.4766,0.4694,0.4261,0.3793,0.3608,0.3399,0.3241,0.3216,0.2875,0.2673,0.2922,0.2561,0.207,0.1532,0.1257,0.0846,0.0104,0.0,0.0,0.0,0.0,0.0,0.0,0.0,0.0,0.0,0.0,0.0,0.0,0.0,0.0,0.0,0.0,0.0,0.0,0.0,0.0,0.0,0.0,0.0,0.0,0.0,0.0,0.0,0.0,0.0,0.0,0.0,0.0,0.0,0.0,0.0,0.0,0.0,0.0,0.0,0.0,0.0,0.0,0.0,0.0,0.0,0.0,0.0,0.0,0.0,0.0,0.0,0.0,0.0,0.0,0.0,0.0,0.0,0.0,0.0,0.0,0.0,0.9119,0.9372,0.9913,1.04,1.1123,1.2123,1.1725,1.2015,1.3039,1.2822,1.254,1.2105,1.0649,0.9497,0.8599,0.6973,0.5929,0.5351,0.5011,0.4857,0.4801,0.4732,0.0,0.0,0.0,0.0,0.0,0.0,0.0,0.0,0.0,0.0,0.0,0.0,0.0,0.4795,0.4795,0.4757,0.4659,0.4409,0.3416,0.2363,0.2035,0.2674,0.336,0.3228,0.2425,0.1974,0.2981,0.1599,0.0486,0.141,0.0786,0.0067,0.0,0.0,0.0,0.0,0.0,0.0,0.0,0.0,0.0,0.0,0.0,0.0,0.0,0.0,0.0,0.0,0.0,0.0,0.0,0.0,0.0,0.0,0.0,0.0,0.0,0.0,0.0,0.0,0.0,0.0,0.0,0.0,0.0,0.0,0.0,0.0,0.0,0.0,0.0,0.0,0.0,0.0,0.0,0.0,0.0,0.0,0.0,0.0,0.0,0.0,0.0,0.0,0.0,0.0,0.0,0.0,0.0,0.0,0.0,0.0,0.0,0.8842,0.9011,0.9336,0.9877,1.025,1.079,1.1476,1.1822,1.2348,1.3101,1.2303,1.1564,1.0915,0.9551,0.8255,0.7011,0.6163,0.5474,0.4903,0.4706,0.4679,0.4779,0.4639,0.4575,0.0,0.0,0.0,0.0,0.0,0.0,0.0,0.0,0.4531,0.4679,0.4597,0.4675,0.4798,0.4746,0.4395,0.3999,0.3886,0.2801,0.1646,0.1514,0.1392,0.1268,0.1218,0.0886,0.0724,0.1137,0.0576,0.0129,0.0517,0.0265,0.0,0.0,0.0,0.0,0.0,0.0,0.0,0.0,0.0,0.0,0.0,0.0,0.0,0.0,0.0,0.0,0.0,0.0,0.0,0.0,0.0,0.0,0.0,0.0,0.0,0.0,0.0,0.0,0.0,0.0,0.0,0.0,0.0,0.0,0.0,0.0,0.0,0.0,0.0,0.0,0.0,0.0,0.0,0.0,0.0,0.0,0.0,0.0,0.0,0.0,0.0,0.0,0.0,0.0,0.0,0.0,0.0,0.0,0.0,0.0,0.0,0.0,0.8575,0.8758,0.9131,0.974,0.9932,1.0307,1.095,1.1215,1.1772,1.2586,1.15,1.0486,0.9554,0.8376,0.7233,0.6113,0.5626,0.5163,0.4721,0.4613,0.4644,0.4757,0.4568,0.4503,0.0,0.0,0.0,0.0,0.0,0.0,0.0,0.0,0.4481,0.4629,0.4606,0.4679,0.4747,0.4495,0.4022,0.3502,0.3008,0.2066,0.117,0.096,0.0441,0.0,0.0,0.0,0.0,0.0,0.0,0.0,0.0,0.0,0.0,0.0,0.0,0.0,0.0,0.0,0.0,0.0,0.0,0.0,0.0,0.0,0.0,0.0,0.0,0.0,0.0,0.0,0.0,0.0,0.0,0.0,0.0,0.0,0.0,0.0,0.0,0.0,0.0,0.0,0.0,0.0,0.0,0.0,0.0,0.0,0.0,0.0,0.0,0.0,0.0,0.0,0.0,0.0,0.0,0.0,0.0,0.0,0.0,0.0,0.0,0.0,0.7376,0.7843,0.7901,0.0,0.0,0.0,0.0,0.0,0.0,0.0,0.8299,0.8299,0.8659,0.9452,0.9427,0.9856,1.085,0.9834,1.0,1.1467,1.046,0.9295,0.7965,0.703,0.6442,0.6158,0.5362,0.4928,0.479,0.4721,0.4708,0.4697,0.4558,0.4503,0.4492,0.0,0.0,0.0,0.0,0.0,0.0,0.0,0.4503,0.453,0.4733,0.4795,0.4647,0.3999,0.3695,0.3234,0.1712,0.1196,0.0914,0.0173,0.0,0.0,0.0,0.0,0.0,0.0,0.0,0.0,0.0,0.0,0.0,0.0,0.0,0.0,0.0,0.0,0.0,0.0,0.0,0.0,0.0,0.0,0.0,0.0,0.0,0.0,0.0,0.0,0.0,0.0,0.0,0.0,0.0,0.0,0.0,0.0,0.0,0.0,0.0,0.0,0.0,0.0,0.0,0.0,0.0,0.0,0.0,0.0,0.0,0.0,0.0,0.0,0.0,0.0,0.0,0.0,0.0,0.0,0.0,0.0,0.0,0.0,0.7582,0.7867,0.8225,0.0,0.0,0.0,0.0,0.0,0.0,0.0,0.8299,0.8299,0.8376,0.8576,0.9063,0.9048,0.8455,0.7804,0.8061,0.9245,0.828,0.7562,0.7066,0.6175,0.5624,0.5336,0.5112,0.4928,0.479,0.4721,0.4708,0.4702,0.4651,0.4536,0.4371,0.0,0.0,0.0,0.0,0.0,0.0,0.0,0.0,0.0,0.4573,0.429,0.3928,0.3713,0.2868,0.1875,0.1419,0.0826,0.0265,0.0052,0.0,0.0,0.0,0.0,0.0,0.0,0.0,0.0,0.0,0.0,0.0,0.0,0.0,0.0,0.0,0.0,0.0,0.0,0.0,0.0,0.0,0.0,0.0,0.0,0.0,0.0,0.0,0.0,0.0,0.0,0.0,0.0,0.0,0.0,0.0,0.0,0.0,0.0,0.0,0.0,0.0,0.0,0.0,0.0,0.0,0.0,0.0,0.0,0.0,0.0,0.0,0.0,0.0,0.0,0.0,0.0,0.0,0.0,0.0,0.0,0.0,0.0,0.7545,0.7867,0.8191,0.8263,0.0,0.0,0.0,0.8153,0.8129,0.0,0.8129,0.8033,0.8044,0.8195,0.8189,0.7683,0.6634,0.6452,0.6565,0.6915,0.6698,0.6388,0.6021,0.5589,0.5316,0.5159,0.5188,0.5112,0.4944,0.4795,0.4715,0.4702,0.4635,0.4558,0.4459,0.0,0.0,0.0,0.0,0.0,0.0,0.0,0.0,0.0,0.4492,0.4042,0.346,0.3165,0.224,0.1228,0.0874,0.0399,0.0,0.0,0.0,-0.0032,-0.0202,-0.0103,0.0,0.0,0.0,0.0,0.0,0.0,0.0,0.0,0.0,0.0,0.0,0.0,0.0,0.0,0.0,0.0,0.0,0.0,0.0,0.0,0.0,0.0,0.0,0.0,0.0,0.0,0.0,0.0,0.0,0.0,0.0,0.0,0.0,0.0,0.0,0.0,0.0,0.0,0.0,0.0,0.0,0.0,0.0,0.0,0.0,0.0,0.0,0.0,0.0,0.0,0.0,0.0,0.643,0.6406,0.0,0.0,0.0,0.7231,0.7412,0.7841,0.7949,0.7949,0.0,0.0,0.0,0.7901,0.7901,0.7888,0.7861,0.7634,0.7672,0.8054,0.7012,0.6108,0.5453,0.5664,0.546,0.4798,0.5587,0.5641,0.5004,0.5267,0.5381,0.5392,0.5453,0.5367,0.5154,0.4885,0.4735,0.4662,0.4564,0.4575,0.4646,0.4542,0.0,0.0,0.0,0.0,0.0,0.0,0.0,0.0,0.4379,0.3883,0.3148,0.2425,0.1718,0.1007,0.021,0.0,0.0,0.0,-0.003,-0.0161,-0.0562,-0.0358,-0.0108,-0.0073,-0.0036,0.0,0.0,0.0,0.0,0.0,0.0,0.0,0.0,0.0,0.0,0.0,0.0,0.0,0.0,0.0,0.0,0.0,0.0,0.0,0.0,0.0,0.0,0.0,0.0,0.0,0.0,0.0,0.0,0.0,0.0,0.0,0.0,0.0,0.0,0.0,0.0,0.0,0.0,0.0,0.0,0.0,0.0,0.0,0.0,0.0,0.0,0.0,0.0,0.0,0.6648,0.6442,0.0,0.0,0.7158,0.7508,0.7783,0.7889,0.8275,0.8371,0.7949,0.8081,0.0,0.7925,0.7901,0.7808,0.7607,0.7528,0.7358,0.7044,0.6228,0.5768,0.5717,0.5212,0.4884,0.4728,0.4961,0.5054,0.4998,0.5159,0.5299,0.5387,0.5295,0.5186,0.5029,0.471,0.4552,0.4547,0.4618,0.4553,0.4399,0.4464,0.4371,0.0,0.0,0.0,0.0,0.0,0.0,0.0,0.3776,0.3066,0.227,0.1694,0.0919,0.0236,0.0047,0.0,0.0,0.0,-0.0231,-0.056,-0.0974,-0.1018,-0.0836,-0.0547,-0.0218,0.0,0.0,0.0,0.0,0.0,0.0,0.0,0.0,0.0,0.0,0.0,0.0,0.0,0.0,0.0,0.0,0.0,0.0,0.0,0.0,0.0,0.0,0.0,0.0,0.0,0.0,0.0,0.0,0.0,0.0,0.0,0.0,0.0,0.0,0.0,0.0,0.0,0.0,0.0,0.0,0.0,0.0,0.0,0.0,0.0,0.0,0.0,0.0,0.0,0.0,0.0,0.0,0.0,0.0,0.0,0.7901,0.7901,0.8141,0.8215,0.7925,0.8021,0.0,0.0,0.7714,0.7593,0.7327,0.6977,0.6459,0.5732,0.5545,0.5318,0.4995,0.4676,0.4475,0.4415,0.4441,0.4652,0.5004,0.5231,0.5405,0.554,0.5474,0.5269,0.4977,0.4704,0.4525,0.441,0.4475,0.4459,0.4399,0.4404,0.4273,0.4094,0.4019,0.0,0.0,0.0,0.0,0.0,0.0,0.0,0.1562,0.129,0.0641,0.0,0.0,0.0,-0.0055,-0.0253,-0.0442,-0.0748,-0.1344,-0.1349,-0.1204,-0.1167,-0.0839,-0.0511,-0.0328,-0.0295,-0.0224,-0.0038,0.0,0.0,0.0,0.0,0.0,0.0,0.0,0.0,0.0,0.0,0.0,0.0,0.0,0.0,0.0,0.0,0.0,0.0,0.0,0.0,0.0,0.0,0.0,0.0,0.0,0.0,0.0,0.0,0.0,0.0,0.0,0.0,0.0,0.0,0.0,0.0,0.0,0.0,0.0,0.0,0.0,0.0,0.0,0.0,0.0,0.0,0.0,0.0,0.0,0.0,0.0,0.7913,0.7937,0.7949,0.7913,0.7861,0.7741,0.0,0.0,0.0,0.6923,0.6188,0.5422,0.4663,0.4971,0.4857,0.4181,0.4257,0.4262,0.4164,0.4164,0.4478,0.5096,0.533,0.5556,0.5767,0.5686,0.5405,0.4977,0.471,0.4453,0.4235,0.4235,0.4295,0.4382,0.4273,0.4159,0.4039,0.3926,0.3953,0.4035,0.3934,0.0,0.0,0.0,0.0,0.1073,0.0954,0.0469,0.0,0.0,0.0,-0.0113,-0.0584,-0.0687,-0.092,-0.1699,-0.1638,-0.1495,-0.1822,-0.1459,-0.0985,-0.0657,-0.0552,-0.0371,-0.0037,0.0,0.0,0.0,0.0,0.0,0.0,0.0,0.0,0.0,0.0,0.0,0.0,0.0,0.0,0.0,0.0,0.0,0.0,0.0,0.0,0.0,0.0,0.0,0.0,0.0,0.0,0.0,0.0,0.0,0.0,0.0,0.0,0.0,0.0,0.0,0.0,0.0,0.0,0.0,0.0,0.0,0.0,0.0,0.0,0.0,0.0,0.0,0.0,0.0,0.0,0.0,0.0,0.8093,0.8167,0.7925,0.7701,0.7528,0.7501,0.6912,0.6439,0.6164,0.0,0.0,0.4769,0.4669,0.4562,0.4442,0.4344,0.4338,0.4442,0.4442,0.4784,0.5432,0.5311,0.5523,0.6024,0.5627,0.5268,0.496,0.4408,0.4094,0.3954,0.3954,0.3959,0.3976,0.3959,0.3909,0.3844,0.3813,0.3819,0.3774,0.3306,0.3088,0.0,0.0,0.0,0.0982,0.0335,0.0073,0.0,0.0,0.0,-0.0178,-0.0874,-0.1066,-0.1322,-0.2079,-0.2206,-0.215,-0.2223,-0.1422,-0.0657,-0.062,-0.0329,-0.0073,0.0,0.0,0.0,0.0,0.0,0.0,0.0,0.0,0.0,0.0,0.0,0.0,0.0,0.0,0.0,0.0,0.0,0.0,0.0,0.0,0.0,0.0,0.0,0.0,0.0,0.0,0.0,0.0,0.0,0.0,0.0,0.0,0.0,0.0,0.0,0.0,0.0,0.0,0.0,0.0,0.0,0.0,0.0,0.0,0.0,0.0,0.0,0.0,0.0,0.0,0.0,0.0,0.0,0.0,0.7804,0.7699,0.7434,0.7112,0.6693,0.6358,0.5841,0.5048,0.4674,0.4407,0.4242,0.4188,0.4153,0.4119,0.4049,0.4066,0.417,0.4131,0.4577,0.5502,0.54,0.5724,0.6366,0.5882,0.554,0.5232,0.4599,0.4208,0.4007,0.3887,0.3637,0.3372,0.3712,0.3563,0.3231,0.3573,0.3525,0.3254,0.3029,0.2497,0.1834,0.1279,0.0,0.0,0.0,0.0,0.0,0.0,0.0,-0.0174,-0.0923,-0.1135,-0.1344,-0.2133,-0.23,-0.2313,-0.2293,-0.1568,-0.0949,-0.0949,-0.062,-0.0256,-0.0037,0.0,0.0,0.0,0.0,0.0,0.0,0.0,0.0,0.0,0.0,0.0,0.0,0.0,0.0,0.0,0.0,0.0,0.0,0.0,0.0,0.0,0.0,0.0,0.0,0.0,0.0,0.0,0.0,0.0,0.0,0.0,0.0,0.0,0.0,0.0,0.0,0.0,0.0,0.0,0.0,0.0,0.0,0.0,0.0,0.0,0.0,0.0,0.0,0.0,0.0,0.0,0.0,0.0,0.7219,0.7219,0.0,0.0,0.0,0.5659,0.5117,0.4111,0.4141,0.4085,0.3809,0.3853,0.3849,0.38,0.3795,0.383,0.3872,0.3842,0.4398,0.5508,0.5508,0.5957,0.6736,0.6285,0.5865,0.547,0.4909,0.4518,0.4234,0.3781,0.3322,0.2947,0.3196,0.2947,0.2539,0.2983,0.2923,0.2605,0.2452,0.1789,0.1027,0.0867,0.0439,0.0,0.0,0.0,0.0,0.0,0.0,-0.0162,-0.0906,-0.1081,-0.1289,-0.2082,-0.2256,-0.2278,-0.2279,-0.1706,-0.1163,-0.1204,-0.0876,-0.0474,-0.0073,-0.0074,-0.0111,0.0,0.0,0.0,0.0,0.0,0.0,0.0,0.0,0.0,0.0,0.0,0.0,0.0,0.0,0.0,0.0,0.0,0.0,0.0,0.0,0.0,0.0,0.0,0.0,0.0,0.0,0.0,0.0,0.0,0.0,0.0,0.0,0.0,0.0,0.0,0.0,0.0,0.0,0.0,0.0,0.0,0.0,0.0,0.0,0.0,0.0,0.0,0.0,0.0,0.0,0.0,0.6457,0.6457,0.5819,0.5377,0.5336,0.4697,0.4098,0.3666,0.3644,0.0,0.0,0.38,0.0,0.3795,0.3795,0.38,0.3806,0.3871,0.445,0.5508,0.5508,0.6092,0.7138,0.6747,0.6173,0.5491,0.5262,0.5012,0.4665,0.3511,0.3033,0.2908,0.2192,0.1878,0.1842,0.1889,0.1885,0.1768,0.1202,0.0963,0.0806,0.0245,0.0034,0.0,0.0,0.0,0.0,0.0,0.0,-0.0168,-0.0833,-0.1067,-0.1277,-0.194,-0.2163,-0.2222,-0.2281,-0.1648,-0.1115,-0.1201,-0.0876,-0.0474,-0.0073,-0.0329,-0.0438,-0.0037,0.0,0.0,0.0,0.0,0.0,0.0,0.0,0.0,0.0,0.0,0.0,0.0,0.0,0.0,0.0,0.0,0.0,0.0,0.0,0.0,0.0,0.0,0.0,0.0,0.0,0.0,0.0,0.0,0.0,0.0,0.0,0.0,0.0,0.0,0.0,0.0,0.0,0.0,0.0,0.0,0.0,0.0,0.0,0.0,0.0,0.0,0.0,0.0,0.0,0.0,0.0,0.0,0.5308,0.4924,0.4615,0.4111,0.3763,0.361,0.3597,0.0,0.0,0.3756,0.3762,0.3676,0.3762,0.3795,0.3795,0.3738,0.4208,0.5188,0.536,0.5725,0.6246,0.635,0.6252,0.5975,0.542,0.5137,0.4933,0.3655,0.2939,0.2615,0.2016,0.1558,0.1266,0.1663,0.1548,0.1193,0.0983,0.0637,0.0292,0.007,0.0,0.0,0.0,0.0,0.0,0.0,0.0,-0.0114,-0.0558,-0.0858,-0.1159,-0.1657,-0.2001,-0.2217,-0.2223,-0.1616,-0.1171,-0.1473,-0.1016,-0.0474,-0.0073,-0.0328,-0.0474,-0.0073,0.0,0.0,0.0,0.0,0.0,0.0,0.0,0.0,0.0,0.0,0.0,0.0,0.0,0.0,0.0,0.0,0.0,0.0,0.0,0.0,0.0,0.0,0.0,0.0,0.0,0.0,0.0,0.0,0.0,0.0,0.0,0.0,0.0,0.0,0.0,0.0,0.0,0.0,0.0,0.0,0.0,0.0,0.7195,0.0,0.6885,0.6145,0.6036,0.59,0.5541,0.0,0.0,0.0,0.0,0.4385,0.4035,0.3763,0.3597,0.3597,0.3597,0.0,0.0,0.372,0.3762,0.3671,0.3824,0.3868,0.3795,0.3777,0.4132,0.4838,0.5078,0.5382,0.5719,0.5855,0.6041,0.6205,0.5758,0.555,0.5358,0.3753,0.2877,0.2474,0.154,0.0952,0.0655,0.1058,0.0946,0.0599,0.0605,0.0342,0.0,0.0,0.0,0.0,0.0,0.0,0.0,0.0,0.0,-0.0065,-0.0383,-0.064,-0.0955,-0.1432,-0.1756,-0.2019,-0.2155,-0.1577,-0.1148,-0.1453,-0.1003,-0.0506,-0.0255,-0.0547,-0.062,-0.0073,0.0,0.0,0.0,0.0,0.0,0.0,0.0,0.0,0.0,0.0,0.0,0.0,0.0,0.0,0.0,0.0,0.0,0.0,0.0,0.0,0.0,0.0,0.0,0.0,0.0,0.0,0.0,0.0,0.0,0.0,0.0,0.0,0.0,0.0,0.0,0.0,0.0,0.0,0.0,0.7526,0.7484,0.7244,0.6503,0.6381,0.6136,0.5385,0.5283,0.5187,0.4912,0.0,0.0,0.0,0.0,0.0,0.3629,0.3618,0.3613,0.3602,0.3602,0.3597,0.3597,0.3731,0.3806,0.3795,0.3996,0.4001,0.3795,0.399,0.4224,0.4492,0.4684,0.5092,0.5659,0.5344,0.5534,0.6091,0.6205,0.6205,0.5926,0.3762,0.2815,0.2527,0.0689,0.0,0.0,0.0,0.0,0.0,0.0,0.0,0.0,0.0,0.0,0.0,0.0,0.0,0.0,0.0,0.0,0.0,-0.0314,-0.0445,-0.0644,-0.1252,-0.1437,-0.1592,-0.2007,-0.1495,-0.1016,-0.1115,-0.0841,-0.0601,-0.0617,-0.0911,-0.0912,-0.0109,0.0,0.0,0.0,0.0,0.0,0.0,0.0,0.0,0.0,0.0,0.0,0.0,0.0,0.0,0.0,0.0,0.0,0.0,0.0,0.0,0.0,0.0,0.0,0.0,0.0,0.0,0.0,0.0,0.0,0.0,0.0,0.0,0.0,0.0,0.0,0.0,0.0,0.0,0.0,0.6983,0.6974,0.6822,0.6031,0.5885,0.5636,0.49,0.4797,0.4649,0.0,0.0,0.0,0.4043,0.4102,0.4153,0.4105,0.4023,0.3892,0.3747,0.366,0.3597,0.3597,0.386,0.3951,0.38,0.4099,0.4104,0.3795,0.3851,0.3946,0.4072,0.4316,0.4583,0.4852,0.519,0.5381,0.5452,0.5382,0.5741,0.6102,0.3714,0.3,0.3115,0.0854,0.0,0.0,0.0,0.0,0.0,0.0,0.0,0.0,0.0,0.0,0.0,0.0,0.0,0.0,0.0,0.0,0.0,0.0,0.0,0.0,-0.07,-0.0953,-0.1233,-0.1591,-0.1325,-0.1107,-0.1396,-0.1183,-0.089,-0.0627,-0.0711,-0.0577,-0.0073,0.0,0.0,0.0,0.0,0.0,0.0,0.0,0.0,0.0,0.0,0.0,0.0,0.0,0.0,0.0,0.0,0.0,0.0,0.0,0.0,0.0,0.0,0.0,0.0,0.0,0.0,0.0,0.0,0.0,0.0,0.0,0.0,0.0,0.0,0.0,0.0,0.0,0.0,0.0,0.6381,0.6324,0.6175,0.5448,0.5316,0.5128,0.4567,0.4421,0.431,0.0,0.0,0.0,0.4159,0.4463,0.4588,0.4404,0.4262,0.411,0.3935,0.3775,0.366,0.3602,0.3861,0.3959,0.3848,0.4202,0.4208,0.3842,0.3897,0.388,0.378,0.4,0.4153,0.4262,0.4331,0.4422,0.4505,0.3999,0.4465,0.536,0.3543,0.2776,0.2494,0.0676,0.0,0.0,0.0,0.0,0.0,0.0,0.0,0.0,0.0,0.0,0.0,0.0,0.0,0.0,0.0,0.0,0.0,0.0,0.0,0.0,-0.0432,-0.0628,-0.0897,-0.1223,-0.1117,-0.1031,-0.1304,-0.1039,-0.0759,-0.0539,-0.0413,-0.0282,-0.0036,0.0,0.0,0.0,0.0,0.0,0.0,0.0,0.0,0.0,0.0,0.0,0.0,0.0,0.0,0.0,0.0,0.0,0.0,0.0,0.0,0.0,0.0,0.0,0.0,0.0,0.0,0.0,0.0,0.0,0.0,0.0,0.0,0.0,0.0,0.0,0.0,0.0,0.0,0.0,0.0,0.5647,0.5484,0.4922,0.4811,0.4701,0.4444,0.4306,0.4256,0.0,0.4404,0.4502,0.469,0.5048,0.5114,0.4683,0.4474,0.4322,0.417,0.3945,0.3756,0.364,0.3823,0.3922,0.3922,0.4295,0.4317,0.3922,0.4051,0.3947,0.364,0.3742,0.3796,0.3757,0.3179,0.3098,0.3383,0.2524,0.2867,0.3896,0.3084,0.2236,0.1346,0.0339,-0.0032,0.0,0.0,0.0,0.0,0.0,0.0,0.0,0.0,0.0,0.0,0.0,0.0,0.0,0.0,0.0,0.0,0.0,0.0,0.0,-0.0292,-0.0395,-0.0552,-0.0871,-0.0906,-0.0877,-0.0939,-0.0649,-0.041,-0.0356,-0.0165,0.0,0.0,0.0,0.0,0.0,0.0,0.0,0.0,0.0,0.0,0.0,0.0,0.0,0.0,0.0,0.0,0.0,0.0,0.0,0.0,0.0,0.0,0.0,0.0,0.0,0.0,0.0,0.0,0.0,0.0,0.0,0.0,0.0,0.0,0.0,0.0,0.0,0.0,0.0,0.0,0.0,0.5269,0.5259,0.5293,0.5007,0.4868,0.486,0.4999,0.4996,0.4953,0.4868,0.5045,0.5376,0.5883,0.585,0.5725,0.5632,0.5165,0.4784,0.4597,0.4097,0.3819,0.3835,0.3991,0.4067,0.4067,0.4355,0.4361,0.4067,0.4089,0.4018,0.3835,0.3819,0.3548,0.3097,0.3009,0.2769,0.2402,0.2527,0.2321,0.1837,0.1355,0.1441,0.1716,0.0185,-0.0224,0.0,0.0,0.0,0.0,0.0,0.0,0.0,0.0,0.0,0.0,0.0,0.0,0.0,0.0,0.0,0.0,0.0,0.0,0.0,-0.0069,-0.0094,-0.0194,-0.0526,-0.0584,-0.0572,-0.0582,-0.0546,-0.0382,-0.0118,-0.0032,0.0,0.0,0.0,0.0,0.0,0.0,0.0,0.0,0.0,0.0,0.0,0.0,0.0,0.0,0.0,0.0,0.0,0.0,0.0,0.0,0.0,0.0,0.0,0.0,0.0,0.0,0.0,0.0,0.0,0.0,0.0,0.0,0.0,0.0,0.0,0.0,0.0,0.0,0.0,0.0,0.0,0.4873,0.4896,0.5002,0.5002,0.495,0.5004,0.5302,0.5317,0.5365,0.5523,0.586,0.6107,0.6107,0.6192,0.6165,0.5926,0.5469,0.5089,0.4868,0.4344,0.4001,0.3905,0.4034,0.4132,0.4191,0.4322,0.4327,0.4191,0.4072,0.3794,0.3396,0.3294,0.2857,0.2139,0.1868,0.158,0.1283,0.1049,0.0753,0.0496,0.0892,0.1039,0.0898,0.0064,-0.0131,0.0,0.0,0.0,0.0,0.0,0.0,0.0,0.0,0.0,0.0,0.0,0.0,0.0,0.0,0.0,0.0,0.0,0.0,0.0,0.0,0.0,-0.0048,-0.0222,-0.0349,-0.0456,-0.0455,-0.0441,-0.0394,-0.0227,-0.0091,0.0,0.0,0.0,0.0,0.0,0.0,0.0,0.0,0.0,0.0,0.0,0.0,0.0,0.0,0.0,0.0,0.0,0.0,0.0,0.0,0.0,0.0,0.0,0.0,0.0,0.0,0.0,0.0,0.0,0.0,0.0,0.0,0.0,0.0,0.0,0.0,0.0,0.0,0.0,0.0,0.0,0.464,0.4639,0.4797,0.5047,0.5101,0.521,0.5524,0.5578,0.573,0.6189,0.66,0.6568,0.5771,0.6052,0.602,0.5269,0.4904,0.4711,0.4731,0.4275,0.405,0.4148,0.4143,0.4213,0.4398,0.4338,0.43,0.43,0.3935,0.3493,0.2945,0.2687,0.2101,0.125,0.0728,0.0402,0.0185,-0.0496,-0.0685,-0.0441,0.0552,0.0529,-0.0091,-0.0162,-0.01,0.0,0.0,0.0,0.0,0.0,0.0,0.0,0.0,0.0,0.0,0.0,0.0,0.0,0.0,0.0,0.0,0.0,0.0,0.0,0.0,0.0,0.0,0.0,-0.0173,-0.0326,-0.0312,-0.0318,-0.0323,-0.0329,-0.0145,0.0,0.0,0.0,0.0,0.0,0.0,0.0,0.0,0.0,0.0,0.0,0.0,0.0,0.0,0.0,0.0,0.0,0.0,0.0,0.0,0.0,0.0,0.0,0.0,0.0,0.0,0.0,0.0,0.0,0.0,0.0,0.0,0.0,0.0,0.0,0.0,0.0,0.0,0.0,0.0,0.0,0.4773,0.4787,0.492,0.5367,0.5448,0.5529,0.58,0.6058,0.6325,0.6671,0.6975,0.6576,0.5081,0.5144,0.4565,0.2859,0.2396,0.264,0.3701,0.3273,0.3585,0.4981,0.4556,0.4419,0.4731,0.4446,0.43,0.43,0.3614,0.3246,0.3153,0.242,0.1608,0.0767,0.0575,0.0038,-0.0735,-0.0792,-0.0857,-0.0902,-0.0726,-0.0517,-0.0393,-0.0677,-0.0477,0.0,0.0,0.0,0.0,0.0,0.0,0.0,0.0,0.0,0.0,0.0,0.0,0.0,0.0,0.0,0.0,0.0,0.0,0.0,0.0,0.0,0.0,0.0,0.0,-0.0047,-0.0048,0.0,0.0,-0.0051,-0.0027,0.0,0.0,0.0,0.0,0.0,0.0,0.0,0.0,0.0,0.0,0.0,0.0,0.0,0.0,0.0,0.0,0.0,0.0,0.0,0.0,0.0,0.0,0.0,0.0,0.0,0.0,0.0,0.0,0.0,0.0,0.0,0.0,0.0,0.0,0.0,0.0,0.0,0.0,0.0,0.0,0.0,0.4748,0.4844,0.5004,0.5275,0.5398,0.5551,0.5855,0.6464,0.6942,0.7062,0.7377,0.7314,0.6571,0.6482,0.5752,0.3903,0.3515,0.346,0.3713,0.3365,0.3517,0.4348,0.4737,0.4404,0.3254,0.3632,0.3511,0.285,0.2497,0.2089,0.1624,0.1326,0.0638,-0.0346,-0.044,-0.0729,-0.1149,-0.127,-0.1277,-0.1203,-0.1365,-0.1245,-0.0984,-0.1008,-0.0857,-0.0633,-0.0683,-0.0689,-0.0652,-0.0433,-0.0362,-0.0295,-0.0064,0.0,0.0,0.0,0.0,0.0,0.0,0.0,0.0,0.0,0.0,0.0,0.0,0.0,0.0,0.0,0.0,0.0,0.0,0.0,0.0,0.0,0.0,0.0,0.0,0.0,0.0,0.0,0.0,0.0,0.0,0.0,0.0,0.0,0.0,0.0,0.0,0.0,0.0,0.0,0.0,0.0,0.0,0.0,0.0,0.0,0.0,0.0,0.0,0.0,0.0,0.0,0.0,0.0,0.0,0.0,0.0,0.0,0.0,0.0,0.0,0.0,0.0,0.0,0.4781,0.4893,0.5061,0.5228,0.5359,0.5572,0.6029,0.6693,0.7197,0.7294,0.7474,0.7261,0.6407,0.6142,0.5184,0.3051,0.2789,0.2713,0.2706,0.2532,0.269,0.3275,0.396,0.3602,0.2047,0.2619,0.2526,0.1696,0.1482,0.1066,0.0467,0.0335,-0.0218,-0.1112,-0.1166,-0.1292,-0.1449,-0.1635,-0.1639,-0.1551,-0.1772,-0.177,-0.1572,-0.1238,-0.1119,-0.1142,-0.1188,-0.1192,-0.1152,-0.0877,-0.0767,-0.0698,-0.0294,-0.0162,-0.0128,-0.0032,0.0,0.0,0.0,0.0,0.0,0.0,0.0,0.0,0.0,0.0,0.0,0.0,0.0,0.0,0.0,0.0,0.0,0.0,0.0,0.0,0.0,0.0,0.0,0.0,0.0,0.0,0.0,0.0,0.0,0.0,0.0,0.0,0.0,0.0,0.0,0.0,0.0,0.0,0.0,0.0,0.0,0.0,0.0,0.0,0.0,0.0,0.0,0.0,0.0,0.0,0.0,0.0,0.0,0.0,0.0,0.0,0.0,0.0,0.0,0.0,0.4966,0.4993,0.5089,0.5343,0.5442,0.5739,0.646,0.6725,0.6942,0.7262,0.6965,0.5724,0.3061,0.246,0.1117,-0.1736,-0.1867,-0.131,-0.0153,-0.0028,0.0618,0.1992,0.1786,0.1685,0.1819,0.1586,0.1442,0.1421,0.083,0.05,0.0381,-0.0259,-0.0752,-0.1097,-0.117,-0.1407,-0.1781,-0.1783,-0.1891,-0.2085,-0.2087,-0.2125,-0.2118,-0.1438,-0.1184,-0.1192,-0.1192,-0.1192,-0.119,-0.1173,-0.1167,-0.1127,-0.0697,-0.0565,-0.0501,-0.013,0.0,0.0,0.0,0.0,0.0,0.0,0.0,0.0,0.0,0.0,0.0,0.0,0.0,0.0,0.0,0.0,0.0,0.0,0.0,0.0,0.0,0.0,0.0,0.0,0.0,0.0,0.0,0.0,0.0,0.0,0.0,0.0,0.0,0.0,0.0,0.0,0.0,0.0,0.0,0.0,0.0,0.0,0.0,0.0,0.0,0.0,0.0,0.0,0.0,0.0,0.0,0.0,0.0,0.0,0.0,0.0,0.0,0.0,0.0,0.0,0.3454,0.3353,0.3775,0.5157,0.554,0.5892,0.6632,0.6162,0.5785,0.5965,0.4953,0.3907,0.3035,0.2762,0.1782,-0.0314,-0.0445,-0.0299,-0.0095,-0.0062,0.0269,0.0984,0.1633,0.1293,-0.015,0.0424,0.0372,-0.0381,-0.0467,-0.0575,-0.0728,-0.0824,-0.1029,-0.13,-0.1406,-0.1626,-0.1872,-0.1853,-0.1963,-0.2099,-0.2141,-0.2219,-0.2237,-0.2031,-0.1932,-0.1922,-0.1937,-0.1943,-0.1906,-0.1682,-0.159,-0.1533,-0.1115,-0.0818,-0.0564,-0.0432,-0.0197,0.0,0.0,0.0,0.0,0.0,0.0,0.0,0.0,0.0,0.0,0.0,0.0,0.0,0.0,0.0,0.0,0.0,0.0,0.0,0.0,0.0,0.0,0.0,0.0,0.0,0.0,0.0,0.0,0.0,0.0,0.0,0.0,0.0,0.0,0.0,0.0,0.0,0.0,0.0,0.0,0.0,0.0,0.0,0.0,0.0,0.0,0.0,0.0,0.0,0.0,0.0,0.0,0.0,0.0,0.0,0.0,0.0,0.0,0.0,0.2566,0.2438,0.2848,0.4203,0.4512,0.4704,0.5173,0.4603,0.4195,0.4343,0.3253,0.2348,0.2041,0.1719,0.0966,-0.0468,-0.0609,-0.0665,-0.0766,-0.0793,-0.0679,-0.0465,0.03,0.0029,-0.1459,-0.0759,-0.0707,-0.1414,-0.1221,-0.121,-0.1325,-0.1181,-0.1228,-0.1432,-0.1559,-0.1709,-0.1873,-0.1906,-0.202,-0.215,-0.2213,-0.2244,-0.2305,-0.2305,-0.2305,-0.2308,-0.2289,-0.2296,-0.226,-0.2041,-0.1982,-0.1922,-0.1537,-0.1223,-0.0985,-0.0853,-0.054,-0.02,-0.0201,-0.0101,0.0,0.0,0.0,0.0,0.0,0.0,0.0,0.0,0.0,0.0,0.0,0.0,0.0,0.0,0.0,0.0,0.0,0.0,0.0,0.0,0.0,0.0,0.0,0.0,0.0,0.0,0.0,0.0,0.0,0.0,0.0,0.0,0.0,0.0,0.0,0.0,0.0,0.0,0.0,0.0,0.0,0.0,0.0,0.0,0.0,0.0,0.0,0.0,0.0,0.0,0.0,0.0,0.0,0.0,0.0,0.0,0.2214,0.2159,0.2213,0.245,0.2511,0.2486,0.2426,0.2241,0.2218,0.2519,0.1844,0.0932,-0.0038,-0.0638,-0.1386,-0.2312,-0.2402,-0.2348,-0.2225,-0.2228,-0.2196,-0.2196,-0.2084,-0.2,-0.202,-0.1877,-0.174,-0.1596,-0.1478,-0.1404,-0.1415,-0.1337,-0.1373,-0.1509,-0.1571,-0.1674,-0.1821,-0.1936,-0.209,-0.221,-0.227,-0.2309,-0.2296,-0.2296,-0.2296,-0.2296,-0.2296,-0.2296,-0.2296,-0.2296,-0.2296,-0.2256,-0.1942,-0.1826,-0.1714,-0.1339,-0.0947,-0.063,-0.0622,-0.031,-0.0034,0.0,0.0,0.0,0.0,0.0,0.0,0.0,0.0,0.0,0.0,0.0,0.0,0.0,0.0,0.0,0.0,0.0,0.0,0.0,0.0,0.0,0.0,0.0,0.0,0.0,0.0,0.0,0.0,0.0,0.0,0.0,0.0,0.0,0.0,0.0,0.0,0.0,0.0,0.0,0.0,0.0,0.0,0.0,0.0,0.0,0.0,0.0,0.0,0.0,0.0,0.0,0.0,0.0,0.0,0.0,0.0467,0.0052,-0.0187,-0.0321,0.1225,0.249,0.2475,0.156,0.0852,0.084,-0.0513,-0.1556,-0.1824,-0.2034,-0.2233,-0.2453,-0.2484,-0.245,-0.2344,-0.2334,-0.2333,-0.2294,-0.2204,-0.2138,-0.2087,-0.1941,-0.1819,-0.1682,-0.1584,-0.1533,-0.148,-0.1465,-0.1463,-0.1494,-0.1579,-0.1705,-0.1879,-0.1955,-0.2095,-0.2271,-0.2307,-0.2289,-0.2296,-0.2296,-0.2296,-0.2296,-0.2296,-0.2296,-0.2296,-0.2296,-0.2296,-0.2295,-0.2215,-0.2018,-0.1788,-0.1675,-0.1344,-0.0984,-0.0672,-0.0531,-0.0388,-0.007,0.0,0.0,0.0,0.0,0.0,0.0,0.0,0.0,0.0,0.0,0.0,0.0,0.0,0.0,0.0,0.0,0.0,0.0,0.0,0.0,0.0,0.0,0.0,0.0,0.0,0.0,0.0,0.0,0.0,0.0,0.0,0.0,0.0,0.0,0.0,0.0,0.0,0.0,0.0,0.0,0.0,0.0,0.0,0.0,0.0,0.0,0.0,0.0,0.0,0.0,0.0,0.0,0.0,0.0,-0.0624,-0.1148,-0.1478,-0.1626,-0.0503,0.0453,0.0449,-0.0231,-0.0787,-0.0909,-0.1859,-0.2495,-0.2512,-0.2564,-0.2586,-0.2555,-0.2552,-0.2527,-0.2467,-0.2487,-0.2455,-0.2353,-0.2345,-0.2286,-0.22,-0.2075,-0.1948,-0.1783,-0.168,-0.1585,-0.15,-0.1474,-0.1461,-0.1504,-0.1576,-0.1697,-0.1874,-0.2015,-0.2165,-0.2311,-0.2289,-0.2304,0.0,-0.2301,-0.2288,-0.2315,-0.2315,-0.2285,-0.2296,-0.2296,-0.2296,-0.2296,-0.2296,-0.2177,-0.202,-0.202,-0.1759,-0.1429,-0.1188,-0.0866,-0.0541,-0.0325,-0.0141,0.0,0.0,0.0,0.0,0.0,0.0,0.0,0.0,0.0,0.0,0.0,0.0,0.0,0.0,0.0,0.0,0.0,0.0,0.0,0.0,0.0,0.0,0.0,0.0,0.0,0.0,0.0,0.0,0.0,0.0,0.0,0.0,0.0,0.0,0.0,0.0,0.0,0.0,0.0,0.0,0.0,0.0,0.0,0.0,0.0,0.0,0.0,0.0,0.0,0.0,0.0,0.0,0.0,-0.1266,-0.1702,-0.1997,-0.2024,-0.2109,-0.2225,-0.2229,-0.2222,-0.228,-0.2394,-0.2503,-0.2544,-0.2544,-0.2569,-0.2601,-0.2616,-0.2613,-0.259,-0.2536,-0.2579,-0.2557,-0.2446,-0.2463,-0.2459,-0.2305,-0.2243,-0.2105,-0.1892,-0.1765,-0.1641,-0.1495,-0.1443,-0.1447,-0.1498,-0.1589,-0.1688,-0.1849,-0.2105,-0.2251,-0.2296,-0.23,-0.2357,-0.2382,-0.2318,-0.233,-0.2308,-0.2308,-0.2313,-0.2285,-0.2289,-0.2291,-0.2292,-0.2295,-0.2296,-0.2296,-0.2296,-0.2078,-0.1859,-0.1822,-0.1276,-0.0729,-0.0693,-0.0365,-0.0072,-0.007,-0.0035,0.0,0.0,0.0,0.0,0.0,0.0,0.0,0.0,0.0,0.0,0.0,0.0,0.0,0.0,0.0,0.0,0.0,0.0,0.0,0.0,0.0,0.0,0.0,0.0,0.0,0.0,0.0,0.0,0.0,0.0,0.0,0.0,0.0,0.0,0.0,0.0,0.0,0.0,0.0,0.0,0.0,0.0,0.0,0.0,0.0,0.0,0.0,0.0,0.0,0.0,-0.1419,-0.1785,-0.2086,-0.2092,-0.2192,-0.2328,-0.2447,-0.2464,-0.2463,-0.2557,-0.2603,-0.2657,-0.2657,-0.269,-0.2683,-0.2677,-0.2676,-0.2661,-0.2585,-0.2593,-0.2608,-0.2578,-0.2517,-0.2461,-0.2402,-0.2251,-0.2104,-0.1894,-0.1776,-0.163,-0.1512,-0.1478,-0.1479,-0.1516,-0.1624,-0.1801,-0.1965,-0.2139,-0.2251,-0.2299,-0.236,-0.2388,-0.2416,-0.2371,-0.2367,-0.2401,-0.2401,-0.2303,-0.2229,-0.229,-0.2298,-0.2303,-0.2289,-0.2296,-0.2296,-0.2296,-0.226,-0.215,-0.1859,-0.1713,-0.1494,-0.1168,-0.0803,-0.051,-0.0506,-0.0253,0.0,0.0,0.0,0.0,0.0,0.0,0.0,0.0,0.0,0.0,0.0,0.0,0.0,0.0,0.0,0.0,0.0,0.0,0.0,0.0,0.0,0.0,0.0,0.0,0.0,0.0,0.0,0.0,0.0,0.0,0.0,0.0,0.0,0.0,0.0,0.0,0.0,0.0,0.0,0.0,0.0,0.0,0.0,0.0,0.0,0.0,0.0,0.0,0.0,0.0,-0.1828,-0.2063,-0.223,-0.2248,-0.2361,-0.2476,-0.2549,-0.2615,-0.2647,-0.2587,-0.2622,-0.2649,-0.2649,-0.272,-0.274,-0.274,-0.274,-0.2727,-0.2654,-0.2652,-0.2626,-0.2608,-0.255,-0.2533,-0.2466,-0.2323,-0.2154,-0.1991,-0.184,-0.169,-0.1599,-0.1527,-0.1504,-0.1512,-0.168,-0.1862,-0.205,-0.2172,-0.2275,-0.2358,-0.239,-0.242,-0.2446,-0.2429,-0.2414,-0.2401,-0.2401,-0.2353,-0.2257,-0.2272,-0.2312,-0.2312,-0.2311,-0.2311,-0.2313,-0.2292,-0.2296,-0.226,-0.2114,-0.1932,-0.175,-0.1568,-0.1204,-0.0839,-0.0657,-0.0438,-0.0254,-0.0035,0.0,0.0,0.0,0.0,0.0,0.0,0.0,0.0,0.0,0.0,0.0,0.0,0.0,0.0,0.0,0.0,0.0,0.0,0.0,0.0,0.0,0.0,0.0,0.0,0.0,0.0,0.0,0.0,0.0,0.0,0.0,0.0,0.0,0.0,0.0,0.0,0.0,0.0,0.0,0.0,0.0,0.0,0.0,0.0,0.0,0.0,0.0,0.0,-0.2241,-0.2289,-0.2342,-0.2395,-0.2523,-0.2604,-0.2607,-0.2717,-0.2758,-0.2657,-0.2644,-0.2644,-0.2644,-0.2744,-0.2784,-0.2784,-0.2784,-0.2773,-0.2705,-0.2699,-0.2675,-0.2626,-0.2613,-0.2559,-0.2538,-0.2408,-0.2285,-0.2128,-0.193,-0.1805,-0.1696,-0.1591,-0.1545,-0.1575,-0.1758,-0.1952,-0.2132,-0.2208,-0.2309,-0.2437,-0.2424,-0.2451,-0.2476,-0.2451,-0.2428,-0.2408,-0.2408,-0.2391,-0.2332,-0.232,-0.2311,-0.2303,-0.2324,-0.2315,-0.2312,-0.2292,-0.2296,-0.2295,-0.2289,-0.211,-0.1895,-0.1895,-0.1605,-0.124,-0.0912,-0.0803,-0.0616,-0.0212,-0.007,0.0,0.0,0.0,0.0,0.0,0.0,0.0,0.0,0.0,0.0,0.0,0.0,0.0,0.0,0.0,0.0,0.0,0.0,0.0,0.0,0.0,0.0,0.0,0.0,0.0,0.0,0.0,0.0,0.0,0.0,0.0,0.0,0.0,0.0,0.0,0.0,0.0,0.0,0.0,0.0,0.0,0.0,0.0,0.0,0.0,0.0,0.0,-0.2363,-0.2433,-0.2467,-0.25,-0.2602,-0.2682,-0.2687,-0.2792,-0.2856,-0.2773,-0.2767,-0.2767,-0.2767,-0.2795,-0.2784,-0.2784,-0.2784,-0.2782,-0.278,-0.2754,-0.2692,-0.2687,-0.2634,-0.2587,-0.259,-0.2502,-0.2369,-0.2192,-0.2035,-0.187,-0.17,-0.1692,-0.1707,-0.1787,-0.1918,-0.2048,-0.2192,-0.2259,-0.2354,-0.2499,-0.2502,-0.2482,-0.251,-0.2507,-0.2504,-0.2502,-0.2502,-0.25,-0.2489,-0.2395,-0.2397,-0.2378,-0.2403,-0.2393,-0.2365,-0.2303,-0.2296,-0.2291,-0.2301,-0.2277,-0.226,-0.226,-0.2005,-0.175,-0.1713,-0.1422,-0.1014,-0.0635,-0.0241,0.0,0.0,0.0,0.0,0.0,0.0,0.0,0.0,0.0,0.0,0.0,0.0,0.0,0.0,0.0,0.0,0.0,0.0,0.0,0.0,0.0,0.0,0.0,0.0,0.0,0.0,0.0,0.0,0.0,0.0,0.0,0.0,0.0,0.0,0.0,0.0,0.0,0.0,0.0,0.0,0.0,0.0,0.0,0.0,0.0,0.0,0.0,-0.2582,-0.2566,-0.2575,-0.2661,-0.2686,-0.2717,-0.2791,-0.2887,-0.287,-0.2857,-0.2856,-0.2856,-0.2856,-0.2845,-0.2883,-0.2883,-0.2883,-0.283,-0.2811,-0.2755,-0.274,-0.2766,-0.2681,-0.2645,-0.2657,-0.2608,-0.2491,-0.2307,-0.219,-0.2041,-0.1866,-0.1847,-0.189,-0.1978,-0.2082,-0.2157,-0.2248,-0.2345,-0.2409,-0.2509,-0.2489,-0.2503,-0.2514,-0.2514,-0.2514,-0.2514,-0.2514,-0.2514,-0.251,-0.2487,-0.2446,-0.2405,-0.2398,-0.2388,-0.2379,-0.2386,-0.2375,-0.2357,-0.2346,-0.2338,-0.2296,-0.2296,-0.2187,-0.2041,-0.1859,-0.1677,-0.1448,-0.0987,-0.0583,-0.0302,-0.0299,-0.0132,0.0,0.0,0.0,0.0,0.0,0.0,0.0,0.0,0.0,0.0,0.0,0.0,0.0,0.0,0.0,0.0,0.0,0.0,0.0,0.0,0.0,0.0,0.0,0.0,0.0,0.0,0.0,0.0,0.0,0.0,0.0,0.0,0.0,0.0,0.0,0.0,0.0,0.0,0.0,0.0,0.0,0.0,0.0,0.0,-0.2716,-0.2684,-0.2688,-0.2792,-0.2774,-0.2774,-0.2905,-0.2919,-0.2919,-0.2919,-0.2919,-0.2919,-0.2919,-0.2919,-0.2919,-0.2919,-0.2919,-0.2866,-0.2844,-0.2789,-0.2819,-0.2797,-0.2767,-0.2736,-0.2706,-0.2635,-0.2584,-0.247,-0.2326,-0.2203,-0.21,-0.2007,-0.2064,-0.2167,-0.2218,-0.2268,-0.2376,-0.239,-0.2473,-0.251,-0.2532,-0.254,-0.254,-0.254,-0.254,-0.2538,-0.253,-0.2522,-0.2512,-0.2504,-0.2466,-0.2385,-0.242,-0.2412,-0.2408,-0.242,-0.2408,-0.239,-0.2417,-0.2363,-0.2346,-0.2346,-0.2303,-0.2223,-0.2005,-0.1932,-0.1809,-0.1375,-0.0961,-0.0673,-0.0673,-0.0398,-0.0131,-0.0132,-0.0066,0.0,0.0,0.0,0.0,0.0,0.0,0.0,0.0,0.0,0.0,0.0,0.0,0.0,0.0,0.0,0.0,0.0,0.0,0.0,0.0,0.0,0.0,0.0,0.0,0.0,0.0,0.0,0.0,0.0,0.0,0.0,0.0,0.0,0.0,0.0,0.0,0.0,0.0,0.0,0.0,0.0,-0.277,-0.2781,-0.28,-0.2906,-0.2917,-0.2917,-0.2919,-0.2919,-0.2919,-0.2919,-0.2919,-0.2919,-0.2919,-0.2919,-0.2919,-0.2919,-0.2919,-0.2919,-0.2919,-0.2845,-0.2785,-0.2783,-0.2799,-0.2769,-0.2695,-0.2706,-0.2647,-0.2597,-0.2473,-0.2345,-0.2286,-0.2225,-0.2229,-0.2289,-0.2281,-0.2382,-0.2507,-0.25,-0.2547,-0.26,-0.2601,-0.2601,-0.2601,-0.2601,-0.2601,-0.2597,-0.261,-0.254,-0.251,-0.2518,-0.2448,-0.2395,-0.2493,-0.2492,-0.25,-0.2432,-0.2385,-0.2417,-0.2386,-0.2415,-0.2415,-0.2415,-0.2356,-0.2296,-0.2296,-0.2296,-0.2171,-0.1764,-0.1373,-0.1077,-0.1077,-0.0774,-0.0498,-0.0509,-0.0229,0.0,0.0,0.0,0.0,0.0,0.0,0.0,0.0,0.0,0.0,0.0,0.0,0.0,0.0,0.0,0.0,0.0,0.0,0.0,0.0,0.0,0.0,0.0,0.0,0.0,0.0,0.0,0.0,0.0,0.0,0.0,0.0,0.0,0.0,0.0,0.0,0.0,0.0,0.0,0.0,0.0,-0.2885,-0.289,-0.2896,-0.2916,-0.2919,-0.2919,-0.2919,-0.2919,-0.2919,-0.2919,-0.2919,-0.2919,-0.2919,-0.2919,-0.2919,-0.2919,-0.2919,-0.2919,-0.2919,-0.2866,-0.286,-0.286,-0.283,-0.281,-0.2756,-0.277,-0.271,-0.2619,-0.256,-0.248,-0.2382,-0.2383,-0.2405,-0.2444,-0.2474,-0.2514,-0.256,-0.257,-0.2585,-0.2601,-0.2601,-0.2601,-0.2601,-0.2601,-0.2601,-0.2601,-0.2592,-0.2582,-0.2572,-0.2563,-0.254,-0.2517,-0.2515,-0.2493,-0.251,-0.2482,-0.247,-0.2453,-0.2481,-0.2425,-0.2403,-0.2383,-0.2371,-0.2358,-0.2301,-0.2318,-0.2257,-0.2077,-0.1763,-0.1498,-0.145,-0.1144,-0.0905,-0.0893,-0.0601,-0.0332,-0.035,-0.0157,0.0,0.0,0.0,0.0,0.0,0.0,0.0,0.0,0.0,0.0,0.0,0.0,0.0,0.0,0.0,0.0,0.0,0.0,0.0,0.0,0.0,0.0,0.0,0.0,0.0,0.0,0.0,0.0,0.0,0.0,0.0,0.0,0.0,0.0,0.0,0.0,0.0,0.0,-0.2919,-0.2919,-0.2919,-0.2919,-0.2919,-0.2919,-0.2919,-0.2919,-0.2919,-0.2919,-0.2919,-0.2919,-0.2919,-0.2919,-0.2919,-0.2919,-0.2919,-0.2919,-0.2919,-0.2919,-0.2919,-0.2919,-0.2856,-0.2841,-0.2785,-0.281,-0.2767,-0.2656,-0.2656,-0.2592,-0.2468,-0.2515,-0.2529,-0.2548,-0.2567,-0.2592,-0.2619,-0.2619,-0.2626,-0.2635,-0.2635,-0.2635,-0.2635,-0.2635,-0.2635,-0.2634,-0.2623,-0.2612,-0.26,-0.2589,-0.2567,-0.2541,-0.2534,-0.2557,-0.2539,-0.2485,-0.2474,-0.2507,-0.2507,-0.2455,-0.2436,-0.2455,-0.2403,-0.2387,-0.2357,-0.2319,-0.2286,-0.223,-0.2055,-0.1885,-0.1835,-0.152,-0.1279,-0.1279,-0.0976,-0.07,-0.068,-0.0414,-0.0188,-0.0183,-0.009,0.0,0.0,0.0,0.0,0.0,0.0,0.0,0.0,0.0,0.0,0.0,0.0,0.0,0.0,0.0,0.0,0.0,0.0,0.0,0.0,0.0,0.0,0.0,0.0,0.0,0.0,0.0,0.0,0.0,0.0,0.0,0.0,0.0,0.0,0.0,-0.2919,-0.2919,-0.2919,-0.2919,-0.2919,-0.2919,-0.2919,-0.2919,-0.2919,-0.2919,-0.2919,-0.2919,-0.2919,-0.2919,-0.2919,-0.2919,-0.2919,-0.2919,-0.2919,-0.2919,-0.2919,-0.2919,-0.2919,-0.286,-0.2789,-0.2787,-0.2816,-0.2787,-0.2728,-0.2684,-0.2614,-0.2627,-0.2615,-0.2615,-0.2612,-0.2627,-0.2611,-0.261,-0.2625,-0.2692,-0.2692,-0.2692,-0.2692,-0.2692,-0.2692,-0.2688,-0.2618,-0.2591,-0.2604,-0.2618,-0.2548,-0.2527,-0.2595,-0.2602,-0.2582,-0.2458,-0.2451,-0.251,-0.251,-0.2509,-0.2507,-0.2507,-0.2446,-0.2416,-0.2386,-0.2335,-0.2296,-0.2292,-0.2245,-0.2204,-0.22,-0.1905,-0.1651,-0.1649,-0.1346,-0.1098,-0.1036,-0.0734,-0.0535,-0.0527,-0.0275,-0.0061,-0.0031,-0.0063,-0.0064,0.0,-0.0033,-0.0034,0.0,0.0,0.0,0.0,0.0,0.0,0.0,0.0,0.0,0.0,0.0,0.0,0.0,0.0,0.0,0.0,0.0,0.0,0.0,0.0,0.0,0.0,0.0,0.0,0.0,0.0,0.0,0.0,-0.2919,-0.2919,-0.2919,-0.2919,-0.2919,-0.2919,-0.2919,-0.2919,-0.2919,-0.2919,-0.2919,-0.2919,-0.2919,-0.2919,-0.2919,-0.2919,-0.2919,-0.2919,-0.2919,-0.2919,-0.2919,-0.2919,-0.2919,-0.2916,-0.2863,-0.2863,-0.2848,-0.2818,-0.278,-0.2758,-0.2751,-0.2744,-0.274,-0.2739,-0.2716,-0.2666,-0.2672,-0.2691,-0.2686,-0.2692,-0.2692,-0.2692,-0.2692,-0.2692,-0.2692,-0.2691,-0.2684,-0.2677,-0.2671,-0.2662,-0.2641,-0.2573,-0.2597,-0.2617,-0.2596,-0.2574,-0.2517,-0.2503,-0.2503,-0.2487,-0.2507,-0.2507,-0.2446,-0.2416,-0.2386,-0.2405,-0.2345,-0.23,-0.2279,-0.2255,-0.2208,-0.2125,-0.2045,-0.2057,-0.1735,-0.1481,-0.1454,-0.1125,-0.0894,-0.0881,-0.0854,-0.0732,-0.0415,-0.0647,-0.0618,-0.0032,-0.023,-0.0266,0.0,0.0,0.0,0.0,0.0,0.0,0.0,0.0,0.0,0.0,0.0,0.0,0.0,0.0,0.0,0.0,0.0,0.0,0.0,0.0,0.0,0.0,0.0,0.0,0.0,0.0,0.0,0.0,-0.2919,-0.2919,-0.2919,-0.2919,-0.2919,-0.2919,-0.2919,-0.2919,-0.2919,-0.2919,-0.2919,-0.2919,-0.2919,-0.2919,-0.2919,-0.2919,-0.2919,-0.2919,-0.2919,-0.2919,-0.2919,-0.2919,-0.2919,-0.2919,-0.2919,-0.2919,-0.2866,-0.2849,-0.2819,-0.2804,-0.2804,-0.2789,-0.2784,-0.2782,-0.2766,-0.2758,-0.2758,-0.2742,-0.2733,-0.2733,-0.2733,-0.2725,-0.2713,-0.2713,-0.2705,-0.2692,-0.2692,-0.2692,-0.2692,-0.2692,-0.2682,-0.2665,-0.2649,-0.2632,-0.2658,-0.2604,-0.257,-0.2532,-0.2518,-0.2502,-0.2487,-0.2512,-0.2457,-0.244,-0.2462,-0.2435,-0.2406,-0.2337,-0.2309,-0.2281,-0.2248,-0.2219,-0.2189,-0.2193,-0.2007,-0.185,-0.1843,-0.1524,-0.1266,-0.1289,-0.1174,-0.1022,-0.0797,-0.1009,-0.0913,-0.0302,-0.0442,-0.0378,-0.0035,0.0,0.0,0.0,0.0,0.0,0.0,0.0,0.0,0.0,0.0,0.0,0.0,0.0,0.0,0.0,0.0,0.0,0.0,0.0,0.0,0.0,0.0,0.0,0.0,0.0,0.0,0.0,-0.2919,-0.2919,-0.2919,-0.2919,-0.2919,-0.2919,-0.2919,-0.2919,-0.2919,-0.2919,-0.2919,-0.2919,-0.2919,-0.2919,-0.2919,-0.2919,-0.2919,-0.2919,-0.2919,-0.2919,-0.2919,-0.2919,-0.2919,-0.2919,-0.2919,-0.2919,-0.2919,-0.2919,-0.2848,-0.2836,-0.2834,-0.281,-0.2797,-0.2797,-0.2792,-0.2791,-0.2789,-0.2785,-0.2784,-0.2784,-0.2784,-0.2767,-0.2701,-0.2701,-0.2729,-0.2706,-0.2701,-0.2699,-0.2699,-0.2694,-0.2692,-0.2692,-0.2692,-0.2692,-0.2687,-0.262,-0.2619,-0.2613,-0.2537,-0.2521,-0.2508,-0.2482,-0.2512,-0.2507,-0.2507,-0.2467,-0.2429,-0.2386,-0.2342,-0.2303,-0.2298,-0.2248,-0.2195,-0.2195,-0.2185,-0.2161,-0.2105,-0.1861,-0.1682,-0.1685,-0.144,-0.1256,-0.1205,-0.1289,-0.1159,-0.0739,-0.0747,-0.0609,-0.0216,-0.0184,-0.0148,-0.011,-0.0037,0.0,0.0,0.0,0.0,0.0,0.0,0.0,0.0,0.0,0.0,0.0,0.0,0.0,0.0,0.0,0.0,0.0,0.0,0.0,0.0,0.0,0.0,0.0,-0.2919,-0.2919,-0.2919,-0.2919,-0.2919,-0.2919,-0.2919,-0.2919,-0.2919,-0.2919,-0.2919,-0.2919,-0.2919,-0.2919,-0.2919,-0.2919,-0.2919,-0.2919,-0.2919,-0.2919,-0.2919,-0.2919,-0.2919,-0.2919,-0.2919,-0.2919,-0.2919,-0.2919,-0.287,-0.2867,-0.2867,-0.2861,-0.2905,-0.2903,-0.2833,-0.2822,-0.2819,-0.2795,-0.2784,-0.2784,-0.2784,-0.2781,-0.2776,-0.2776,-0.2773,-0.2766,-0.274,-0.2688,-0.2684,-0.2701,-0.2692,-0.2692,-0.2692,-0.2692,-0.2691,-0.2687,-0.2679,-0.266,-0.2604,-0.2552,-0.2514,-0.2508,-0.2488,-0.2507,-0.2507,-0.25,-0.2485,-0.2421,-0.2388,-0.2357,-0.2295,-0.2242,-0.2185,-0.2197,-0.2167,-0.2104,-0.21,-0.2057,-0.2052,-0.2111,-0.2073,-0.1929,-0.1641,-0.1857,-0.1798,-0.1141,-0.1358,-0.1373,-0.1033,-0.1001,-0.0862,-0.0535,-0.0192,0.0,0.0,0.0,0.0,0.0,0.0,0.0,0.0,0.0,0.0,0.0,0.0,0.0,0.0,0.0,0.0,0.0,0.0,0.0,0.0,0.0,0.0,0.0,-0.2919,-0.2919,-0.2919,-0.2919,-0.2919,-0.2919,-0.2919,-0.2919,-0.2919,-0.2919,-0.2919,-0.2919,-0.2919,-0.2919,-0.2919,-0.2919,-0.2919,-0.2919,-0.2919,-0.2919,-0.2919,-0.2919,-0.2919,-0.2919,-0.2919,-0.2919,-0.2919,-0.2919,-0.2919,-0.2919,-0.2919,-0.2919,-0.2919,-0.2919,-0.2859,-0.2853,-0.2852,-0.2838,-0.2831,-0.2831,-0.2831,-0.2822,-0.2807,-0.2807,-0.2797,-0.2781,-0.2767,-0.2762,-0.2761,-0.2746,-0.2731,-0.2717,-0.2717,-0.2706,-0.2692,-0.2692,-0.2682,-0.2658,-0.2613,-0.2582,-0.2549,-0.2502,-0.2543,-0.2549,-0.2514,-0.2507,-0.2503,-0.2451,-0.2424,-0.2393,-0.2363,-0.2285,-0.2242,-0.2269,-0.2189,-0.2153,-0.2139,-0.215,-0.2163,-0.2211,-0.2221,-0.2184,-0.2056,-0.2176,-0.2053,-0.1569,-0.168,-0.162,-0.1275,-0.1246,-0.1067,-0.0617,-0.0195,0.0,0.0,0.0,0.0,0.0,0.0,0.0,0.0,0.0,0.0,0.0,0.0,0.0,0.0,0.0,0.0,0.0,0.0,0.0,0.0,0.0,0.0,0.0,-0.2919,-0.2919,-0.2919,-0.2919,-0.2919,-0.2919,-0.2919,-0.2919,-0.2919,-0.2919,-0.2919,-0.2919,-0.2919,-0.2919,-0.2919,-0.2919,-0.2919,-0.2919,-0.2919,-0.2919,-0.2919,-0.2919,-0.2919,-0.2919,-0.2919,-0.2919,-0.2919,-0.2919,-0.2919,-0.2919,-0.2919,-0.2919,-0.2919,-0.2919,-0.2919,-0.2919,-0.2919,-0.2919,-0.2919,-0.2919,-0.2919,-0.286,-0.284,-0.284,-0.2825,-0.2803,-0.2796,-0.2793,-0.2792,-0.2785,-0.2767,-0.2705,-0.2705,-0.2728,-0.2703,-0.2703,-0.2682,-0.2609,-0.262,-0.2607,-0.2585,-0.2517,-0.257,-0.2585,-0.2531,-0.2524,-0.2525,-0.251,-0.245,-0.2427,-0.2441,-0.2369,-0.2331,-0.2296,-0.2252,-0.2217,-0.2202,-0.2213,-0.2223,-0.223,-0.2278,-0.2313,-0.232,-0.2341,-0.2216,-0.1976,-0.1941,-0.1838,-0.1596,-0.1573,-0.1315,-0.0778,-0.0277,0.0,0.0,0.0,0.0,0.0,0.0,0.0,0.0,0.0,0.0,0.0,0.0,0.0,0.0,0.0,0.0,0.0,0.0,0.0,0.0,0.0,0.0,0.0,-0.2919,-0.2919,-0.2919,-0.2919,-0.2919,-0.2919,-0.2919,-0.2919,-0.2919,-0.2919,-0.2919,-0.2919,-0.2919,-0.2919,-0.2919,-0.2919,-0.2919,-0.2919,-0.2919,-0.2919,-0.2919,-0.2919,-0.2919,-0.2919,-0.2919,-0.2919,-0.2919,-0.2919,-0.2919,-0.2919,-0.2919,-0.2919,-0.2919,-0.2919,-0.2919,-0.2919,-0.2919,-0.2919,-0.2919,-0.2919,-0.2919,-0.2917,-0.2916,-0.2916,-0.2914,-0.2863,-0.2836,-0.2781,-0.2821,-0.2792,-0.2782,-0.278,-0.278,-0.2759,-0.2692,-0.2692,-0.2713,-0.2683,-0.261,-0.2582,-0.26,-0.2593,-0.2615,-0.259,-0.2518,-0.2533,-0.2577,-0.252,-0.2506,-0.2503,-0.25,-0.2452,-0.2357,-0.23,-0.2288,-0.2264,-0.2208,-0.2248,-0.2293,-0.2284,-0.2352,-0.2383,-0.241,-0.2378,-0.2381,-0.2344,-0.2344,-0.2357,-0.2425,-0.2429,-0.2066,-0.1276,-0.0439,0.0,0.0,0.0,0.0,0.0,0.0,0.0,0.0,0.0,0.0,0.0,0.0,0.0,0.0,0.0,0.0,0.0,0.0,0.0,0.0,0.0,0.0,0.0,-0.2919,-0.2919,-0.2919,-0.2919,-0.2919,-0.2919,-0.2919,-0.2919,-0.2919,-0.2919,-0.2919,-0.2919,-0.2919,-0.2919,-0.2919,-0.2919,-0.2919,-0.2919,-0.2919,-0.2919,-0.2919,-0.2919,-0.2919,-0.2919,-0.2919,-0.2919,-0.2919,-0.2919,-0.2919,-0.2919,-0.2919,-0.2919,-0.2919,-0.2919,-0.2919,-0.2919,-0.2919,-0.2919,-0.2919,-0.2919,-0.2919,-0.2919,-0.2919,-0.2919,-0.2919,-0.2917,-0.2861,-0.2857,-0.2855,-0.2844,-0.2827,-0.2811,-0.2811,-0.2791,-0.2762,-0.27,-0.2687,-0.2714,-0.2683,-0.2667,-0.2649,-0.2611,-0.2608,-0.2601,-0.2553,-0.2564,-0.2568,-0.251,-0.2552,-0.2548,-0.2451,-0.2438,-0.2464,-0.2442,-0.2406,-0.2343,-0.2339,-0.2342,-0.2349,-0.236,-0.2388,-0.241,-0.2385,-0.2386,-0.2431,-0.245,-0.2451,-0.2465,-0.2495,-0.2279,-0.1874,-0.1307,-0.0736,-0.0287,0.0,0.0,0.0,0.0,0.0,0.0,0.0,0.0,0.0,0.0,0.0,0.0,0.0,0.0,0.0,0.0,0.0,0.0,0.0,0.0,0.0,0.0,-0.2919,-0.2919,-0.2919,-0.2919,-0.2919,-0.2919,-0.2919,-0.2919,-0.2919,-0.2919,-0.2919,-0.2919,-0.2919,-0.2919,-0.2919,-0.2919,-0.2919,-0.2919,-0.2919,-0.2919,-0.2919,-0.2919,-0.2919,-0.2919,-0.2919,-0.2919,-0.2919,-0.2919,-0.2919,-0.2919,-0.2919,-0.2919,-0.2919,-0.2919,-0.2919,-0.2919,-0.2919,-0.2919,-0.2919,-0.2919,-0.2919,-0.2919,-0.2919,-0.2919,-0.2919,-0.2919,-0.2919,-0.2919,-0.2919,-0.2919,-0.286,-0.2842,-0.2842,-0.2822,-0.2792,-0.2761,-0.2752,-0.2747,-0.2727,-0.2714,-0.2694,-0.2643,-0.2646,-0.2646,-0.2586,-0.2596,-0.26,-0.2541,-0.2552,-0.259,-0.248,-0.2484,-0.253,-0.251,-0.2471,-0.241,-0.2421,-0.2414,-0.2444,-0.2444,-0.2433,-0.2414,-0.2414,-0.2414,-0.2461,-0.2481,-0.2531,-0.2472,-0.2303,-0.2088,-0.1669,-0.1117,-0.0831,-0.0458,0.0,0.0,0.0,0.0,0.0,0.0,0.0,0.0,0.0,0.0,0.0,0.0,0.0,0.0,0.0,0.0,0.0,0.0,0.0,0.0,0.0,0.0,-0.2919,-0.2919,-0.2919,-0.2919,-0.2919,-0.2919,-0.292,-0.292,-0.292,-0.2919,-0.2919,-0.2919,-0.2919,-0.2919,-0.2919,-0.2919,-0.2919,-0.2919,-0.2919,-0.2919,-0.2919,-0.2919,-0.2919,-0.2919,-0.2919,-0.2919,-0.2919,-0.2919,-0.2919,-0.2919,-0.2919,-0.2919,-0.2919,-0.2919,-0.2919,-0.2919,-0.2919,-0.2919,-0.2919,-0.2919,-0.2919,-0.2919,-0.2919,-0.2919,-0.2919,-0.2919,-0.2919,-0.2919,-0.2919,-0.2919,-0.2919,-0.2919,-0.2919,-0.2853,-0.2823,-0.2792,-0.2784,-0.2784,-0.2784,-0.2761,-0.2688,-0.2701,-0.2692,-0.2676,-0.2616,-0.2585,-0.259,-0.2613,-0.2582,-0.2593,-0.2604,-0.26,-0.2579,-0.2518,-0.2509,-0.2459,-0.2429,-0.2451,-0.2509,-0.2509,-0.2496,-0.2515,-0.2515,-0.2515,-0.2515,-0.2515,-0.2542,-0.2372,-0.1911,-0.1973,-0.1572,-0.0621,-0.067,-0.0463,0.0,0.0,0.0,0.0,0.0,0.0,0.0,0.0,0.0,0.0,0.0,0.0,0.0,0.0,0.0,0.0,0.0,0.0,0.0,0.0,0.0,0.0,-0.2919,-0.2919,-0.2881,-0.29,-0.2904,-0.2911,-0.2978,-0.2981,-0.2973,-0.2906,-0.2904,-0.2896,-0.2921,-0.2919,-0.2919,-0.2919,-0.2919,-0.2919,-0.2919,-0.2919,-0.2919,-0.2919,-0.2919,-0.2919,-0.2919,-0.2919,-0.2919,-0.2919,-0.2919,-0.2919,-0.2919,-0.2919,-0.2919,-0.2919,-0.2919,-0.2919,-0.2919,-0.2919,-0.2919,-0.2919,-0.2919,-0.2919,-0.2919,-0.2919,-0.2919,-0.2919,-0.2919,-0.2919,-0.2919,-0.2919,-0.2919,-0.2919,-0.2919,-0.2868,-0.2855,-0.2825,-0.2815,-0.2811,-0.2789,-0.2777,-0.2762,-0.2732,-0.2707,-0.2687,-0.2669,-0.2672,-0.2661,-0.2601,-0.2613,-0.2619,-0.2608,-0.2615,-0.2583,-0.2564,-0.2562,-0.2559,-0.2549,-0.2556,-0.2562,-0.2562,-0.257,-0.2575,-0.2575,-0.2575,-0.2575,-0.2575,-0.2302,-0.2075,-0.1975,-0.1694,-0.1246,-0.067,-0.0673,-0.0465,0.0,0.0,0.0,0.0,0.0,0.0,0.0,0.0,0.0,0.0,0.0,0.0,0.0,0.0,0.0,0.0,0.0,0.0,0.0,0.0,0.0,0.0,-0.2919,-0.2883,-0.2896,-0.2913,-0.2926,-0.2941,-0.3004,-0.3007,-0.3,-0.2936,-0.2923,-0.2909,-0.2893,-0.2881,-0.2919,-0.2919,-0.2919,-0.2919,-0.2919,-0.2919,-0.2919,-0.2919,-0.2919,-0.2919,-0.2919,-0.2919,-0.2919,-0.2919,-0.2919,-0.2919,-0.2919,-0.2919,-0.2919,-0.2919,-0.2919,-0.2919,-0.2919,-0.2919,-0.2919,-0.2919,-0.2919,-0.2919,-0.2919,-0.2919,-0.2919,-0.2919,-0.2919,-0.2919,-0.2919,-0.2919,-0.2919,-0.2919,-0.2919,-0.2919,-0.2871,-0.2852,-0.2846,-0.2842,-0.2825,-0.2811,-0.2797,-0.2735,-0.2699,-0.271,-0.271,-0.2701,-0.2682,-0.2645,-0.2652,-0.265,-0.2602,-0.2608,-0.2616,-0.2604,-0.2601,-0.2601,-0.2601,-0.2601,-0.2601,-0.2601,-0.2601,-0.2601,-0.2601,-0.2601,-0.2607,-0.2619,-0.217,-0.1893,-0.1747,-0.1292,-0.088,-0.0424,-0.0424,-0.0298,0.0,0.0,0.0,0.0,0.0,0.0,0.0,0.0,0.0,0.0,0.0,0.0,0.0,0.0,0.0,0.0,0.0,0.0,0.0,0.0,0.0,0.0,-0.2921,-0.2898,-0.2917,-0.2923,-0.2947,-0.3013,-0.3016,-0.3016,-0.3014,-0.3013,-0.2939,-0.2919,-0.2916,-0.289,-0.2919,-0.2919,-0.2919,-0.2919,-0.2919,-0.2919,-0.2919,-0.2919,-0.2919,-0.2919,-0.2919,-0.2919,-0.2919,-0.2919,-0.2919,-0.2919,-0.2919,-0.2919,-0.2919,-0.2919,-0.2919,-0.2919,-0.2919,-0.2919,-0.2919,-0.2919,-0.2919,-0.2919,-0.2919,-0.2919,-0.2919,-0.2919,-0.2919,-0.2919,-0.2919,-0.2919,-0.2919,-0.2919,-0.2919,-0.2919,-0.2919,-0.2919,-0.2919,-0.2919,-0.2919,-0.2853,-0.2789,-0.2789,-0.2746,-0.2703,-0.27,-0.272,-0.2699,-0.2697,-0.2697,-0.2687,-0.2615,-0.261,-0.2601,-0.2615,-0.2609,-0.2609,-0.2609,-0.2609,-0.2609,-0.2609,-0.2609,-0.2609,-0.2609,-0.2609,-0.2622,-0.2607,-0.2239,-0.1792,-0.1305,-0.0928,-0.0467,0.0,0.0,0.0,0.0,0.0,0.0,0.0,0.0,0.0,0.0,0.0,0.0,0.0,0.0,0.0,0.0,0.0,0.0,0.0,0.0,0.0,0.0,0.0,0.0,0.0,-0.2902,-0.2912,-0.2931,-0.2979,-0.2992,-0.3005,-0.3076,-0.3081,-0.3071,-0.3001,-0.2971,-0.2942,-0.2919,-0.289,-0.2919,-0.2919,-0.2919,-0.2919,-0.2919,-0.2919,-0.2919,-0.2919,-0.2919,-0.2919,-0.2919,-0.2919,-0.2919,-0.2919,-0.2919,-0.2919,-0.2919,-0.2919,-0.2919,-0.2919,-0.2919,-0.2919,-0.2919,-0.2919,-0.2919,-0.2919,-0.2919,-0.2919,-0.2919,-0.2919,-0.2919,-0.2919,-0.2919,-0.2919,-0.2919,-0.2919,-0.2919,-0.2919,-0.2919,-0.2919,-0.2919,-0.2919,-0.2919,-0.2919,-0.2919,-0.287,-0.2864,-0.2864,-0.2836,-0.2759,-0.2778,-0.2769,-0.2757,-0.2691,-0.2685,-0.2676,-0.2688,-0.2683,-0.268,-0.2673,-0.2673,-0.2673,-0.2673,-0.2673,-0.2673,-0.2673,-0.2673,-0.2673,-0.2673,-0.2673,-0.2675,-0.2682,-0.2324,-0.187,-0.1321,-0.0902,-0.0476,0.0,0.0,0.0,0.0,0.0,0.0,0.0,0.0,0.0,0.0,0.0,0.0,0.0,0.0,0.0,0.0,0.0,0.0,0.0,0.0,0.0,0.0,0.0,0.0,0.0,-0.2935,-0.2949,-0.2969,-0.3001,-0.3018,-0.3081,-0.3097,-0.31,-0.3094,-0.3031,-0.3036,-0.3002,-0.2939,-0.29,-0.2919,-0.2919,-0.2919,-0.2919,-0.2919,-0.2919,-0.2919,-0.2919,-0.2919,-0.2919,-0.2919,-0.2919,-0.2919,-0.2919,-0.2919,-0.2919,-0.2919,-0.2919,-0.2919,-0.2919,-0.2919,-0.2919,-0.2919,-0.2919,-0.2919,-0.2919,-0.2919,-0.2919,-0.2919,-0.2919,-0.2919,-0.2919,-0.2919,-0.2919,-0.2919,-0.2919,-0.2919,-0.2919,-0.2919,-0.2919,-0.2919,-0.2919,-0.2919,-0.2919,-0.2919,-0.2919,-0.2919,-0.2919,-0.2861,-0.2842,-0.2812,-0.2793,-0.2778,-0.2762,-0.2759,-0.2755,-0.2739,-0.2736,-0.2736,-0.2736,-0.2724,-0.2714,-0.2714,-0.2702,-0.2692,-0.2692,-0.2692,-0.2698,-0.2713,-0.2714,-0.272,-0.2735,-0.2363,-0.1896,-0.1379,-0.0953,-0.0479,0.0,0.0,0.0,0.0,0.0,0.0,0.0,0.0,0.0,0.0,0.0,0.0,0.0,0.0,0.0,0.0,0.0,0.0,0.0,0.0,0.0,0.0,0.0,0.0,0.0,-0.3013,-0.299,-0.3009,-0.3014,-0.3083,-0.31,-0.31,-0.31,-0.31,-0.31,-0.305,-0.3016,-0.3016,-0.2962,-0.2879,-0.2919,-0.2919,-0.2919,-0.2919,-0.2919,-0.2919,-0.2919,-0.2919,-0.2919,-0.2919,-0.2919,-0.2919,-0.2919,-0.2919,-0.2919,-0.2919,-0.2919,-0.2919,-0.2919,-0.2919,-0.2919,-0.2919,-0.2919,-0.2919,-0.2919,-0.2919,-0.2919,-0.2919,-0.2919,-0.2919,-0.2919,-0.2919,-0.2919,-0.2919,-0.2919,-0.2919,-0.2919,-0.2919,-0.2919,-0.2919,-0.2919,-0.2919,-0.2919,-0.2919,-0.2919,-0.2919,-0.2919,-0.2919,-0.2867,-0.2842,-0.2816,-0.2797,-0.2792,-0.2791,-0.2789,-0.2784,-0.2784,-0.2784,-0.2784,-0.2762,-0.2703,-0.2703,-0.2724,-0.2707,-0.2707,-0.2707,-0.2718,-0.27,-0.2703,-0.2757,-0.2781,-0.2352,-0.1875,-0.1438,-0.0961,-0.0483,0.0,0.0,0.0,0.0,0.0,0.0,0.0,0.0,0.0,0.0,0.0,0.0,0.0,0.0,0.0,0.0,0.0,0.0,0.0,0.0,0.0,0.0,0.0,0.0,0.0,-0.299,-0.3003,-0.3016,-0.3089,-0.3097,-0.31,-0.31,-0.31,-0.31,-0.31,-0.3022,-0.3001,-0.3001,-0.2946,-0.2901,-0.2921,-0.2919,-0.2919,-0.2919,-0.2919,-0.2919,-0.2919,-0.2919,-0.2919,-0.2919,-0.2919,-0.2919,-0.2919,-0.2919,-0.2919,-0.2919,-0.2919,-0.2919,-0.2919,-0.2919,-0.2919,-0.2919,-0.2919,-0.2919,-0.2919,-0.2919,-0.2919,-0.2919,-0.2919,-0.2919,-0.2919,-0.2919,-0.2919,-0.2919,-0.2919,-0.2919,-0.2919,-0.2919,-0.2919,-0.2919,-0.2919,-0.2919,-0.2919,-0.2919,-0.2919,-0.2919,-0.2919,-0.2919,-0.2917,-0.2868,-0.2864,-0.2855,-0.2827,-0.2778,-0.2814,-0.2788,-0.2784,-0.2784,-0.2784,-0.278,-0.2777,-0.2777,-0.2773,-0.2772,-0.2772,-0.2772,-0.2773,-0.2777,-0.2777,-0.2778,-0.2782,-0.2369,-0.1896,-0.1411,-0.0934,-0.0492,0.0,0.0,0.0,0.0,0.0,0.0,0.0,0.0,0.0,0.0,0.0,0.0,0.0,0.0,0.0,0.0,0.0,0.0,0.0,0.0,0.0,0.0,0.0,0.0,0.0,-0.3024,-0.3079,-0.3083,-0.3097,-0.31,-0.31,-0.31,-0.31,-0.31,-0.31,-0.3025,-0.3006,-0.3006,-0.2968,-0.2936,-0.297,-0.2968,-0.2968,-0.2968,-0.2906,-0.2897,-0.2897,-0.2882,-0.2919,-0.2919,-0.2919,-0.2919,-0.2919,-0.2919,-0.2919,-0.2919,-0.2919,-0.2919,-0.2919,-0.2919,-0.2919,-0.2919,-0.2919,-0.2919,-0.2919,-0.2919,-0.2919,-0.2919,-0.2919,-0.2919,-0.2919,-0.2919,-0.2919,-0.2919,-0.2919,-0.2919,-0.2919,-0.2919,-0.2919,-0.2919,-0.2919,-0.2919,-0.2919,-0.2919,-0.2919,-0.2919,-0.2919,-0.2919,-0.2919,-0.2919,-0.2919,-0.287,-0.2857,-0.2855,-0.2849,-0.2837,-0.2878,-0.2878,-0.2878,-0.2819,-0.2808,-0.2808,-0.2795,-0.2784,-0.2784,-0.2784,-0.2789,-0.2807,-0.2808,-0.2815,-0.2833,-0.2402,-0.2051,-0.1873,-0.1388,-0.0898,-0.0404,-0.0404,-0.0269,0.0,0.0,0.0,0.0,0.0,0.0,0.0,0.0,0.0,0.0,0.0,0.0,0.0,0.0,0.0,0.0,0.0,0.0,0.0,0.0,0.0,0.0]},{"header":{"parameterUnit":"m.s-1","parameterCategory":1,"la1":30.6,"la2":28.766,"lo1":-90.7593,"lo2":-88.6598,"dy":0.0162,"dx":0.0183,"nx":116,"ny":114,"refTime":"2024-06-17T18:00:00:Z","depth":0,"parameterNumber":3,"parameterNumberName":"V-component_of_WINDS"},"data":[0.0,0.0,0.0,0.0,0.0,0.0,0.0,0.0,0.0,0.0,0.0,0.0,0.0,0.0,0.0,0.0,0.0,0.0,0.0,0.0,0.0,0.0,0.0,0.0,0.0,0.0,0.0,0.0,0.0,0.0,0.0,0.0,0.0,0.0,0.0,0.0,0.0,0.0,0.0,0.0,0.0,0.0,0.0,0.0,0.0,0.0,0.0,0.0,0.0,0.0,0.0,0.0,0.0,0.0,0.0,0.0,0.0,0.0,0.0,0.0,0.0,0.0,0.0,0.0,0.0,0.0,0.0,0.0,0.0,0.0,0.0,0.0,0.0,0.0,0.0,0.0,0.0,0.0,0.0,0.0,0.0,0.0,0.0,0.0,0.0,0.0,0.0,0.0,0.0,0.0,0.0,0.0,0.0,0.0,0.0,0.0,0.0,0.0,0.0,0.0,0.0,0.0,0.0,0.0,0.0,0.0,0.0,0.0,0.0,0.0,0.0,0.0,0.0,0.0,0.0,0.0,0.0,0.0,0.0,0.0,0.0,0.0,0.0,0.0,0.0,0.0,0.0,0.0,0.0,0.0,0.0,0.0,0.0,0.0,0.0,0.0,0.0,0.0,0.0,0.0,0.0,0.0,0.0,0.0,0.0,0.0,0.0,0.0,0.0,0.0,0.0,0.0,0.0,0.0,0.0,0.0,0.0,0.0,0.0,0.0,0.0,0.0,0.0,0.0,0.0,0.0,0.0,0.0,0.0,0.0,0.0,0.0,0.0,0.0,0.0,0.0,0.0,0.0,0.0,0.0,0.0,0.0,0.0,0.0,0.0,0.0,0.0,0.0,0.0,0.0,0.0,0.0,0.0,0.0,0.0,0.0,0.0,0.0,0.0,0.0,0.0,0.0,0.0,0.0,0.0,0.0,0.0,0.0,0.0,0.0,0.0,0.0,0.0,0.0,0.0,0.0,0.0,0.0,0.0,0.0,0.0,0.0,0.0,0.0,0.0,0.0,0.0,0.0,0.0,0.0,0.0,0.0,0.0,0.0,0.0,0.0,0.0,0.0,0.0,0.0,0.0,0.0,0.0,0.0,0.0,0.0,0.0,0.0,0.0,0.0,0.0,0.0,0.0,0.0,0.0,0.0,0.0,0.0,0.0,0.0,0.0,0.0,0.0,0.0,0.0,0.0,0.0,0.0,0.0,0.0,0.0,0.0,0.0,0.0,0.0,0.0,0.0,0.0,0.0,0.0,0.0,0.0,0.0,0.0,0.0,0.0,0.0,0.0,0.0,0.0,0.0,0.0,0.0,0.0,0.0,0.0,0.0,0.0,0.0,0.0,0.0,0.0,0.0,0.0,0.0,0.0,0.0,0.0,0.0,0.0,0.0,0.0,0.0,0.0,0.0,0.0,0.0,0.0,0.0,0.0,0.0,0.0,0.0,0.0,0.0,0.0,0.0,0.0,0.0,0.0,0.0,0.0,0.0,0.0,0.0,0.0,0.0,0.0,0.0,0.0,0.0,0.0,0.0,0.0,0.0,0.0,0.0,0.0,0.0,0.0,0.0,0.0,0.0,0.0,0.0,0.0,0.0,0.0,0.0,0.0,0.0,0.0,0.0,0.0,0.0,0.0,0.0,0.0,0.0,0.0,0.0,0.0,0.0,0.0,0.0,0.0,0.0,0.0,0.0,0.0,0.0,0.0,0.0,0.0,0.0,0.0,0.0,0.0,0.0,0.0,0.0,0.0,0.0,0.0,0.0,0.0,0.0,0.0,0.0,0.0,0.0,0.0,0.0,0.0,0.0,0.0,0.0,0.0,0.0,0.0,0.0,0.0,0.0,0.0,0.0,0.0,0.0,0.0,0.0,0.0,0.0,0.0,0.0,0.0,0.0,0.0,0.0,0.0,0.0,0.0,0.0,0.0,0.0,0.0,0.0,0.0,0.0,0.0,0.0,0.0,0.0,0.0,0.0,0.0,0.0,0.0,0.0,0.0,0.0,0.0,0.0,0.0,0.0,0.0,0.0,0.0,0.0,0.0,0.0,0.0,0.0,0.0,0.0,0.0,0.0,0.0,0.0,0.0,0.0,0.0,0.0,0.0,0.0,0.0,0.0,0.0,0.0,0.0,0.0,0.0,0.0,0.0,0.0,0.0,0.0,0.0,0.0,0.0,0.0,0.0,0.0,0.0,0.0,0.0,0.0,0.0,0.0,0.0,0.0,0.0,0.0,0.0,0.0,0.0,0.0,0.0,0.0,0.0,0.0,0.0,0.0,0.0,0.0,0.0,0.0,0.0,0.0,0.0,0.0,0.0,0.0,0.0,0.0,0.0,0.0,0.0,0.0,0.0,0.0,0.0,0.0,0.0,0.0,0.0,0.0,0.0,0.0,0.0,0.0,0.0,0.0,0.0,0.0,0.0,0.0,0.0,0.0,0.0,0.0,0.0,0.0,0.0,0.0,0.0,0.0,0.0,0.0,0.0,0.0,0.0,0.0,0.0,0.0,0.0,0.0,0.0,0.0,0.0,0.0,0.0,0.0,0.0,0.0,0.0,0.0,0.0,0.0,0.0,0.0,0.0,0.0,0.0,0.0,0.0,0.0,0.0,0.0,0.0,0.0,0.0,0.0,0.0,0.0,0.0,0.0,0.0,0.0,0.0,0.0,0.0,0.0,0.0,0.0,0.0,0.0,0.0,0.0,0.0,0.0,0.0,0.0,0.0,0.0,0.0,0.0,0.0,0.0,0.0,0.0,0.0,0.0,0.0,0.0,0.0,0.0,0.0,0.0,0.0,0.0,0.0,0.0,0.0,0.0,0.0,0.0,0.0,0.0,0.0,0.0,0.0,0.0,0.0,0.0,0.0,0.0,0.0,0.0,0.0,0.0,0.0,0.0,0.0,0.0,0.0,0.0,0.0,0.0,0.0,0.0,0.0,0.0,0.0,0.0,0.0,0.0,0.0,0.0,0.0,0.0,0.0,0.0,0.0,0.0,0.0,0.0,0.0,0.0,0.0,0.0,0.0,0.0,0.0,0.0,0.0,0.0,0.0,0.0,0.0,0.0,0.0,0.0,0.0,0.0,0.0,0.0,0.0,0.0,0.0,0.0,0.0,0.0,0.0,0.0,0.0,0.0,0.0,0.0,0.0,0.0,0.0,0.0,0.0,0.0,0.0,0.0,0.0,0.0,0.0,0.0,0.0,0.0,0.0,0.0,0.0,0.0,0.0,0.0,0.0,0.0,0.0,0.0,0.0,0.0,0.0,0.0,0.0,0.0,0.0,0.0,0.0,0.0,0.0,0.0,0.0,0.0,0.0,0.0,0.0,0.0,0.0,0.0,0.0,0.0,0.0,0.0,0.0,0.0,0.0,0.0,0.0,0.0,0.0,0.0,0.0,0.0,0.0,0.0,0.0,0.0,0.0,0.0,0.0,0.0,0.0,0.0,0.0,0.0,0.0,0.0,0.0,0.0,0.0,0.0,0.0,0.0,0.0,0.0,0.0,0.0,0.0,0.0,0.0,0.0,0.0,0.0,0.0,0.0,0.0,0.0,0.0,0.0,0.0,0.0,0.0,0.0,0.0,0.0,0.0,0.0,0.0,0.0,0.0,0.0,0.0,0.0,0.0,0.0,0.0,0.0,0.0,0.0,0.0,0.0,0.0,0.0,0.0,0.0,0.0,0.0,0.0,0.0,0.0,0.0,0.0,0.0,0.0,0.0,0.0,0.0,0.0,0.0,0.0,0.0,0.0,0.0,0.0,0.0,0.0,0.0,0.0,0.0,0.0,0.0,0.0,0.0,0.0,0.0,0.0,0.0,0.0,0.0,0.0,0.0,0.0,0.0,0.0,0.0,0.0,0.0,0.0,0.0,0.0,0.0,0.0,0.0,0.0,0.0,0.0,0.0,0.0,0.0,0.0,0.0,0.0,0.0,0.0,0.0,0.0,0.0,0.0,0.0,0.0,0.0,0.0,0.0,0.0,0.0,0.0,0.0,0.0,0.0,0.0,0.0,0.0,0.0,0.0,0.0,0.0,0.0,0.0,0.0,0.0,0.0,0.0,0.0,0.0,0.0,0.0,0.0,0.0,0.0,0.0,0.0,0.0,0.0,0.0,0.0,0.0,0.0,0.0,0.0,0.0,0.0,0.0,0.0,0.0,0.0,0.0,0.0,0.0,0.0,0.0,0.0,0.0,0.0,0.0,0.0,0.0,0.0,0.0,0.0,0.0,0.0,0.0,0.0,0.0,0.0,0.0,0.0,0.0,0.0,0.0,0.0,0.0,0.0,0.0,0.0,0.0,0.0,0.0,0.0,0.0,0.0,0.0,0.0,0.0,0.0,0.0,0.0,0.0,0.0,0.0,0.0,0.0,0.0,0.0,0.0,0.0,0.0,0.0,0.0,0.0,0.0,0.0,0.0,0.0,0.0,0.0,0.0,0.0,0.0,0.0,0.0,0.0,0.0,0.0,0.0,0.0,0.0,0.0,0.0,0.0,0.0,0.0,0.0,0.0,0.0,0.0,0.0,0.0,0.0,0.0,0.0,0.0,0.0,0.0,0.0,0.0,0.0,0.0,0.0,0.0,0.0,0.0,0.0,0.0,0.0,0.0,0.0,0.0,0.0,0.0,0.0,0.0,0.0,0.0,0.0,0.0,0.0,0.0,0.0,0.0,0.0,0.0,0.0,0.0,0.0,0.0,0.0,0.0,0.0,0.0,0.0,0.0,0.0,0.0,0.0,0.0,0.0,0.0,0.0,0.0,0.0,0.0,0.0,0.0,0.0,0.0,0.0,0.0,0.0,0.0,0.0,0.0,0.0,0.0,0.0,0.0,0.0,0.0,0.0,0.0,0.0,0.0,0.0,0.0,0.0,0.0,0.0,0.0,0.0,0.0,0.0,0.0,0.0,0.0,0.0,0.0,0.0,0.0,0.0,0.0,0.0,0.0,0.0,0.0,0.0,0.0,0.0,0.0,0.0,0.0,0.0,0.0,0.0,0.0,0.0,0.0,0.0,0.0,0.0,0.0,0.0,0.0,0.0,0.0,0.0,0.0,0.0,0.0,0.0,0.0,0.0,0.0,0.0,0.0,0.0,0.0,0.0,0.0,0.0,0.0,0.0,0.0,0.0,0.0,0.0,0.0,0.0,0.0,0.0,0.0,0.0,0.0,0.0,0.0,0.0,0.0,0.0,0.0,0.0,0.0,0.0,0.0,0.0,0.0,0.0,0.0,0.0,0.0,0.0,0.0,0.0,0.0,0.0,0.0,0.0,0.0,0.0,0.0,0.0,0.0,0.0,0.0,0.0,0.0,0.0,0.0,0.0,0.0,0.0,0.0,0.0,0.0,0.0,0.0,0.0,0.0,0.0,0.0,0.0,0.0,0.0,0.0,0.0,0.0,0.0,0.0,0.0,0.0,0.0,0.0,0.0,0.0,0.0,0.0,0.0,0.0,0.0,0.0,0.0,0.0,0.0,0.0,0.0,0.0,0.0,0.0,0.0,0.0,0.0,0.0,0.0,0.0,0.0,0.0,0.0,0.0,0.0,0.0,0.0,0.0,0.0,0.0,0.0,0.0,0.0,0.0,0.0,0.0,0.0,0.0,0.0,0.0,0.0,0.0,0.0,0.0,0.0,0.0,0.0,0.0,0.0,0.0,0.0,0.0,0.0,0.0,0.0,0.0,0.0,0.0,0.0,0.0,0.0,0.0,0.0,0.0,0.0,0.0,0.0,0.0,0.0,0.0,0.0,0.0,0.0,0.0,0.0,0.0,0.0,0.0,0.0,0.0,0.0,0.0,0.0,0.0,0.0,0.0,0.0,0.0,0.0,0.0,0.0,0.0,0.0,0.0,0.0,0.0,0.0,0.0,0.0,0.0,0.0,0.0,0.0,0.0,0.0,0.0,0.0,0.0,0.0,0.0,0.0,0.0,0.0,0.0,0.0,0.0,0.0,0.0,0.0,0.0,0.0,0.0,0.0,0.0,0.0,0.0,0.0,0.0,0.0,0.0,0.0,0.0,0.0,0.0,0.0,0.0,0.0,0.0,0.0,0.0,0.0,0.0,0.0,0.0,0.0,0.0,0.0,0.0,0.0,0.0,0.0,0.0,0.0,0.0,0.0,0.0,2.9862,2.7732,0.0,0.0,0.0,0.0,0.0,0.0,0.0,0.0,0.0,0.0,0.0,0.0,0.0,0.0,0.0,0.0,0.0,0.0,0.0,0.0,0.0,0.0,0.0,1.8431,1.8743,1.9129,1.9523,1.9809,1.9932,1.9951,2.0002,2.0148,2.0155,2.018,2.0257,1.9842,2.003,2.0831,2.0409,2.1167,2.3034,2.2349,2.1352,2.0197,0.0,0.0,0.0,0.0,0.0,0.0,0.0,0.0,0.0,0.0,0.0,0.0,0.0,0.0,0.0,0.0,0.0,0.0,0.0,0.0,0.0,0.0,0.0,0.0,0.0,0.0,0.0,0.0,0.0,0.0,0.0,0.0,0.0,0.0,0.0,0.0,0.0,0.0,0.0,0.0,0.0,0.0,0.0,0.0,0.0,0.0,0.0,0.0,0.0,0.0,0.0,0.0,0.0,0.0,0.0,0.0,0.0,0.0,0.0,0.0,0.0,0.0,0.0,0.0,0.0,0.0,0.0,0.0,0.0,0.0,3.4958,3.3295,0.0,0.0,0.0,0.0,0.0,0.0,0.0,0.0,0.0,0.0,0.0,0.0,0.0,0.0,0.0,0.0,0.0,0.0,0.0,0.0,0.0,1.7198,1.8741,1.9194,1.9702,2.0476,2.0678,2.0791,2.0881,2.0675,2.0587,2.0682,2.0682,2.0763,2.0872,2.0776,2.1193,2.2233,2.2617,2.3857,2.5861,2.7208,2.6483,2.3989,2.3319,0.0,0.0,0.0,0.0,0.0,0.0,0.0,0.0,0.0,0.0,0.0,0.0,0.0,0.0,0.0,0.0,0.0,0.0,0.0,0.0,0.0,0.0,0.0,0.0,0.0,0.0,0.0,0.0,0.0,0.0,0.0,0.0,0.0,0.0,0.0,0.0,0.0,0.0,0.0,0.0,0.0,0.0,0.0,0.0,0.0,0.0,0.0,0.0,0.0,0.0,0.0,0.0,0.0,0.0,0.0,0.0,0.0,0.0,0.0,0.0,0.0,0.0,0.0,4.2374,4.3077,4.3248,4.3391,4.4047,4.4818,4.0606,3.9895,4.1394,3.694,0.0,0.0,0.0,0.0,0.0,0.0,0.0,0.0,0.0,0.0,0.0,0.0,0.0,0.0,0.0,0.0,0.0,0.0,0.0,1.8166,1.9898,2.1225,2.233,2.3137,2.3764,2.3859,2.3225,2.3129,2.2856,2.2235,2.22,2.2535,2.3254,2.2637,2.3323,2.5493,2.7457,2.8946,2.9929,3.0773,3.0909,3.033,2.6934,2.5712,2.5986,0.0,0.0,0.0,0.0,0.0,0.0,0.0,0.0,0.0,0.0,0.0,0.0,0.0,0.0,0.0,0.0,0.0,0.0,0.0,0.0,0.0,0.0,0.0,0.0,0.0,0.0,0.0,0.0,0.0,0.0,0.0,0.0,0.0,0.0,0.0,0.0,0.0,0.0,0.0,0.0,0.0,2.8813,3.0511,0.0,0.0,0.0,0.0,0.0,0.0,0.0,0.0,0.0,0.0,0.0,0.0,0.0,4.1016,4.2226,4.5081,4.6204,4.559,4.896,4.9448,4.7448,4.8115,4.8851,4.9529,4.8971,0.0,4.2887,4.0838,0.0,0.0,0.0,0.0,0.0,0.0,0.0,0.0,0.0,0.0,0.0,0.0,0.0,0.0,0.0,0.0,0.0,0.0,0.0,0.0,0.0,2.2979,2.4196,2.4994,2.575,2.5872,2.5067,2.4628,2.4037,2.3275,2.3241,2.3392,2.3763,2.4293,2.5933,2.8696,3.0972,3.2465,3.3258,3.3973,3.4298,3.4199,3.2492,3.0477,2.8194,2.597,0.0,0.0,0.0,0.0,0.0,0.0,0.0,0.0,0.0,0.0,0.0,0.0,0.0,0.0,0.0,0.0,0.0,0.0,0.0,0.0,0.0,0.0,0.0,0.0,0.0,0.0,0.0,0.0,0.0,0.0,0.0,0.0,0.0,0.0,0.0,0.0,0.0,0.0,0.0,2.8321,3.1564,3.2838,3.3103,3.2838,0.0,0.0,0.0,0.0,0.0,0.0,0.0,0.0,0.0,4.4149,4.5216,4.6533,4.8161,5.0362,5.1286,5.0936,5.304,5.3434,5.2354,5.2732,5.303,5.3316,5.336,5.193,4.9298,4.6258,4.4062,4.2419,0.0,0.0,0.0,0.0,4.0479,4.2056,0.0,0.0,0.0,0.0,0.0,0.0,0.0,0.0,0.0,0.0,0.0,0.0,2.3055,2.4804,2.6247,2.717,2.7833,2.7833,2.7032,2.6101,2.5239,2.4405,2.4198,2.4198,2.437,2.6481,2.8972,3.1844,3.4121,3.5639,3.6363,3.7111,3.7353,3.718,3.718,3.4912,3.098,2.9042,2.7061,2.5018,0.0,0.0,0.0,0.0,0.0,0.0,0.0,0.0,0.0,0.0,0.0,0.0,0.0,0.0,0.0,0.0,0.0,0.0,0.0,0.0,0.0,0.0,0.0,0.0,0.0,0.0,0.0,0.0,0.0,0.0,0.0,0.0,0.0,0.0,0.0,0.0,0.0,3.1492,3.4453,3.5382,3.6926,3.7204,0.0,0.0,0.0,0.0,0.0,0.0,4.311,4.4973,4.7082,4.9569,5.0723,5.2024,5.3529,5.473,5.5317,5.5317,5.5915,5.6209,5.6209,5.6209,5.6099,5.5915,5.5915,5.5574,5.4719,5.0778,4.8539,4.7311,4.4483,4.3706,4.4227,4.4254,4.5022,4.6457,0.0,0.0,0.0,0.0,0.0,0.0,0.0,0.0,0.0,0.0,0.0,2.3164,2.4722,2.6868,2.8834,3.0326,3.0498,3.0188,2.9377,2.7971,2.6833,2.6032,2.5308,2.5274,2.5963,2.9627,3.2662,3.4983,3.726,3.8744,3.9491,4.0296,4.0262,3.9526,3.9526,3.8215,3.5756,3.2825,3.0653,2.8955,2.599,0.0,0.0,0.0,0.0,0.0,0.0,0.0,0.0,0.0,0.0,0.0,0.0,0.0,0.0,0.0,0.0,0.0,0.0,0.0,0.0,0.0,0.0,0.0,0.0,0.0,0.0,0.0,0.0,0.0,0.0,0.0,0.0,0.0,0.0,0.0,0.0,0.0,0.0,3.953,4.0788,0.0,0.0,0.0,0.0,4.186,4.4187,4.6608,4.9038,5.0698,5.269,5.5111,5.6003,5.6847,5.7703,5.7776,5.7813,5.7813,5.785,5.7886,5.7886,5.7886,5.7446,5.6737,5.6737,5.6701,5.6444,5.3151,5.0825,4.9122,4.7402,4.6722,4.6728,4.6778,4.827,5.044,0.0,0.0,0.0,1.7566,1.7882,1.8086,1.8134,1.8793,1.9453,1.9947,2.244,2.4757,2.6324,2.8937,3.1007,3.2041,3.211,3.18,3.1041,2.911,2.8075,2.8274,2.7592,2.8454,3.1188,3.349,3.5801,3.8088,3.9917,4.1193,4.1964,4.224,4.224,4.1964,4.1964,4.1193,3.971,3.5708,3.311,3.1489,2.8929,2.6825,0.0,0.0,0.0,0.0,0.0,0.0,0.0,0.0,0.0,0.0,0.0,0.0,0.0,0.0,0.0,0.0,0.0,0.0,0.0,0.0,0.0,0.0,0.0,0.0,0.0,0.0,0.0,0.0,0.0,0.0,0.0,0.0,0.0,0.0,0.0,0.0,0.0,4.3224,4.4939,0.0,4.3525,4.4702,4.5975,4.6874,4.9701,5.1977,5.3382,5.4997,5.6492,5.7886,5.8205,5.8719,5.9538,5.9538,5.9538,5.9538,5.9538,5.9538,5.9538,5.9538,5.9391,5.9123,5.9123,5.9123,5.8976,5.7324,5.5955,5.4869,5.4283,5.4078,5.3983,5.3491,5.3868,5.4535,0.0,1.6661,0.0,1.7605,1.7941,1.8134,1.8195,1.9022,1.9952,2.071,2.3481,2.604,2.7833,3.0524,3.2593,3.3593,3.3455,3.3105,3.2662,3.0525,2.9478,3.0057,3.004,3.1528,3.4776,3.6654,3.8566,4.0608,4.2262,4.3305,4.386,4.4103,4.4019,4.3689,4.3689,4.3225,4.2194,3.8882,3.6329,3.4249,3.1972,3.0317,2.8903,0.0,0.0,0.0,0.0,0.0,0.0,0.0,0.0,0.0,0.0,0.0,0.0,0.0,0.0,0.0,0.0,0.0,0.0,0.0,0.0,0.0,0.0,0.0,0.0,0.0,0.0,0.0,0.0,0.0,0.0,0.0,0.0,0.0,0.0,4.2114,4.5259,4.6185,4.8493,4.9346,4.7738,4.9539,5.1046,5.1607,5.439,5.6279,5.6785,5.8327,5.9575,6.0407,6.0701,6.1251,6.2071,6.2059,6.2059,6.2059,6.2059,6.2059,6.2059,6.2059,6.1924,6.1667,6.1667,6.1667,6.1594,6.0774,6.0367,6.0077,5.8286,5.7446,5.7152,5.6895,5.6897,5.6968,0.0,1.635,1.6919,1.7003,1.7692,1.82,1.82,1.9435,2.0676,2.1475,2.4274,2.7032,2.9274,3.1584,3.3593,3.5131,3.4555,3.4159,3.4318,3.2195,3.1035,3.1315,3.2686,3.4409,3.6474,3.8984,4.1032,4.2579,4.4366,4.5222,4.5269,4.5984,4.5779,4.4846,4.4846,4.428,4.3291,4.2484,4.0435,3.7523,3.5166,3.3731,3.2697,0.0,0.0,0.0,0.0,0.0,0.0,0.0,0.0,0.0,0.0,0.0,0.0,0.0,0.0,0.0,0.0,0.0,0.0,0.0,0.0,0.0,0.0,0.0,0.0,0.0,0.0,0.0,0.0,0.0,0.0,0.0,0.0,0.0,4.2212,4.5874,4.8586,4.8545,5.1417,5.2803,5.1266,5.4038,5.5917,5.5917,5.8164,5.9458,5.9318,6.0835,6.2083,6.2879,6.3699,6.4506,6.5301,6.5301,6.5288,6.5288,6.5288,6.5288,6.5288,6.5288,6.4861,6.4139,6.4139,6.4139,6.4066,6.3258,6.359,6.4202,5.9023,5.6525,5.596,5.6683,5.7159,5.7717,1.5613,1.6414,1.7145,1.7766,1.8057,1.82,1.82,1.9435,2.0676,2.1475,2.5205,2.842,3.0179,3.2879,3.5044,3.62,3.5215,3.4618,3.4791,3.2816,3.2421,3.4246,3.6853,3.9213,4.1255,4.3355,4.5109,4.6448,4.7747,4.8373,4.8373,4.8577,4.8506,4.8233,4.8233,4.7642,4.6553,4.5788,4.439,4.2414,3.8798,3.657,3.5076,0.0,0.0,0.0,0.0,0.0,0.0,0.0,0.0,0.0,0.0,0.0,0.0,0.0,0.0,0.0,0.0,0.0,0.0,0.0,0.0,0.0,0.0,0.0,0.0,0.0,0.0,0.0,0.0,0.0,0.0,0.0,4.4457,4.7858,4.773,4.9758,5.19,5.3605,5.5175,5.5934,5.5491,5.7326,5.8545,5.8545,6.0796,6.215,6.2103,6.3652,6.4685,6.4906,6.5027,6.5235,6.5443,6.5443,6.5391,6.5288,6.5404,6.5391,6.5288,6.5288,6.5178,6.4971,6.4971,6.4971,6.496,6.5078,6.4958,6.4505,6.2438,6.1703,6.1637,6.0683,5.945,5.8295,1.6067,1.6689,1.7239,1.8057,1.82,1.8304,1.8614,1.9642,2.0911,2.2337,2.5963,2.911,3.0981,3.3436,3.5317,3.6232,3.5478,3.4887,3.477,3.4053,3.4661,3.7002,4.0131,4.2616,4.4378,4.6254,4.7594,4.8344,4.8742,4.892,4.892,4.892,4.8876,4.8778,4.9114,4.8828,4.8089,4.8017,4.7309,4.6024,4.3318,4.0918,3.8716,3.633,3.4726,3.3552,3.1699,3.0976,3.08,3.0075,0.0,0.0,0.0,0.0,0.0,0.0,0.0,0.0,0.0,0.0,0.0,0.0,0.0,0.0,0.0,0.0,0.0,0.0,0.0,0.0,0.0,0.0,0.0,0.0,4.8399,5.163,5.3343,5.4044,5.504,5.6752,5.7745,5.8417,5.875,6.0256,6.1169,6.1169,6.3141,6.4301,6.4241,6.5497,6.6199,6.6199,6.6456,6.659,6.659,6.659,6.6551,6.6475,6.6551,6.6551,6.6475,6.6629,6.6729,6.6753,6.6898,6.6993,6.6967,6.6915,6.6673,6.6206,0.0,0.0,0.0,0.0,6.1911,6.1123,1.6723,1.7062,1.7363,1.8097,1.82,1.8441,1.9194,1.9918,2.1227,2.3502,2.6527,2.9289,3.1484,3.3498,3.5017,3.5831,3.557,3.5195,3.4807,3.5863,3.745,3.9591,4.265,4.4946,4.6349,4.8047,4.8956,4.9023,4.8585,4.8367,4.8367,4.8367,4.8267,4.8047,4.8748,4.8886,4.8587,4.9331,4.9142,4.839,4.7782,4.5691,4.2685,4.0344,3.9044,3.8174,3.6089,3.4597,3.3584,3.2831,0.0,0.0,0.0,0.0,0.0,0.0,0.0,0.0,0.0,0.0,0.0,0.0,0.0,0.0,0.0,0.0,0.0,0.0,0.0,0.0,0.0,0.0,0.0,0.0,5.1974,5.4614,5.825,5.8289,5.8148,5.8643,5.9597,6.0515,6.1219,6.2775,6.3702,6.3702,6.5159,6.6,6.5878,6.6716,0.0,0.0,0.0,6.8493,6.8519,6.8519,6.8519,6.8506,6.8432,6.8395,6.8395,6.8656,6.8777,6.8799,6.9137,6.9302,6.9237,6.859,6.8537,6.8633,6.6512,6.4755,6.3446,6.381,6.433,6.482,1.6934,1.752,1.8028,1.8166,1.82,1.8441,1.9194,1.9918,2.1227,2.3502,2.6776,2.9499,3.112,3.3613,3.5521,3.6456,3.6101,3.6259,3.7147,3.8697,4.0333,4.2043,4.4626,4.6623,4.7909,4.9196,5.0026,5.0425,5.0618,5.0731,5.0731,5.0731,5.0713,5.0675,5.0823,5.0376,4.9468,4.9615,4.9309,4.876,4.896,4.7217,4.4375,4.326,4.1943,4.0522,3.945,3.8854,3.8424,3.7697,3.6844,3.5972,3.51,3.3448,0.0,0.0,0.0,0.0,0.0,0.0,0.0,0.0,0.0,0.0,0.0,0.0,0.0,0.0,0.0,0.0,0.0,0.0,0.0,5.0878,5.4997,5.8287,5.9065,6.0686,6.1538,6.0757,6.1949,6.2937,6.3074,6.4596,6.5573,6.5573,6.6501,6.7009,6.6973,6.8383,6.9333,6.9702,7.0408,7.092,7.1239,7.1239,7.1196,7.1073,7.0545,0.0,7.01,6.9487,6.9179,6.9179,6.9272,6.9302,6.9333,6.9522,6.987,7.0118,6.8183,6.6834,6.6004,6.6068,6.5741,6.5176,1.7515,1.7909,1.82,1.82,1.8603,1.9215,1.9936,2.0805,2.2189,2.4536,2.7012,2.9161,3.0736,3.2609,3.3941,3.4466,3.4868,3.6239,3.8964,4.0315,4.2099,4.4544,4.6624,4.8181,4.9215,4.9813,5.0444,5.11,5.0852,5.0971,5.1416,5.1416,5.1416,5.1416,5.1825,5.1445,5.0564,5.0971,5.0506,4.9473,4.9712,4.8899,4.745,4.6558,4.5063,4.3355,4.2485,4.1764,4.1094,4.0305,3.9337,3.833,3.789,3.6245,3.419,0.0,0.0,0.0,0.0,0.0,0.0,0.0,0.0,0.0,0.0,0.0,0.0,0.0,0.0,4.5692,4.7396,0.0,5.3397,5.507,5.8084,6.0478,6.1291,6.2444,6.3069,6.2745,6.3587,6.4371,6.4816,6.6135,6.699,6.699,6.8344,6.915,6.915,7.0314,7.1073,7.1278,7.1641,7.1914,7.2098,7.2098,7.2068,7.1981,7.1652,7.1453,7.1375,7.1181,7.0848,7.0477,7.0665,7.0514,7.0103,7.0312,7.0547,7.0645,6.9682,6.8794,6.7982,6.7599,6.7186,6.6688,1.8057,1.82,1.8256,1.8452,1.9173,1.9996,2.094,2.1775,2.3155,2.5595,2.7127,2.8631,3.0297,3.1477,3.2261,3.2657,3.3894,3.6377,4.0353,4.1542,4.3466,4.6587,4.811,4.9187,4.9847,5.0033,5.0442,5.1156,5.059,5.0711,5.1416,5.1416,5.1416,5.1416,5.2085,5.1899,5.1193,5.1825,5.1333,5.0116,5.0107,5.0116,5.0107,4.925,4.7795,4.6085,4.5077,4.3843,4.2665,4.1994,4.0863,3.9747,3.9792,3.8514,3.6816,3.5703,3.499,0.0,0.0,0.0,0.0,0.0,0.0,0.0,0.0,4.25,4.3957,4.6438,4.8447,5.048,5.2967,5.5194,5.7305,5.9313,6.0812,6.2135,6.3432,6.3736,6.4072,6.4568,6.5003,6.562,6.6489,6.7589,6.8337,6.8498,7.0029,7.1057,7.1209,7.2015,7.2471,7.2557,7.2709,7.2861,7.2936,7.2936,7.2936,7.2945,7.2784,7.2707,7.2679,7.2932,7.2636,7.1993,7.2145,7.1713,7.0891,7.0836,7.0815,7.0808,7.0743,7.0299,6.9601,6.8927,6.8683,6.8568,1.8166,1.82,1.8492,1.9375,1.9618,2.0265,2.1895,2.2228,2.3155,2.5595,2.6916,2.8281,2.9896,3.1114,3.2406,3.3858,3.5497,3.7863,4.1244,4.2872,4.4878,4.7441,4.8407,4.8927,4.9039,4.9736,5.0144,5.0265,5.0933,5.1305,5.1416,5.1416,5.1416,5.1416,5.1491,5.1045,5.0256,5.033,5.0302,5.019,5.0116,5.0107,5.0107,5.0061,4.935,4.8243,4.6644,4.5043,4.3651,4.354,4.2914,4.214,4.2202,4.157,4.0346,3.8058,3.6865,3.631,3.6198,3.7462,3.9366,4.1676,4.1824,4.3161,0.0,5.007,4.9847,5.2345,5.5015,5.6821,5.6408,5.861,6.0592,6.0849,6.2528,6.3825,6.4008,6.4642,6.5375,6.6159,6.6646,6.725,6.8139,6.901,6.9834,7.0601,7.0877,7.1323,7.2025,7.2887,7.3507,7.3891,7.4578,7.5145,7.5564,7.5572,7.5572,7.5572,7.4796,7.4412,7.4412,7.3711,7.338,7.3265,7.25,7.1713,7.0898,7.0891,7.0885,7.0885,7.0878,7.0832,7.0703,7.0498,7.0408,7.0293,1.82,1.8275,1.8848,2.0322,2.0581,2.1008,2.2345,2.305,2.3966,2.5464,2.6528,2.759,2.8778,2.9809,3.1032,3.2661,3.4296,3.686,4.065,4.2835,4.5101,4.759,4.8481,4.889,4.889,4.9707,5.033,5.0859,5.1676,5.2345,5.2791,5.2791,5.2791,5.2791,5.2791,5.2336,5.1519,5.1045,5.0599,5.0116,4.9596,4.9661,4.9996,4.9076,4.8501,4.7947,4.6306,4.4946,0.0,4.2838,4.2282,4.1986,4.1994,4.1111,3.9844,3.8813,3.8649,3.9356,4.1899,4.3472,4.4936,4.7076,4.8444,5.0101,5.3249,5.3769,5.4137,5.6144,5.7901,5.9114,5.9228,6.1229,6.3009,6.3474,6.4829,6.5855,6.5855,6.6155,6.6295,6.6173,6.6748,6.7474,6.8365,6.9411,7.0428,7.1275,7.2045,7.2811,7.3623,7.4503,7.5028,7.5211,7.5548,7.5803,7.6015,7.6015,7.6015,7.6015,7.563,7.5476,7.5438,7.513,7.4661,7.4123,7.2783,7.1982,7.1629,7.1091,7.0898,7.0898,7.0898,7.0898,7.0891,7.0829,7.0808,7.0769,0.0,1.8542,1.9321,2.0921,2.1441,2.1937,2.2958,2.3714,2.4586,2.5726,2.6393,2.7219,2.8322,2.9004,2.9959,3.1366,3.3144,3.5782,3.9461,4.2203,4.4766,4.7256,4.8147,4.8667,4.889,4.9921,5.0785,5.1416,5.2419,5.3237,5.3784,5.3784,5.3784,5.3784,5.3784,5.3237,5.2234,5.1639,5.0785,4.9707,4.9141,4.9113,4.9299,4.7887,4.6921,4.6215,4.5026,4.3912,4.276,4.1133,4.0724,4.091,4.091,4.039,3.9825,4.0048,4.0937,4.2482,4.5451,4.7572,4.9398,5.1068,5.331,5.5276,5.5784,5.6345,5.7165,5.8583,5.961,6.044,6.1041,6.2833,6.4489,6.5339,6.6394,6.7096,6.7096,6.6904,6.6558,6.5981,6.6404,6.7191,6.8295,6.9456,7.0677,7.2017,7.2961,7.3969,7.5007,7.5668,7.6015,7.6015,7.6015,7.6015,7.6015,7.6015,7.6015,7.6015,7.6015,7.6015,7.6015,7.6015,7.5515,7.4623,7.3437,7.2629,7.2136,7.1514,7.1129,7.0898,7.0898,7.0898,7.0898,7.0898,7.0898,7.0898,0.0,1.8991,1.9992,2.1034,2.2024,2.3004,2.4014,2.419,2.4821,2.6551,2.6782,2.7461,2.9163,2.9365,2.9736,3.0549,3.281,3.5256,3.7826,4.1014,4.3949,4.6438,4.7293,4.811,4.889,5.0525,5.1379,5.1416,5.2977,5.3794,5.3784,5.3784,5.3784,5.3784,5.3784,5.294,5.1416,5.1416,5.045,4.8927,4.8927,4.8444,4.7664,4.6847,4.5026,4.2946,4.2872,4.1876,4.0241,3.8569,3.8525,3.9194,3.9194,4.0271,4.169,4.2463,4.399,4.5322,4.4715,4.7717,5.1233,5.2116,5.4235,5.6459,5.8022,5.8393,5.8688,5.959,6.0654,6.144,6.1478,6.3174,6.4885,6.5737,6.6551,6.7096,6.7096,6.6442,6.5942,6.5904,6.5904,6.6583,6.8249,6.9186,7.0769,7.3262,7.3462,7.4199,7.5861,7.5976,7.6015,7.6015,7.6015,7.6015,7.6015,7.6015,7.6015,7.6015,7.6015,7.6015,7.6015,7.6015,7.5515,7.47,7.4661,7.3707,7.2213,7.2175,7.1668,7.0898,7.0898,7.0898,7.0898,7.0898,7.0898,7.0898,0.0,0.0,2.0555,2.1936,2.2599,2.3019,2.3331,2.3846,2.462,2.5768,2.694,0.0,0.0,0.0,0.0,0.0,3.2332,3.4445,3.6934,4.0167,4.2835,4.4766,4.6698,4.7813,4.811,4.9707,5.0525,5.0525,5.1676,5.2197,5.2197,5.2197,5.2197,5.2197,5.2197,5.1899,5.1342,5.0785,5.0562,5.0413,4.8779,4.8259,4.837,4.6995,4.4618,4.1869,0.0,3.9312,3.7789,3.6674,3.6565,3.6994,3.7548,3.8195,3.9347,4.2423,4.4977,4.7269,4.9436,5.191,5.4416,5.6574,5.8176,5.9511,6.0609,6.0878,6.0641,5.9785,6.0361,6.0846,6.0264,6.1689,6.3595,6.5596,6.6596,6.7282,6.7898,6.8283,6.766,6.5388,6.6124,6.7034,6.7612,6.8912,7.0744,7.3315,7.3507,7.4238,7.5899,7.6015,7.6015,7.6015,7.6015,7.6015,7.6015,7.6015,7.6015,7.6015,7.6015,7.6015,7.6015,7.6015,7.5822,7.5515,7.493,7.4392,7.3783,7.2675,7.2021,7.1713,7.1129,7.0898,7.0898,7.0898,7.0898,7.0898,0.0,0.0,0.0,2.1706,2.2246,0.0,0.0,0.0,0.0,0.0,0.0,0.0,0.0,0.0,0.0,0.0,0.0,3.3367,3.5262,3.8198,4.0724,4.2612,4.4246,4.5509,4.6364,4.7404,4.8213,4.8816,4.967,5.0228,5.0525,5.0525,5.0525,5.0525,5.0525,5.0339,5.0042,4.9485,4.941,4.9485,4.759,4.6773,4.655,4.4915,4.2471,0.0,3.7726,3.636,3.5377,3.4487,3.4884,3.5951,3.6763,3.8617,4.1016,4.3768,4.6631,4.9645,5.2889,5.5057,5.7075,5.9782,6.1102,6.1784,6.2053,6.1882,6.1248,5.9819,5.949,5.938,5.9127,5.9738,6.1328,6.4442,6.5685,6.6775,6.8244,6.8976,6.8513,6.6346,6.6806,6.7529,6.8185,6.9142,7.0811,7.3364,7.3549,7.4273,7.5899,7.6015,7.6015,7.6015,7.6015,7.6015,7.6015,7.6015,7.6015,7.6015,7.6015,7.6015,7.6015,7.6015,7.6015,7.5976,7.5399,7.4976,7.4623,7.3553,7.2745,7.2136,7.1591,7.1168,7.0898,7.0898,7.0898,7.0898,0.0,0.0,0.0,0.0,0.0,0.0,0.0,0.0,0.0,0.0,0.0,0.0,0.0,0.0,0.0,0.0,0.0,0.0,3.2884,3.5225,3.7677,4.0093,4.0278,4.1467,4.3845,4.392,4.4745,4.6388,4.7169,4.7904,4.8684,4.8639,4.8639,4.8684,4.8639,4.823,4.7524,4.7524,4.7078,4.629,4.5443,4.418,4.2575,4.0992,3.888,3.6415,3.4285,3.345,3.326,3.2291,3.3836,3.6314,3.7268,4.1559,4.6346,4.6543,4.9144,5.251,5.5045,5.7142,5.9271,6.1741,6.2888,6.319,6.238,6.1487,6.0523,5.944,5.8022,5.7153,5.7753,5.74,5.8356,6.2376,6.4028,6.5649,6.8166,6.8596,6.8659,6.8681,6.7998,6.8152,6.985,7.0043,7.1055,7.349,7.3631,7.4298,7.5914,7.6029,7.6029,7.6029,7.6029,7.6022,7.6022,7.6015,7.6015,7.6022,7.6015,7.6015,7.6015,7.6015,7.6015,7.6015,7.6015,7.5515,7.4776,7.47,7.3745,7.2252,7.2213,7.1668,7.0898,7.0898,7.0898,7.0898,0.0,0.0,0.0,0.0,0.0,0.0,0.0,0.0,0.0,0.0,0.0,0.0,0.0,0.0,0.0,0.0,0.0,0.0,3.2035,3.3813,3.5671,3.7566,3.8792,4.0365,4.2327,4.2961,4.3796,4.4938,4.5125,4.535,4.5529,4.5461,4.5431,4.5529,4.5424,4.5266,4.5079,4.5079,4.4906,4.4506,4.3102,4.2285,4.1809,4.0824,3.8971,3.6777,3.6372,3.5068,3.3606,3.4027,3.7267,4.1383,4.3017,4.5466,4.8152,5.0048,5.308,5.6192,5.8125,6.0398,6.2513,6.3825,6.3803,6.3246,6.2398,6.1538,5.9985,5.6549,5.5518,5.4521,5.2184,5.4174,5.6965,5.9253,6.3042,6.637,6.8298,6.9702,7.0317,6.9716,7.0026,7.0711,7.1794,7.191,7.2654,7.4519,7.4038,7.4385,7.6061,7.6138,7.6138,7.6138,7.6138,7.6118,7.6062,7.6005,7.6044,7.6062,7.6005,7.6015,7.6015,7.6015,7.6015,7.6015,7.6015,7.5861,7.563,7.4976,7.4084,7.3091,7.2437,7.1668,7.0898,7.0898,7.0898,7.0898,0.0,0.0,0.0,0.0,0.0,0.0,0.0,0.0,0.0,0.0,0.0,0.0,0.0,0.0,0.0,0.0,0.0,0.0,0.0,3.2104,3.3516,3.5522,3.6117,3.7413,3.951,4.0072,4.0747,4.156,4.2013,4.222,4.2159,4.2076,4.2111,4.2271,4.2152,4.2155,4.2155,4.2155,4.2076,0.0,0.0,3.9924,3.9482,3.8732,3.7386,3.5872,3.5766,3.6143,3.7031,3.9076,4.1924,4.5009,4.727,4.9176,5.1082,5.3627,5.6289,5.8839,6.0886,6.2779,6.4286,6.4788,6.4221,6.3036,6.1023,5.9657,5.7631,5.373,5.236,5.1245,4.9286,5.1254,5.421,5.7332,6.1509,6.5506,6.8755,7.0682,7.176,7.1705,7.2126,7.2645,7.3109,7.3187,7.3673,7.4952,7.4544,7.4842,7.6115,7.6192,7.6192,7.6192,7.6192,7.6179,7.6138,7.6097,7.6097,7.6138,7.6097,7.6076,7.6076,7.6076,7.6076,7.6076,7.6076,7.6076,7.6038,7.5576,7.4882,7.4035,7.3153,7.23,7.1439,7.1066,7.0898,7.0898,0.0,0.0,0.0,0.0,0.0,0.0,0.0,0.0,0.0,2.6967,2.8381,2.9328,2.9396,2.9402,0.0,0.0,0.0,0.0,0.0,0.0,3.1478,3.3776,3.3218,3.4011,3.652,3.6756,3.7142,3.7774,3.8727,3.9071,3.8863,3.8843,3.8826,3.8833,3.8808,3.8802,3.8802,3.8852,3.8852,3.8765,3.807,3.7376,3.6593,0.0,3.5254,3.4619,3.4285,3.6925,4.1129,4.4791,4.6797,4.8124,5.0752,5.2781,5.4658,5.7091,5.8952,6.0774,6.3212,6.4488,6.5146,6.503,6.4221,6.2558,5.9114,5.6917,5.4564,5.1043,4.907,4.789,4.761,4.8721,5.1261,5.6006,5.9891,6.4098,6.9286,7.1334,7.2782,7.3916,7.4071,7.4115,7.4231,7.4231,7.4541,7.5231,7.5223,7.5477,7.6186,7.6225,7.6225,7.6225,7.6212,7.6212,7.6225,7.6205,7.6198,7.6205,7.6198,7.6192,7.6192,7.6192,7.6192,7.6192,7.6192,7.6192,7.6192,7.6192,7.5697,7.481,7.3934,7.306,7.2206,7.126,7.0952,7.0947,0.0,0.0,0.0,0.0,0.0,0.0,0.0,0.0,0.0,0.0,2.909,2.9328,2.9396,2.9402,0.0,0.0,0.0,0.0,0.0,0.0,0.0,3.2147,3.2072,3.3208,3.5818,3.5903,3.6368,3.7251,3.7442,3.7159,3.6498,3.6387,3.5993,3.5442,3.533,3.5279,3.5285,3.5407,3.5385,3.5261,3.5241,3.5135,3.5007,3.499,0.0,0.0,3.5944,3.7765,4.0423,4.5262,4.9305,5.2652,5.4525,5.6317,5.8067,5.9919,6.1152,6.2394,6.4256,6.5378,6.5837,6.5185,6.3782,6.1718,5.8276,5.5642,5.2738,4.8601,4.6946,4.5828,4.4422,4.7178,5.0898,5.4598,5.9238,6.4159,6.9269,7.0855,7.2363,7.4612,7.4883,7.5154,7.59,7.5978,7.6016,7.6171,7.616,7.6225,7.6368,7.6368,7.6368,7.6368,7.6313,7.6313,7.6368,7.6257,7.6225,7.6282,7.6225,7.6192,7.6192,7.6192,7.6192,7.6192,7.6192,7.6192,7.6192,7.6192,7.5697,7.4816,7.3986,7.3131,7.2289,7.1383,7.1124,7.1211,0.0,0.0,0.0,0.0,0.0,0.0,0.0,2.5682,2.7654,3.0138,3.0861,3.0886,3.0097,2.9662,2.9402,0.0,0.0,0.0,0.0,0.0,0.0,3.1106,3.1589,3.2584,3.4254,3.5253,3.5699,3.558,0.0,3.5978,3.5117,3.4643,3.4233,3.3944,3.343,3.3216,3.3216,3.3263,3.3547,3.3933,3.4066,3.4365,3.4776,3.4908,0.0,0.0,3.6319,3.8218,4.0623,4.3482,4.7889,5.2681,5.5737,5.7245,5.8333,6.0499,6.1732,6.2776,6.4527,6.561,6.5915,6.4643,6.2709,5.9957,5.5625,5.2685,4.9629,4.5336,4.4101,4.3443,4.2202,4.5104,4.8662,5.1679,5.6046,6.1152,6.7191,6.9164,7.1253,7.469,7.5508,7.5933,7.6365,7.6403,7.6403,7.6403,7.6403,7.6403,7.6403,7.6403,7.6403,7.6403,7.6374,7.6368,7.6403,7.6338,7.6319,7.6356,7.6319,7.6307,7.6307,7.6307,7.6307,7.6307,7.6307,7.6307,7.6307,7.6307,7.6075,7.5573,7.4725,7.3863,7.3026,7.2192,7.1637,7.131,0.0,0.0,0.0,0.0,0.0,0.0,0.0,2.6801,2.8745,3.1757,3.2427,3.2275,3.1212,3.04,2.9773,0.0,0.0,0.0,0.0,0.0,0.0,0.0,3.1366,3.2178,3.2996,0.0,0.0,3.4185,3.5043,0.0,0.0,0.0,0.0,0.0,3.2096,3.1689,3.1502,3.1526,3.2216,0.0,0.0,3.4055,3.5019,0.0,0.0,0.0,0.0,3.798,3.9962,4.1699,4.5255,4.9742,5.4035,5.6278,5.7787,6.0151,6.1577,6.2776,6.4527,6.561,6.5799,6.4101,6.178,5.8569,5.3386,5.0097,4.696,4.286,4.1854,4.1587,4.1122,4.3366,4.6306,4.9432,5.3068,5.7985,6.518,6.7694,7.0358,7.4612,7.5856,7.6403,7.6403,7.6403,7.6403,7.6403,7.6403,7.6403,7.6403,7.6403,7.6403,7.6403,7.6403,7.6403,7.6403,7.6403,7.6403,7.6403,7.6403,7.6403,7.6403,7.6403,7.6403,7.6403,7.6403,7.6403,7.6403,7.6403,7.6403,7.632,7.5377,7.4539,7.3751,7.2953,7.212,7.1428,0.0,0.0,0.0,0.0,0.0,0.0,0.0,2.6722,2.8577,3.3253,3.2728,3.2135,3.2735,3.2067,3.0995,0.0,0.0,0.0,0.0,0.0,0.0,0.0,0.0,0.0,0.0,0.0,0.0,3.4185,3.4283,0.0,0.0,0.0,0.0,0.0,0.0,3.0326,2.9666,2.972,0.0,0.0,0.0,0.0,0.0,0.0,0.0,0.0,0.0,3.6579,3.6906,4.1583,4.3015,4.3556,4.7889,5.2952,5.7671,5.9493,6.1157,6.2776,6.4527,6.561,6.5799,6.4101,6.178,5.8569,5.3386,4.9633,4.6229,4.2705,4.1432,4.1122,4.1777,4.2783,4.51,5.0012,5.2453,5.6631,6.5025,6.7694,7.0358,7.4612,7.5856,7.6403,7.6403,7.6403,7.6403,7.6403,7.6403,7.6403,7.6403,7.6403,7.6403,7.6403,7.6403,7.6403,7.6403,7.6403,7.6403,7.6403,7.6403,7.6403,7.6403,7.6403,7.6403,7.6403,7.6403,7.6403,7.6403,7.6403,7.6403,7.6326,7.5419,7.4651,7.3885,7.3087,7.2345,7.1771,0.0,0.0,0.0,0.0,0.0,0.0,2.5443,2.64,2.836,3.273,3.329,3.3181,3.3033,3.2698,3.1663,2.9588,0.0,0.0,0.0,0.0,0.0,0.0,0.0,0.0,0.0,0.0,3.4185,3.4185,3.4185,0.0,0.0,0.0,0.0,0.0,0.0,3.014,2.9439,2.9964,0.0,0.0,0.0,0.0,0.0,0.0,0.0,0.0,0.0,0.0,3.6671,3.8218,3.9846,4.1471,4.267,4.6422,5.1138,5.4929,5.7985,6.046,6.2201,6.3637,6.4411,6.3207,6.0615,5.7129,5.2449,4.8778,4.5378,4.1973,4.1006,4.089,4.1238,4.197,4.3518,4.6609,4.8082,5.1335,5.8333,6.0804,6.4208,7.0551,7.2491,7.416,7.621,7.6403,7.6403,7.6403,7.6403,7.6403,7.6403,7.6403,7.6403,7.6403,7.6403,7.6403,7.6403,7.6403,7.6403,7.6403,7.6403,7.6403,7.6403,7.6403,7.6403,7.6403,7.6403,7.6403,7.6403,7.6403,7.6403,7.6376,7.6126,7.5173,7.398,7.382,7.2912,7.1797,0.0,0.0,0.0,0.0,0.0,2.2396,2.5301,2.6147,2.7985,3.2244,3.3209,3.3367,3.3033,3.2587,3.1626,2.9885,2.955,0.0,0.0,0.0,0.0,0.0,0.0,0.0,0.0,0.0,3.3962,3.4185,3.4445,3.4445,0.0,0.0,3.3181,3.2104,0.0,0.0,0.0,0.0,0.0,0.0,0.0,0.0,0.0,0.0,0.0,0.0,0.0,0.0,0.0,0.0,0.0,3.9575,3.9227,4.1664,4.5687,5.0867,5.4817,5.7912,5.9841,6.1621,6.2747,6.1853,5.9257,5.5814,5.1521,4.8082,4.4836,4.1471,4.0816,4.0816,4.0816,4.1277,4.228,4.4288,4.549,4.8279,5.431,5.7052,6.0804,6.7263,6.9512,7.1794,7.4972,7.5978,7.6403,7.6403,7.6403,7.6403,7.6403,7.6403,7.6403,7.6403,7.6403,7.6403,7.6403,7.6403,7.6403,7.6403,7.6403,7.6403,7.6403,7.6403,7.6403,7.6403,7.6403,7.6405,7.6466,7.6466,7.647,7.6541,7.6635,7.5623,7.4126,7.4326,7.3323,7.1857,0.0,0.0,0.0,0.0,0.0,0.0,2.5983,2.6021,2.7357,3.217,3.2246,3.2104,3.2921,3.1589,3.0623,3.0586,2.9848,0.0,0.0,0.0,0.0,0.0,0.0,0.0,0.0,0.0,3.3404,3.4185,3.5076,3.5039,3.4216,3.5076,3.4593,3.2958,0.0,0.0,0.0,0.0,0.0,0.0,0.0,0.0,3.5704,0.0,0.0,0.0,0.0,0.0,0.0,0.0,0.0,0.0,0.0,3.9956,4.3053,4.8237,5.2144,5.5393,5.795,5.9841,6.0925,6.0112,5.7946,5.4925,5.067,4.7695,4.4836,4.1471,4.0816,4.0816,4.0816,4.0816,4.1625,4.4172,4.5993,4.9165,5.5157,5.8909,6.2356,6.5837,6.7771,6.9816,7.2375,7.4928,7.6403,7.6403,7.6403,7.6403,7.6403,7.6403,7.6403,7.6403,7.6403,7.6403,7.6403,7.6403,7.6403,7.6403,7.6403,7.6403,7.6403,7.6403,7.6403,7.6403,7.6403,7.6493,7.66,7.66,7.6665,7.6799,7.6799,7.5813,7.4402,7.4403,7.3382,7.1992,0.0,0.0,0.0,0.0,0.0,0.0,0.0,2.4109,2.5873,2.9115,3.0366,3.1069,3.1329,3.092,3.0363,2.9848,2.955,0.0,0.0,0.0,0.0,0.0,0.0,0.0,0.0,3.229,3.3404,3.4185,3.5076,3.5634,3.5894,3.5634,3.4891,3.3776,3.2996,3.1886,0.0,0.0,0.0,0.0,3.5331,3.5706,3.5706,0.0,0.0,0.0,0.0,0.0,0.0,0.0,0.0,0.0,0.0,0.0,0.0,4.1896,4.7192,5.2178,5.2453,5.4194,5.5548,5.4112,5.272,5.0867,4.7738,4.5955,4.4175,4.1393,4.0816,4.0816,4.0816,4.0816,4.2012,4.5722,4.6767,4.8972,5.4426,5.8101,6.1801,6.5859,7.0943,7.4402,7.5138,7.5939,7.6403,7.6403,7.6403,7.6403,7.6403,7.6403,7.6403,7.6403,7.6403,7.6403,7.6403,7.6403,7.6403,7.6403,7.6403,7.6403,7.6403,7.6403,7.6403,7.6415,7.6491,7.655,7.6613,7.6695,7.6764,7.6732,7.626,7.5361,7.4331,7.3816,7.2967,7.1992,0.0,0.0,0.0,0.0,0.0,0.0,0.0,2.2708,2.439,2.7194,2.8513,2.9434,3.0071,3.0145,2.9959,2.9439,2.9402,0.0,0.0,0.0,0.0,0.0,0.0,0.0,3.1032,3.2029,3.3256,3.4705,3.5522,3.6191,3.6711,3.6488,3.5782,3.4668,3.3813,3.2764,0.0,0.0,0.0,0.0,3.5436,3.5317,3.4737,0.0,0.0,0.0,0.0,0.0,0.0,0.0,0.0,0.0,0.0,0.0,0.0,0.0,4.2589,4.727,4.8005,4.9861,5.1331,5.0244,4.9316,4.8121,4.5877,4.4717,4.3476,4.1277,4.0816,4.0816,4.0816,4.0816,4.1857,4.5142,4.619,4.8305,5.3208,5.7374,6.1795,6.6815,7.2061,7.521,7.5046,7.5949,7.6546,7.6459,7.6493,7.6493,7.6493,7.6411,7.6403,7.6403,7.6403,7.6403,7.6403,7.6403,7.6403,7.6403,7.6403,7.6403,7.6403,7.6403,7.6411,7.6465,7.6555,7.6642,0.0,7.6841,7.6928,7.6924,7.6455,7.5528,7.4437,7.3944,7.3047,7.1992,0.0,0.0,0.0,0.0,0.0,0.0,0.0,2.1783,2.3023,2.6196,2.677,2.7506,2.9067,2.9253,2.929,2.9216,2.9253,0.0,0.0,0.0,0.0,0.0,0.0,0.0,3.1589,3.1738,3.2964,3.5417,3.634,3.686,3.6971,3.7714,3.7231,3.5634,3.4779,3.397,0.0,0.0,0.0,0.0,3.5319,3.4698,0.0,0.0,0.0,0.0,0.0,0.0,0.0,0.0,0.0,0.0,0.0,0.0,0.0,0.0,0.0,0.0,0.0,4.65,4.785,4.7773,4.7192,4.6225,4.4675,4.3746,0.0,4.1122,4.0816,4.0852,4.1045,4.1006,4.1625,4.3595,4.5311,4.7895,5.2224,5.7367,6.2911,6.8917,7.1809,7.3241,7.3088,7.5333,7.6751,7.6635,7.6622,7.6622,7.6622,7.6491,7.6416,7.6416,7.6416,7.6438,7.6403,7.6421,7.6426,7.6426,7.6426,7.6438,7.6416,7.6438,7.6475,7.6626,7.6639,7.6774,7.6984,7.7027,7.7094,7.7187,7.707,7.6015,7.457,7.4453,7.3398,7.1992,0.0,0.0,0.0,0.0,0.0,0.0,0.0,0.0,0.0,0.0,2.607,2.706,2.7432,2.8021,2.817,0.0,0.0,0.0,0.0,0.0,0.0,0.0,0.0,0.0,2.9959,3.118,3.2704,3.4519,3.66,3.8272,3.9535,3.9721,3.8941,3.7306,3.6488,3.5462,0.0,0.0,0.0,0.0,3.5554,3.5049,0.0,0.0,0.0,0.0,3.3339,3.3847,0.0,0.0,0.0,0.0,0.0,0.0,0.0,0.0,3.6864,3.7986,3.8798,0.0,4.2438,4.1745,4.1938,4.2167,0.0,4.2009,4.2009,4.1006,4.0816,4.1393,4.3363,4.3169,4.433,4.9285,5.1026,5.3055,5.6728,6.2946,6.9052,7.4366,7.5636,7.5994,7.5878,7.6436,7.679,7.6758,7.6755,7.6755,7.6755,7.6724,7.6706,7.6706,7.6706,7.6618,7.6409,7.6496,7.6536,7.6536,7.6536,7.6618,7.6699,7.6605,7.6643,7.6761,7.6856,7.6952,7.7026,7.71,7.7186,7.707,7.5742,7.4961,7.4453,7.3086,7.2344,7.1992,0.0,0.0,0.0,0.0,0.0,0.0,0.0,0.0,0.0,0.0,2.5198,2.6205,2.7315,2.7836,0.0,0.0,0.0,0.0,0.0,0.0,0.0,0.0,0.0,2.9588,2.9959,3.118,3.2778,3.4816,3.6525,3.8383,4.039,3.9981,3.912,3.7833,3.6385,3.5425,0.0,0.0,0.0,3.5059,3.5494,0.0,0.0,0.0,0.0,0.0,3.2372,3.28,0.0,3.412,3.4703,3.5165,0.0,0.0,0.0,0.0,3.6013,3.6361,3.6361,3.8798,4.1238,4.0774,4.1316,4.1935,4.1935,4.1703,4.1316,4.089,4.0816,4.1454,4.3648,4.3975,4.5514,5.0345,5.2241,5.5142,6.0991,6.6519,7.1544,7.5887,7.6808,7.7039,7.6889,7.6956,7.6961,7.6882,7.688,7.688,7.688,7.6833,7.6802,7.6802,7.6802,7.6731,7.6587,7.6642,7.6684,7.6684,7.6684,7.6731,7.6802,7.6724,7.6768,7.6882,7.6968,7.7038,7.7097,7.7186,7.7187,7.7109,7.6172,7.5312,7.4492,7.3555,7.2695,7.1992,0.0,0.0,0.0,0.0,0.0,0.0,0.0,0.0,0.0,0.0,0.0,0.0,0.0,0.0,0.0,0.0,0.0,0.0,0.0,0.0,0.0,0.0,2.9402,2.9848,3.0772,3.144,3.3039,3.5491,3.6563,3.8198,4.039,3.9907,3.8978,3.7636,3.5728,3.4854,3.4856,3.5189,3.5037,3.4665,3.5242,0.0,0.0,0.0,0.0,0.0,0.0,0.0,0.0,3.3501,3.42,3.451,3.5126,0.0,0.0,0.0,0.0,0.0,3.6132,3.9167,4.2118,4.1706,4.2473,4.3282,4.3282,4.2222,4.1189,4.1167,4.1314,4.1998,4.3831,4.4994,4.6829,5.0325,5.2685,5.6931,6.5135,6.8942,7.2187,7.5664,7.6758,7.7146,7.704,7.7143,7.7146,7.7039,7.7037,7.7037,7.7037,7.6901,7.6856,7.6856,7.6856,7.6856,7.6856,7.6838,7.683,7.683,7.683,7.6841,7.6856,7.6838,7.6889,7.7037,7.7037,7.7096,7.7187,7.7187,7.7187,7.7187,7.7031,7.6015,7.457,7.4453,7.3398,7.1992,0.0,0.0,0.0,0.0,0.0,0.0,0.0,0.0,0.0,0.0,0.0,0.0,0.0,0.0,0.0,0.0,0.0,0.0,0.0,0.0,0.0,2.9402,2.9402,3.0108,3.1589,3.1738,3.3039,3.5491,3.7677,3.9305,4.0427,4.1653,4.0358,3.6932,3.627,3.5247,3.4117,3.5081,3.5492,3.5436,3.4855,0.0,0.0,0.0,0.0,0.0,0.0,0.0,0.0,3.2104,3.3189,3.4275,3.369,0.0,0.0,0.0,0.0,0.0,3.8147,4.1025,4.263,4.0424,4.1625,4.3282,4.3282,4.3144,4.2998,4.2925,4.3585,4.489,4.7266,4.9091,5.1329,5.4761,5.8685,6.3338,6.91,7.1015,7.3086,7.6601,7.7109,7.7187,7.7186,7.7187,7.7187,7.7186,7.7186,7.7186,7.7186,7.7145,7.7144,7.7144,7.7144,7.7144,7.7144,7.7034,7.6968,7.6968,7.6968,7.7035,7.7143,7.7033,7.704,7.7186,7.7186,7.7187,7.7187,7.7187,7.7187,7.7148,7.6406,7.5508,7.4492,7.3789,7.2851,7.1992,0.0,0.0,0.0,0.0,0.0,0.0,0.0,0.0,0.0,0.0,0.0,0.0,0.0,0.0,0.0,0.0,0.0,0.0,0.0,2.9141,2.9773,3.066,3.0288,3.0586,3.1775,3.3107,3.4779,3.6786,3.8829,4.0464,4.169,4.1161,3.9298,3.6333,3.5314,3.4518,3.399,3.4542,3.5154,3.5629,0.0,0.0,0.0,0.0,0.0,0.0,0.0,0.0,0.0,0.0,3.2645,3.3692,3.377,0.0,0.0,0.0,0.0,0.0,3.6328,3.9642,4.2432,4.1259,4.3583,4.6302,4.6773,4.6188,4.5546,4.5504,4.5876,4.6861,4.8968,5.1184,5.4412,5.9739,6.3113,6.6364,7.0156,7.1875,7.3633,7.6211,7.6914,7.7187,7.7187,7.7187,7.7187,7.7187,7.7187,7.7187,7.7187,7.7187,7.7187,7.7187,7.7187,7.7187,7.7187,7.7144,7.7099,7.7099,7.7099,7.7144,7.7187,7.7144,7.7144,7.7187,7.7187,7.7187,7.7187,7.7187,7.7187,7.7148,7.6758,7.6055,7.5156,7.3789,7.2734,7.1992,0.0,0.0,0.0,0.0,0.0,0.0,0.0,0.0,0.0,0.0,0.0,0.0,0.0,0.0,0.0,0.0,0.0,0.0,0.0,2.8728,2.9805,3.144,3.1292,3.1812,3.3181,3.4705,3.6495,3.8495,3.9979,4.1354,4.2582,4.0435,3.8122,3.5695,3.4592,3.3869,3.3509,3.4013,3.4673,3.532,0.0,0.0,0.0,0.0,0.0,0.0,0.0,0.0,0.0,0.0,0.0,0.0,0.0,0.0,0.0,3.4394,3.4275,3.4319,3.5354,3.8515,4.1781,4.2856,4.5733,4.8642,4.9896,4.9213,4.8481,4.9093,4.9387,4.9918,5.1071,5.3579,5.7455,6.3594,6.625,6.8398,7.0937,7.2617,7.4258,7.6015,7.6797,7.7187,7.7187,7.7187,7.7187,7.7187,7.7187,7.7187,7.7187,7.7187,7.7187,7.7187,7.7187,7.7187,7.7187,7.7187,7.7187,7.7187,7.7187,7.7187,7.7187,7.7187,7.7187,7.7187,7.7187,7.7187,7.7187,7.7187,7.7187,7.7187,7.7187,7.6523,7.539,7.3867,7.289,7.2265,0.0,0.0,0.0,0.0,0.0,0.0,0.0,0.0,0.0,0.0,0.0,0.0,0.0,0.0,0.0,0.0,0.0,0.0,0.0,2.817,2.8951,3.0623,3.2067,3.4296,3.738,3.6154,3.7046,4.0204,4.1215,4.1833,4.2042,4.0539,3.8092,3.4974,3.5255,3.4058,3.1977,3.3652,3.4425,3.4432,3.3535,0.0,0.0,0.0,0.0,0.0,0.0,0.0,0.0,0.0,0.0,0.0,0.0,0.0,3.4394,3.4394,3.3847,3.4097,3.8144,3.954,4.083,4.4915,4.6642,4.8047,5.0522,5.1075,5.1681,5.4058,5.5289,5.5701,5.4982,5.7612,6.1172,6.4883,6.7656,7.0195,7.2734,7.3906,7.5156,7.6914,7.7148,7.7187,7.7187,7.7187,7.7187,7.7187,7.7187,7.7187,7.7187,7.7187,7.7187,7.7187,7.7187,7.7187,7.7187,7.7187,7.7187,7.7187,7.7187,7.7187,7.7187,7.7187,7.7187,7.7187,7.7187,7.7187,7.7187,7.7187,7.7187,7.7187,7.7187,7.6172,7.457,7.3633,7.3242,7.3086,0.0,0.0,0.0,0.0,0.0,0.0,0.0,0.0,0.0,0.0,0.0,0.0,0.0,0.0,0.0,0.0,0.0,0.0,2.7315,2.7836,2.8839,3.0511,3.1663,3.3582,3.6398,3.7927,3.9768,4.2029,4.2554,4.2599,4.2205,4.0169,3.782,3.5247,3.4294,3.3382,3.2563,3.271,3.3424,3.4278,3.2877,3.2295,0.0,0.0,0.0,0.0,0.0,0.0,0.0,0.0,3.1985,3.303,3.2449,3.3267,3.4275,3.377,3.3384,3.363,3.5845,3.8844,4.1882,4.4036,4.7245,5.0531,5.315,5.4172,5.5308,5.7879,5.8708,5.9023,5.9216,6.0741,6.3164,6.664,6.8515,7.039,7.293,7.3594,7.4453,7.6172,7.6406,7.6601,7.7148,7.7187,7.7187,7.7187,7.7187,7.7187,7.7187,7.7187,7.7187,7.7187,7.7187,7.7187,7.7187,7.7187,7.7187,7.7187,7.7187,7.7187,7.7187,7.7187,7.7187,7.7187,7.7187,7.7187,7.7187,7.7187,7.7187,7.7187,7.7187,7.6133,7.4648,7.4844,7.3906,7.2617,0.0,0.0,0.0,0.0,0.0,0.0,0.0,0.0,0.0,0.0,0.0,0.0,0.0,0.0,0.0,0.0,0.0,0.0,2.654,2.7055,2.8207,3.0145,3.1027,3.2752,3.5539,3.8477,4.0634,4.1901,4.2454,4.2354,4.1693,3.9832,3.787,3.581,3.4426,3.3669,3.3458,3.2565,3.2916,3.3847,3.2375,3.1792,0.0,0.0,0.0,0.0,0.0,0.0,0.0,0.0,3.1756,3.2681,3.2645,3.3424,3.4322,3.4001,3.4139,3.4589,3.5498,3.8617,4.2054,4.3974,4.7576,5.1641,5.5625,5.6992,5.8203,6.1055,6.1406,6.1484,6.2344,6.2773,6.414,6.7617,6.8945,7.039,7.293,7.3281,7.3828,7.5312,7.5742,7.6133,7.6719,7.7031,7.7187,7.7187,7.7187,7.7187,7.7187,7.7187,7.7187,7.7187,7.7187,7.7187,7.7187,7.7187,7.7187,7.7187,7.7187,7.7187,7.7187,7.7187,7.7187,7.7187,7.7187,7.7187,7.7187,7.7187,7.7187,7.7187,7.7187,7.6289,7.5078,7.5664,7.4765,7.3359,0.0,0.0,0.0,0.0,0.0,0.0,0.0,0.0,2.2617,2.4272,2.45,0.0,0.0,0.0,0.0,0.0,0.0,0.0,2.5685,2.5685,2.68,2.9253,3.0244,3.2238,3.5488,3.7602,3.8931,3.9502,4.0628,4.087,4.0274,3.9615,3.8369,3.6674,3.6009,3.5204,3.4355,3.3458,3.3104,3.3027,3.2179,3.1792,3.1715,0.0,0.0,0.0,0.0,0.0,0.0,0.0,3.1792,3.2104,3.3811,3.4394,3.4572,3.5439,3.6297,3.7203,3.8243,3.9161,4.0888,4.5234,4.7656,5.0781,5.7656,5.9219,6.0195,6.3633,6.3633,6.3281,6.414,6.3594,6.418,6.7656,6.8945,7.039,7.293,7.3281,7.3594,7.4492,7.5351,7.5898,7.5898,7.668,7.7187,7.7187,7.7187,7.7187,7.7187,7.7187,7.7187,7.7187,7.7187,7.7187,7.7187,7.7187,7.7187,7.7187,7.7187,7.7187,7.7187,7.7187,7.7187,7.7187,7.7187,7.7187,7.7187,7.7187,7.7187,7.7187,7.7187,7.668,7.5898,7.5898,7.5898,7.5781,0.0,0.0,0.0,0.0,0.0,0.0,0.0,0.0,2.3248,2.4347,2.5503,0.0,0.0,0.0,0.0,0.0,0.0,0.0,2.5685,2.5685,2.6316,2.7727,2.9703,3.1296,3.2472,3.4399,3.7223,4.0962,4.0809,4.0312,3.9569,3.8848,3.7629,3.5973,3.5809,3.5204,3.4355,3.3458,3.3104,3.3066,3.2836,3.2024,3.0982,0.0,0.0,0.0,0.0,0.0,0.0,0.0,0.0,0.0,3.2413,3.387,3.5329,3.496,3.594,3.7336,3.8255,4.0929,4.4218,4.7344,5.1719,5.6094,5.9297,6.0508,6.1953,6.539,6.543,6.4922,6.5156,6.5508,6.6289,6.793,6.9414,7.082,7.2187,7.2383,7.2695,7.3594,7.3906,7.4297,7.4922,7.5234,7.5625,7.625,7.6289,7.6562,7.7187,7.7187,7.7187,7.7187,7.7187,7.7187,7.7187,7.7187,7.7187,7.7187,7.7187,7.7187,7.7187,7.7187,7.7187,7.7187,7.7187,7.7187,7.7187,7.7187,7.7187,7.7187,7.7187,7.668,7.5898,7.5898,7.5508,7.5039,0.0,0.0,0.0,0.0,0.0,0.0,0.0,0.0,2.3137,2.4347,2.535,2.5573,0.0,0.0,0.0,2.528,2.5206,0.0,2.5206,2.5237,2.5807,2.7068,2.8617,3.0251,3.1895,3.3684,3.5968,3.8723,3.8603,3.8299,3.7884,3.8108,3.7674,3.6709,3.706,3.6519,3.532,3.4118,3.3419,3.3066,3.272,3.2179,3.1601,0.0,0.0,0.0,0.0,0.0,0.0,0.0,0.0,0.0,3.1715,3.2917,3.4357,3.4857,3.6298,3.8144,4.0068,4.3006,4.6406,5.0039,5.418,5.8281,6.1679,6.2851,6.3945,6.6406,6.6211,6.5703,6.6055,6.6562,6.7305,6.8476,6.9805,7.1015,7.1875,7.1992,7.2187,7.2734,7.3086,7.3515,7.4023,7.4414,7.4805,7.5351,7.539,7.5742,7.664,7.668,7.6836,7.7187,7.7187,7.7187,7.7187,7.6875,7.668,7.668,7.6328,7.6172,7.6172,7.6875,7.7187,7.7187,7.7187,7.6992,7.668,7.668,7.6484,7.6211,7.6562,7.6367,7.5898,7.5898,7.5586,7.5156,0.0,0.0,1.9679,1.9605,0.0,0.0,0.0,2.213,2.2769,2.4314,2.4648,2.4648,0.0,0.0,0.0,2.45,2.45,2.4504,2.4512,2.4584,2.539,2.7191,2.7801,2.9691,3.3029,3.4539,3.4967,3.4275,3.5026,3.5492,3.5745,3.7326,3.8138,3.8215,3.8956,3.8337,3.6671,3.4894,3.3692,3.2914,3.2217,3.2295,3.2798,3.2063,0.0,0.0,0.0,0.0,0.0,0.0,0.0,0.0,3.1533,3.1913,3.2504,3.4955,3.703,3.9284,4.2734,4.5078,4.7812,5.3047,5.5898,5.8867,6.4451,6.5702,6.5937,6.6758,6.6289,6.5976,6.6758,6.6953,6.7539,6.914,7.0156,7.1015,7.1875,7.1992,7.1992,7.1992,7.2695,7.3164,7.3164,7.3906,7.4414,7.4492,7.4492,7.4844,7.5742,7.5781,7.6133,7.6953,7.6953,7.6953,7.6953,7.6172,7.5781,7.5781,7.4961,7.4609,7.4648,7.625,7.6953,7.6953,7.6953,7.6523,7.5781,7.5781,7.5312,7.4687,7.5469,7.5781,7.5781,7.5703,7.5703,7.5664,0.0,0.0,2.0348,1.9716,0.0,0.0,2.1866,2.3108,2.4086,2.4462,2.561,2.5908,2.4648,2.5057,0.0,2.4574,2.45,2.453,2.4593,2.4576,2.5767,2.8317,3.1221,3.3134,3.3936,3.374,3.3553,3.3378,3.4212,3.4988,3.5706,3.6709,3.7558,3.8176,3.7677,3.6903,3.5781,3.338,3.2259,3.2101,3.2604,3.214,3.1176,3.164,3.0982,0.0,0.0,0.0,0.0,0.0,0.0,0.0,3.1611,3.2394,3.3243,3.449,3.6629,3.9335,4.2773,4.5976,4.9726,5.5586,6.039,6.4177,6.6165,6.6633,6.6674,6.6873,6.6757,6.668,6.6875,6.7461,6.8242,6.9297,7.0156,7.1015,7.1875,7.1992,7.1992,7.1992,7.2187,7.2265,7.2265,7.2461,7.2851,7.3515,7.3594,7.3945,7.4844,7.4883,7.4961,7.5156,7.5156,7.5156,7.5156,7.4961,7.4883,7.4883,7.4687,7.4609,7.4609,7.5,7.5156,7.5156,7.5156,7.5039,7.4883,7.4883,7.4765,7.4609,7.4805,7.4883,7.4805,7.4101,7.4297,7.4765,0.0,0.0,0.0,0.0,0.0,0.0,0.0,0.0,2.45,2.45,2.5243,2.5424,2.4574,2.4871,0.0,0.0,2.4559,2.4597,2.4637,2.4738,2.5846,2.8252,3.1349,3.2656,3.1877,3.1885,3.1717,3.1292,3.1722,3.3231,3.5745,3.737,3.8608,3.9417,3.8953,3.7641,3.5552,3.3342,3.1947,3.1253,3.1717,3.1601,3.1176,3.1214,3.0404,2.9246,2.8823,0.0,0.0,0.0,0.0,0.0,0.0,0.0,3.2893,3.3764,3.5619,3.8281,4.2539,4.625,5.0625,5.7929,6.2381,6.5308,6.6588,6.6861,6.6903,6.6865,6.687,6.6912,6.6913,6.7616,6.8359,6.8789,6.9883,7.0859,7.1328,7.1758,7.1992,7.1992,7.1992,7.1992,7.1992,7.1992,7.2187,7.2656,7.2695,7.3047,7.3945,7.3984,7.418,7.4609,7.4609,7.4609,7.4609,7.418,7.3984,7.3984,7.3555,7.3359,7.3398,7.4219,7.4609,7.4609,7.4609,7.4375,7.3984,7.3984,7.3711,7.3398,7.3828,7.3984,7.3906,7.3476,7.3594,7.3867,0.0,0.0,0.0,0.0,0.0,0.0,0.0,0.0,0.0,2.4537,2.4611,2.4648,2.4537,2.4512,2.4551,0.0,0.0,0.0,2.4753,2.5229,2.6282,2.8053,3.0417,3.1107,2.9747,3.0288,3.0327,2.9749,2.9749,3.1993,3.6403,3.8224,3.9849,4.12,4.0619,3.8608,3.5552,3.338,3.1562,3.0133,3.0133,3.0559,3.1059,3.0404,2.9592,2.8741,2.8047,2.824,2.8939,2.9386,0.0,0.0,0.0,0.0,3.2248,3.2994,3.4411,3.6797,4.1523,4.6211,5.164,5.9528,6.3004,6.4876,6.6267,6.6738,6.6858,6.6811,6.6859,6.6907,6.6911,6.7498,6.8007,6.8164,6.9375,7.0312,7.0469,7.1094,7.1601,7.1758,7.1797,7.1836,7.1992,7.1992,7.1992,7.1992,7.1992,7.2305,7.3047,7.3086,7.3398,7.414,7.414,7.414,7.414,7.3437,7.3086,7.3086,7.2344,7.1992,7.2031,7.3476,7.414,7.414,7.414,7.375,7.3086,7.3086,7.2656,7.207,7.2773,7.3086,7.3086,7.3086,7.3086,7.2969,0.0,0.0,0.0,0.0,0.0,0.0,0.0,0.0,0.0,0.0,2.5094,2.5276,2.4574,2.4563,2.4576,2.4584,2.4716,2.4843,2.4953,0.0,0.0,2.8985,3.0781,3.1705,3.1485,3.0907,3.0868,3.1485,3.1485,3.404,3.8959,3.7793,3.9301,4.286,3.9878,3.7483,3.5436,3.149,2.9246,2.8358,2.8358,2.8397,2.8513,2.8397,2.7813,2.7033,2.6919,2.6957,2.7397,2.9739,3.0665,0.0,0.0,0.0,3.2133,3.2303,3.3555,3.5508,3.8476,4.6133,5.4492,5.9368,6.3038,6.5494,6.5709,6.6291,6.6801,6.6799,6.686,6.6911,6.6911,6.6991,6.7304,6.8086,6.8398,6.8789,6.9492,6.9726,7.0078,7.0781,7.0859,7.1172,7.1914,7.1992,7.1992,7.1992,7.1992,7.2031,7.2187,7.2187,7.2226,7.2344,7.2344,7.2344,7.2344,7.2226,7.2187,7.2187,7.207,7.1992,7.1992,7.2226,7.2344,7.2344,7.2344,7.2265,7.2187,7.2187,7.2109,7.1992,7.2148,7.2187,7.2187,7.2187,7.2187,7.2148,0.0,0.0,0.0,0.0,0.0,0.0,0.0,0.0,0.0,0.0,0.0,2.494,2.4605,2.4604,2.47,2.4816,2.4864,2.499,2.5163,2.6426,2.7342,2.7764,2.8996,2.9435,2.8966,2.8582,2.8816,2.9669,2.9162,3.257,3.9462,3.8727,4.089,4.5297,4.1854,3.9417,3.7528,3.2725,2.994,2.8627,2.7658,2.8716,3.0635,2.8194,2.8253,2.9354,2.6912,2.6328,2.6992,2.8668,3.0249,3.1392,3.0833,0.0,0.0,0.0,3.1953,3.4609,4.0586,4.6914,5.3125,5.8352,6.12,6.3189,6.516,6.5858,6.6249,6.6718,6.6856,6.6907,6.6907,6.6911,6.7031,6.7422,6.789,6.832,6.8672,6.918,6.9609,6.9922,6.9961,7.0312,7.1172,7.1289,7.1484,7.1953,7.1992,7.1992,7.1992,7.1992,7.1992,7.1992,7.1992,7.1992,7.1992,7.1992,7.1992,7.1992,7.1992,7.1992,7.1992,7.1992,7.1992,7.1992,7.1992,7.1992,7.1992,7.1992,7.1992,7.1992,7.1992,7.1992,7.1992,7.1992,7.1992,7.207,0.0,0.0,0.0,0.0,0.0,0.0,0.0,0.0,0.0,0.0,0.0,2.4668,2.4668,0.0,0.0,0.0,2.5072,2.5149,2.5333,2.5961,2.6444,2.6683,2.7308,2.7387,2.6723,2.6685,2.7035,2.766,2.723,3.1294,3.9501,3.9501,4.2554,4.7927,4.4717,4.1896,3.923,3.493,3.2145,3.0489,2.9209,3.0641,3.3268,3.089,3.1503,3.3184,2.9459,2.8405,2.8867,2.9312,3.0612,3.1897,3.0574,3.0973,0.0,0.0,0.0,3.3281,4.1211,4.5742,4.9609,5.5383,5.831,6.0572,6.3599,6.4609,6.5234,6.6289,6.654,6.663,6.6864,6.6908,6.6912,6.6914,6.7461,6.7851,6.7851,6.8437,6.8906,6.9062,6.9101,6.9453,7.0312,7.039,7.0664,7.1328,7.1562,7.168,7.168,7.1875,7.1992,7.1992,7.1992,7.1992,7.1992,7.1992,7.1992,7.1992,7.1992,7.1992,7.1992,7.1992,7.1992,7.1992,7.1992,7.1992,7.1992,7.1992,7.1992,7.1992,7.1992,7.1992,7.1992,7.1992,7.1992,7.2109,0.0,0.0,0.0,0.0,0.0,0.0,0.0,0.0,0.0,0.0,0.0,2.4798,2.4798,2.4956,2.5094,2.5103,2.5191,2.5335,2.548,2.5522,0.0,0.0,2.6723,0.0,2.6685,2.6685,2.6723,2.6762,2.7542,3.1918,3.9501,3.9501,4.3521,5.0593,4.8005,4.4101,3.9385,3.7444,3.5665,3.4136,3.4117,3.4241,3.4761,3.7866,3.8665,3.7924,3.6044,3.4871,3.4095,3.3377,3.2681,3.2099,3.2069,3.1562,3.0625,0.0,0.0,0.0,3.7266,4.082,4.4062,4.9251,5.4325,5.8502,6.0281,6.1954,6.3633,6.5312,6.5682,6.5928,6.6747,6.6908,6.6912,6.6914,6.6952,6.6952,6.6953,6.6992,6.7344,6.8164,6.8242,6.8594,6.9492,6.957,6.957,6.9648,7.0351,7.0781,7.0781,7.1562,7.1992,7.1992,7.1992,7.1992,7.1992,7.1992,7.1992,7.1992,7.1992,7.1992,7.1992,7.1992,7.1992,7.1992,7.1992,7.1992,7.1992,7.1992,7.1992,7.1992,7.1992,7.1992,7.1992,7.1992,7.1992,7.2109,0.0,0.0,0.0,0.0,0.0,0.0,0.0,0.0,0.0,0.0,0.0,0.0,0.0,2.5109,2.5187,2.5206,2.5333,2.5466,2.5488,2.549,0.0,0.0,2.6414,2.6453,2.5952,2.6453,2.6685,2.6685,2.6495,3.0058,3.706,3.8141,4.0732,4.4446,4.5181,4.4485,4.2512,3.8566,3.6555,3.5952,3.5516,3.7345,4.0228,3.9284,4.079,4.2989,3.9574,3.782,3.7051,3.6784,3.5385,3.3475,3.1875,3.0781,2.9844,2.8633,2.9726,3.2109,3.5898,3.8828,4.1914,4.652,5.0735,5.448,5.732,6.0123,6.25,6.3672,6.4394,6.5028,6.5882,6.6516,6.6912,6.6914,6.6913,6.6912,6.6914,6.6914,6.7031,6.7344,6.7383,6.7695,6.8594,6.8672,6.8867,6.9414,6.9687,7.0117,7.0664,7.1015,7.1406,7.1992,7.1992,7.1992,7.1992,7.1992,7.1992,7.1992,7.1992,7.1992,7.1992,7.1992,7.1992,7.1992,7.1992,7.1992,7.1992,7.1992,7.1992,7.1992,7.1992,7.1992,7.207,7.2617,7.2812,7.3047,0.0,0.0,0.0,2.4635,0.0,2.4723,2.4877,2.4904,2.4936,2.5059,0.0,0.0,0.0,0.0,2.5604,2.5384,2.5466,2.549,2.549,2.549,0.0,0.0,2.6261,2.6453,2.5913,2.6996,2.7305,2.6685,2.6766,2.9399,3.4427,3.6129,3.8295,4.0852,4.1661,4.2818,4.3978,4.0807,3.9337,3.9048,3.9196,4.1149,4.3993,4.4114,4.5928,4.8003,4.5105,4.3349,4.2261,4.1089,3.9178,3.6758,3.3594,3.082,2.8672,2.8398,2.9726,3.1836,3.4101,3.6601,3.9609,4.3904,4.691,5.003,5.4669,5.7473,5.9692,6.172,6.2832,6.3779,6.4945,6.5656,6.6209,6.6796,6.6912,6.6911,6.6914,6.6914,6.6914,6.6914,6.6914,6.7148,6.7695,6.7773,6.8008,6.8515,6.8828,6.9258,6.9844,7.039,7.1094,7.1953,7.1992,7.1992,7.1992,7.1992,7.1992,7.1992,7.1992,7.1992,7.1992,7.1992,7.1992,7.1992,7.1992,7.1992,7.1992,7.1992,7.1992,7.1992,7.1992,7.1992,7.207,7.2656,7.3047,7.3515,2.4617,2.4671,2.4702,2.4867,2.4898,2.496,2.5133,2.5194,2.5214,2.5269,0.0,0.0,0.0,0.0,0.0,2.5722,2.5644,2.5606,2.5528,2.5528,2.549,2.549,2.6339,2.6762,2.6685,2.8431,2.847,2.6685,2.8393,3.0056,3.1715,3.3463,3.6522,4.0426,3.8025,3.9221,4.3166,4.3978,4.3978,4.3544,4.5274,4.5616,4.5829,5.2613,5.4219,5.2851,5.2851,5.1797,4.9844,4.6406,4.4023,4.1758,3.7344,3.1875,2.7305,2.8164,2.9023,3.0078,0.0,0.0,0.0,4.1171,4.2927,4.5386,5.2172,5.377,5.5055,5.9341,6.0919,6.2062,6.3857,6.4213,6.4802,6.652,6.683,6.6869,6.6914,6.6914,6.6914,6.6914,6.6914,6.6914,6.6914,6.6914,6.6914,6.6914,6.7695,6.8164,6.8203,6.9805,7.1094,7.1953,7.1992,7.1992,7.1992,7.1992,7.1992,7.1992,7.1992,7.1992,7.1992,7.1992,7.1992,7.1992,7.1992,7.1992,7.1992,7.1992,7.1992,7.1992,7.1992,7.1992,7.1992,7.2031,7.2578,7.3476,2.5669,2.6197,2.6681,2.679,2.6823,2.6876,2.7099,2.7118,2.7144,0.0,0.0,0.0,2.7675,2.8732,2.9435,2.9205,2.8625,2.7696,2.6455,2.5836,2.549,2.549,2.7464,2.8004,2.6723,2.9048,2.9087,2.6685,2.7189,2.7965,2.9091,3.0832,3.2609,3.4386,3.6784,3.8138,3.8641,3.8295,4.0848,4.5018,4.3827,4.6544,5.139,5.218,5.4141,5.6445,5.6445,5.5742,5.4492,5.2266,4.8711,4.4023,3.7226,3.2656,3.0,3.0859,3.1719,3.2461,3.293,0.0,0.0,0.0,0.0,0.0,4.5815,4.8506,5.1352,5.5016,5.6469,5.7958,6.0921,6.1981,6.2767,6.3903,6.5152,6.6169,6.6797,6.6914,6.6914,6.6914,6.6914,6.6914,6.6914,6.6914,6.6914,6.6914,6.7109,6.7539,6.8164,6.9805,7.1094,7.1953,7.1992,7.1992,7.1992,7.1992,7.1992,7.1992,7.1992,7.1992,7.1992,7.1992,7.1992,7.1992,7.1992,7.1992,7.1992,7.1992,7.1992,7.1992,7.1992,7.1992,7.207,7.2695,7.3476,7.4375,2.6709,2.7124,2.7639,2.8189,2.8254,2.8448,2.8939,2.8724,2.8623,0.0,0.0,0.0,2.9592,3.1758,3.2648,3.1214,3.0327,2.9244,2.7888,2.6648,2.5836,2.5528,2.7583,2.8279,2.7269,2.9783,2.9822,2.723,2.7617,2.7501,2.7002,2.8352,2.9435,3.0327,3.2486,3.4168,3.526,3.4102,3.7548,4.3853,4.5017,4.7966,5.1932,5.3902,5.6015,5.8008,5.8672,5.8398,5.7461,5.6094,5.1719,4.5781,3.9805,3.6172,3.3945,3.2969,3.4336,3.5859,3.4766,3.6133,3.7969,3.8516,0.0,0.0,4.3982,4.6089,4.8351,5.2134,5.3895,5.5576,5.8306,5.9522,6.0503,6.1716,6.3084,6.453,6.6133,6.668,6.6914,6.6914,6.6914,6.6914,6.6914,6.6914,6.6914,6.6914,6.6914,6.7265,6.8164,6.914,7.0039,7.0898,7.1289,7.1445,7.1445,7.1836,7.1992,7.1992,7.1992,7.1992,7.1992,7.1992,7.1992,7.1992,7.1992,7.1992,7.1992,7.1992,7.1992,7.1992,7.1992,7.1992,7.207,7.2578,7.3555,7.4687,0.0,2.7991,2.8461,2.9712,2.9849,3.0104,3.113,3.0636,3.0407,0.0,3.1333,3.191,3.3107,3.5778,3.6242,3.3187,3.1835,3.0752,2.9788,2.7847,2.6414,2.5799,2.7312,2.8126,2.8126,3.0559,3.0595,2.8126,2.8937,2.8083,2.5799,2.6416,2.7118,2.7833,2.7237,2.9172,3.2873,3.1853,3.5196,4.1654,4.7047,4.9363,5.0333,5.6561,5.8672,5.8515,6.0,6.0078,5.9336,5.8242,5.3672,4.7812,4.4258,4.1484,3.8945,3.5547,3.7344,0.0,3.75,3.8047,0.0,4.1875,4.0273,0.0,4.4569,4.5272,4.5973,4.9875,5.1906,5.3586,5.5539,5.6676,5.7811,5.9296,6.0664,6.2461,6.5078,6.6133,6.6601,6.6601,6.6719,6.6758,6.6758,6.6836,6.6914,6.6914,6.6914,6.7265,6.8164,6.8203,6.8555,6.9375,7.0156,7.0586,7.0703,7.1484,7.1914,7.1992,7.1992,7.1992,7.1992,7.1992,7.1992,7.1992,7.1992,7.1992,7.1992,7.1992,7.1992,7.1992,7.1992,7.1992,7.1992,7.1992,7.3086,7.4609,2.9692,3.0408,3.163,3.4008,3.3831,3.3911,3.543,3.5549,3.524,3.4778,3.5897,3.8099,4.1696,4.1464,4.0732,4.0075,3.6748,3.404,3.2449,2.8812,2.6957,2.7507,2.8511,2.9053,2.9053,3.0866,3.0905,2.9053,2.9207,2.8704,2.7507,2.6957,2.6837,2.705,2.761,2.9087,3.1393,3.4517,3.8641,4.3164,4.4354,4.8924,5.5169,5.6562,5.871,6.1015,6.1328,6.1367,6.0859,5.8633,5.6055,5.3086,4.8945,4.6797,4.5312,4.25,4.2773,4.375,4.2539,4.2969,4.3516,4.2617,4.2969,0.0,4.2383,4.3125,4.4374,4.5934,4.652,4.7692,5.0817,5.2653,5.3827,5.414,5.7812,6.1562,6.418,6.4687,6.4805,6.4805,6.543,6.5859,6.5859,6.6484,6.6914,6.6914,6.6914,6.7265,6.8164,6.8203,6.8555,6.9375,6.957,7.0,7.0703,7.0859,7.1328,7.1992,7.1992,7.1992,7.1992,7.1992,7.1992,7.1992,7.1992,7.1992,7.1992,7.1992,7.1992,7.1992,7.1992,7.1992,7.1992,7.1992,7.3086,7.4609,3.0986,3.1813,3.3101,3.5311,3.5358,3.5745,3.7873,3.7831,3.8022,3.9301,4.1699,4.3282,4.3282,4.4059,4.3866,4.2164,3.8914,3.6207,3.4502,3.0789,2.847,2.801,2.882,2.9517,2.9942,3.0752,3.0791,2.9942,2.9091,2.8223,2.7408,2.6948,2.7469,2.8788,2.9237,3.1132,3.4077,3.6274,3.9446,4.3317,4.671,5.1474,5.6751,5.8476,6.0195,6.1719,6.1719,6.1719,6.125,5.8242,5.668,5.5273,5.1367,5.043,5.0117,4.6641,4.7148,4.8281,4.5703,4.5625,4.6172,4.5742,4.4648,0.0,0.0,4.3086,4.3555,4.5273,4.5663,4.6443,4.9021,5.0545,5.1561,5.1992,5.5664,5.8945,6.0273,6.2305,6.3476,6.3047,6.3789,6.4297,6.4297,6.5469,6.6445,6.6875,6.6914,6.7109,6.7539,6.7539,6.7734,6.8125,6.8555,6.9023,6.9453,7.0273,7.0937,7.1367,7.1797,7.1992,7.1992,7.1992,7.1992,7.1992,7.1992,7.1992,7.1992,7.1992,7.1992,7.1992,7.1992,7.1992,7.1992,7.1992,7.2812,7.4023,3.2246,3.2877,3.3999,3.6055,3.6441,3.7215,3.9617,3.9688,4.0613,4.3862,4.696,4.7675,4.4589,4.6561,4.7117,4.473,4.1429,3.8895,3.7515,3.3754,3.1026,2.9751,2.9594,3.0097,3.1294,3.0868,3.0598,3.0598,2.9031,2.7947,2.7303,2.7133,2.8477,3.0951,3.1046,3.3513,3.7734,3.7926,4.0502,4.4881,5.0583,5.3864,5.5781,5.9531,6.0976,6.1015,6.1523,6.1719,6.125,5.832,5.7344,5.6758,5.3437,5.3594,5.418,5.0039,5.1016,5.2617,4.8828,4.8437,4.9062,4.8945,4.6601,4.4414,0.0,0.0,0.0,4.4961,4.5429,4.6014,4.7616,4.8554,4.9413,5.0272,5.332,5.5508,5.5156,5.8515,6.0937,6.0742,6.1758,6.25,6.25,6.3789,6.5117,6.6328,6.6094,6.6133,6.6601,6.6797,6.6914,6.6914,6.7578,6.8047,6.8203,6.9687,7.0547,7.0703,7.1562,7.1992,7.1992,7.1992,7.1992,7.1992,7.1992,7.1992,7.1992,7.1992,7.1992,7.1992,7.1992,7.1992,7.1992,7.1992,7.2539,7.3437,3.3963,3.4198,3.5284,3.8495,3.9075,3.9655,4.1432,4.2934,4.4829,4.7463,4.9432,5.1023,5.2175,5.1933,5.2183,5.3439,4.7713,4.3944,4.3671,3.8376,3.5405,3.5867,3.2416,3.1567,3.393,3.1761,3.0598,3.0598,2.9703,2.9195,2.9087,2.8373,2.9448,3.1944,3.1948,3.4805,3.9642,4.0344,4.4875,5.1672,5.3237,5.2654,5.1483,5.6441,5.8318,5.8633,6.0898,6.1719,6.1523,6.0351,5.9961,5.9492,5.6836,5.7226,5.789,5.4336,5.4648,5.5703,5.3672,5.375,5.3555,4.9844,5.0234,4.9961,4.4062,0.0,4.4141,4.2187,0.0,4.3125,4.4101,0.0,0.0,4.6758,4.9766,5.1484,4.9961,5.2148,5.4687,5.6914,5.9258,6.0703,6.0703,6.0859,6.1992,6.4414,6.3164,6.3281,6.5625,6.6484,6.6914,6.6914,6.6992,6.7422,6.8203,6.9101,6.9922,7.0703,7.1562,7.1992,7.1992,7.1992,7.1992,7.1992,7.1992,7.1992,7.1992,7.1992,7.1992,7.1992,7.1992,7.1992,7.1992,7.1992,7.2539,7.3437,3.3651,3.4466,3.5745,3.7679,3.8411,3.9495,4.1661,4.5993,4.9397,5.0446,5.2492,5.396,5.4252,5.3515,5.3323,5.4117,5.0659,4.7609,4.5591,4.2171,3.9453,3.7797,3.5979,3.5076,3.5201,3.3672,3.2388,3.1394,3.0053,2.9418,2.9447,2.9619,3.1634,3.5194,3.6677,4.0501,4.5806,4.5646,4.7756,5.1275,5.213,5.186,5.1553,5.7765,6.0423,6.1051,6.2652,6.3199,6.2926,6.1014,6.0389,6.0116,5.8594,5.8242,5.8164,5.668,5.6406,5.6211,5.4453,5.4648,5.4492,5.1172,5.043,4.9336,4.4922,4.3672,4.332,4.2773,0.0,0.0,0.0,0.0,0.0,0.0,4.8008,4.9336,4.7617,4.9609,5.2031,5.4101,5.4844,5.6172,5.8711,5.8945,6.0039,6.2617,6.164,6.2109,6.4726,6.5664,6.6367,6.6875,6.6914,6.707,6.7422,6.8281,6.914,7.0,7.0859,7.1523,7.1992,7.1992,7.1992,7.1992,7.1992,7.1992,7.1992,7.1992,7.1992,7.1992,7.1992,7.1992,7.1992,7.1992,7.2226,7.2656,3.3883,3.4814,3.6013,3.7055,3.7983,3.9649,4.2899,4.7815,5.1413,5.2109,5.4253,5.5858,5.6238,5.5521,5.5422,5.6441,5.4342,5.1765,4.9066,4.6376,4.398,4.1903,3.9764,3.8504,3.8265,3.6038,3.4243,3.3042,3.0863,3.0059,3.0582,3.074,3.328,3.7757,4.0335,4.4669,5.0096,4.9934,5.0911,5.2633,5.3252,5.4072,5.5407,5.9714,6.2177,6.3427,6.4051,6.4286,6.3974,6.183,6.1128,6.0933,5.9843,5.9257,5.8867,5.8398,5.7969,5.7265,5.5547,5.5703,5.5469,5.1641,4.9961,4.832,4.4766,4.3711,4.3516,4.3672,4.4648,0.0,0.0,0.0,4.5625,4.5391,0.0,4.7656,4.6172,4.7383,4.9141,5.1055,5.1562,5.3203,5.6836,5.6523,5.7383,6.043,5.9414,6.0078,6.3398,6.4648,6.5625,6.6523,6.6797,6.6914,6.6914,6.7773,6.8633,6.9492,7.0312,7.1172,7.1992,7.1992,7.1992,7.1992,7.1992,7.1992,7.1992,7.1992,7.1992,7.1992,7.1992,7.1992,7.1992,7.1992,7.1992,7.2109,3.5474,3.5668,3.6207,3.7867,3.8879,4.1164,4.6151,4.785,4.9397,5.1877,5.3809,5.6233,5.9648,5.9324,6.0224,6.3648,6.0049,5.7172,5.6211,5.1445,4.9254,5.0703,4.3635,4.1176,4.4455,3.8757,3.5713,3.5675,3.2372,3.1637,3.324,3.1639,3.3624,3.8656,4.1233,4.5251,5.0203,5.1883,5.5006,5.8791,5.883,6.0861,6.3636,6.1311,6.202,6.4247,6.4286,6.4286,6.4169,6.3231,6.2919,6.2607,6.0894,6.0935,6.1248,5.9648,5.9687,5.9922,5.8242,5.8398,5.7461,5.0664,4.957,4.8594,4.2656,4.3828,4.5703,4.4023,4.707,4.9492,4.7812,4.7539,4.7226,0.0,4.6328,0.0,0.0,4.4375,4.4883,4.7461,5.0664,5.3398,5.5195,5.3086,5.3398,5.7695,5.5664,5.6406,6.1523,6.3398,6.4726,6.5625,6.6445,6.6914,6.6914,6.7773,6.8594,6.9414,7.0273,7.1172,7.1992,7.1992,7.1992,7.1992,7.1992,7.1992,7.1992,7.1992,7.1992,7.1992,7.1992,7.1992,7.1992,7.1992,7.1992,7.2109,3.8282,3.833,3.833,3.8208,3.9417,4.209,4.7192,5.0642,5.3634,5.6168,5.807,6.0107,6.2465,6.2478,6.2826,6.4062,6.2811,6.0898,5.832,5.6523,5.4765,5.3077,4.9895,4.7404,4.582,4.3162,4.0154,3.6795,3.5661,3.5112,3.511,3.5147,3.6978,4.037,4.2946,4.7316,5.2779,5.3913,5.6216,5.9181,6.0353,6.2578,6.5079,6.4186,6.4385,6.5245,6.5753,6.5948,6.591,6.5603,6.4785,6.3849,6.3857,6.2455,6.0857,6.0858,6.0273,5.9609,5.957,6.0195,5.9765,5.5156,5.293,5.0586,4.5703,4.5469,4.582,4.4062,4.7187,4.9687,4.793,4.7617,4.7305,0.0,0.0,4.5586,0.0,4.3047,4.3398,4.4844,4.8594,5.0586,4.9453,5.0586,5.2266,5.4297,5.418,5.6015,6.0586,6.25,6.4101,6.5547,6.6445,6.6914,6.6914,6.7187,6.7773,6.8633,6.9492,7.0351,7.1172,7.1758,7.1992,7.1992,7.1992,7.1992,7.1992,7.1992,7.1992,7.1992,7.1992,7.1992,7.1992,7.1992,7.1992,7.2109,4.0505,4.0591,4.0407,3.9778,4.1828,4.4989,4.9221,5.3278,5.6877,5.9764,6.1437,6.3277,6.5632,6.5641,6.5618,6.5936,6.57,6.4215,6.1089,6.0581,5.9293,5.6795,5.4921,5.2851,5.0448,4.8002,4.4682,4.0483,3.9278,3.8223,3.7359,3.7325,3.8809,4.1655,4.3957,4.8173,5.3639,5.5436,5.7855,6.0626,6.2383,6.4258,6.6014,6.6014,6.6014,6.6092,6.6601,6.6796,6.6798,6.6805,6.6064,6.5245,6.5529,6.4051,6.2297,6.2533,6.1872,6.1054,6.1289,6.1719,6.1328,5.793,5.5781,5.3359,4.875,4.8633,4.8906,4.6875,4.918,5.1406,5.0898,4.9531,4.8359,0.0,0.0,4.5391,0.0,4.2656,4.2851,4.2812,4.6094,4.8047,4.7305,4.8398,5.0117,5.2539,5.2656,5.4648,5.9258,6.1445,6.3359,6.5078,6.6289,6.6914,6.6914,6.6914,6.7344,6.8203,6.8789,6.9609,7.0703,7.1289,7.1719,7.1992,7.1992,7.1992,7.1992,7.1992,7.1992,7.1992,7.1992,7.1992,7.1992,7.1992,7.2187,7.2539,4.2247,4.2523,4.2677,4.2742,4.5986,4.9508,5.2287,5.5502,5.8903,6.2371,6.3762,6.5696,6.9062,6.8786,6.8658,6.9454,6.8786,6.7224,6.4727,6.3789,6.2891,6.1914,5.8752,5.727,5.7855,5.2935,4.9071,4.6418,4.2982,4.0835,3.9897,3.8297,3.9312,4.2551,4.4308,4.7939,5.2976,5.6334,5.9846,6.3282,6.4999,6.6131,6.6796,6.6796,6.6796,6.6796,6.6796,6.6796,6.6796,6.6796,6.6796,6.668,6.5909,6.5639,6.5446,6.4595,6.4329,6.4137,6.3356,6.3124,6.2344,5.9101,5.8164,5.6719,5.1758,5.3164,5.4765,5.2148,5.3047,5.4765,5.6211,5.3125,5.0312,0.0,0.0,0.0,4.2891,4.3242,4.3164,4.1562,4.3437,4.582,4.8281,4.6484,4.7226,5.207,5.1055,5.2422,5.7578,6.0156,6.2344,6.418,6.5976,6.6914,6.6914,6.6914,6.7305,6.8125,6.8203,6.9101,7.0625,7.0703,7.1211,7.1992,7.1992,7.1992,7.1992,7.1992,7.1992,7.1992,7.1992,7.2031,7.207,7.207,7.2578,7.332,4.5076,4.7305,4.9023,4.9061,4.8813,5.0133,5.4631,5.7205,6.0111,6.4174,6.7224,6.9592,7.1148,7.169,7.1801,7.1364,7.1128,7.0152,6.8202,6.7889,6.6795,6.4686,6.3125,6.1213,5.883,5.5591,5.2078,4.8174,4.5363,4.3215,4.1731,4.1302,4.1888,4.3451,4.5207,4.8837,5.3795,5.5981,6.0002,6.5038,6.6053,6.6601,6.6796,6.6796,6.6796,6.6796,6.6796,6.6796,6.6796,6.6796,6.6796,6.6757,6.6565,6.6063,6.5561,6.533,6.483,6.4406,6.4801,6.492,6.4725,6.3828,6.168,5.9258,5.7344,5.7578,5.7461,5.4844,5.668,5.793,5.5156,5.3789,5.2187,4.9648,4.7578,4.5859,4.4531,4.4531,4.4492,4.4062,4.3476,4.3086,4.3164,4.6055,4.8164,4.8867,4.9726,5.2187,5.668,5.8164,6.0234,6.3242,6.5664,6.6914,6.6914,6.6914,6.6992,6.7265,6.8515,6.9336,6.9765,7.1094,7.1797,7.1992,7.1992,7.1992,7.1992,7.1992,7.1992,7.1992,7.1992,7.2383,7.2969,7.2969,7.3125,7.3476,4.7691,5.1315,5.4198,5.4194,5.4255,5.5428,5.8748,6.0429,6.2729,6.6634,6.9545,7.1441,7.1948,7.3432,7.4056,7.3158,7.308,7.2378,7.066,7.1206,7.0309,6.7381,6.7146,6.5468,6.2031,5.9417,5.5786,5.1063,4.8096,4.5402,4.2942,4.2201,4.2514,4.3763,4.5129,4.8603,5.3678,5.7699,6.1993,6.617,6.6601,6.7031,0.0,6.6952,6.6562,6.6288,6.6288,6.6484,6.6796,6.6796,6.6796,6.6796,6.6796,6.6488,6.6102,6.6102,6.5797,6.5492,6.6005,6.6166,6.617,6.6171,6.4687,6.2812,6.1211,6.0859,6.0234,5.8008,5.8476,5.8906,5.7617,5.5195,5.2305,4.8906,4.75,4.6445,4.5195,4.5312,4.5273,4.4531,4.4258,4.3633,4.2422,4.457,4.6328,4.6992,4.8633,5.1016,5.4141,5.6953,5.9687,6.2344,6.4961,6.6523,6.6914,6.6914,6.6914,6.6914,6.8242,6.9062,6.9453,7.082,7.164,7.1992,7.1992,7.1992,7.1992,7.1992,7.1992,7.2031,7.2422,7.2851,7.3398,7.414,7.4453,7.457,5.0453,5.4739,5.8091,5.7972,6.0393,6.2734,6.3828,6.4649,6.6328,6.9646,7.1675,7.2846,7.2846,7.4721,7.5658,7.4915,7.4837,7.4173,7.2612,7.3861,7.3236,7.0035,7.0543,6.9331,6.6014,6.3241,5.9338,5.4186,5.0555,4.7002,4.349,4.1967,4.2084,4.3568,4.4815,4.833,5.3796,6.0276,6.4453,6.6796,6.6913,6.7498,6.82,6.7421,6.6717,6.6092,6.6092,6.6249,6.6484,6.6601,6.664,6.6679,6.6757,6.6796,6.6796,6.6796,6.6803,6.681,6.6811,6.6824,6.6871,6.691,6.6913,6.6289,6.4023,6.3515,6.3008,6.1289,5.9765,5.9297,6.1055,5.6797,5.1992,4.8789,4.8281,4.7734,4.6211,4.6484,4.6211,4.457,4.5625,0.0,4.3867,4.3203,4.3828,4.5976,4.7422,4.9141,5.1289,5.582,5.9375,6.164,6.4258,6.6015,6.6875,6.6914,6.6914,6.6914,6.789,6.8711,6.9414,7.043,7.1289,7.1992,7.1992,7.1992,7.1992,7.1992,7.207,7.2265,7.3008,7.3437,7.3828,7.5351,7.5976,7.6055,5.42,5.7394,5.9729,5.8986,6.2774,6.6678,6.898,6.9487,7.0543,7.3236,7.5736,7.7298,7.7298,7.7023,7.6828,7.6672,7.6633,7.6203,7.519,7.5424,7.4681,7.2689,7.2065,7.0465,6.7731,6.4453,6.0237,5.5085,5.0867,4.669,4.2629,4.2318,4.2357,4.2746,4.5791,5.0788,5.7154,6.1252,6.4453,6.6874,6.7576,6.8396,6.9176,6.8983,6.8865,6.8747,6.8747,6.6992,6.4844,6.5585,6.5819,6.5936,6.6601,6.6796,6.6796,6.6796,6.6798,6.6801,6.681,6.6814,6.6819,6.6904,6.6909,6.6795,6.6326,6.621,6.5703,6.3984,6.3398,6.2461,6.0078,5.6992,5.418,5.2148,5.1797,5.1719,5.1406,5.0273,4.9141,4.8125,4.7617,4.6406,4.3945,4.4844,4.5508,4.5234,4.4844,4.6601,5.1172,5.2969,5.625,6.1523,6.4258,6.6015,6.6875,6.6914,6.6914,6.6914,6.8476,6.9258,6.9453,7.1055,7.1875,7.1992,7.1992,7.1992,7.1992,7.1992,7.2422,7.3086,7.3242,7.418,7.5469,7.5781,7.6367,7.6953,5.9816,6.1997,6.3867,6.4375,6.7615,7.0894,7.3002,7.4876,7.5813,7.5268,7.6283,7.7064,7.7064,7.7882,7.8468,7.8468,7.8468,7.8077,7.722,7.7142,7.64,7.4681,7.4175,7.2534,6.9526,6.6522,6.2658,5.7934,5.2702,4.8408,4.5089,4.3723,4.306,4.3294,4.8096,5.3327,5.8714,6.2189,6.5155,6.7537,6.8435,6.9294,7.0035,6.9567,6.9137,6.8747,6.8747,6.7381,6.5664,6.6094,6.6209,6.6209,6.617,6.617,6.6249,6.6679,6.6796,6.6798,6.6802,6.6808,6.6813,6.6856,6.6864,6.6909,6.6911,6.6912,6.6406,6.4648,6.4297,6.3242,5.9844,5.7422,5.5547,5.4258,5.3672,5.3203,5.2773,5.1992,5.0859,4.9101,0.0,0.0,4.5312,4.6211,4.5898,4.3242,4.3867,4.5859,4.9258,5.1523,5.5273,6.0859,6.3125,6.5117,6.6875,6.6914,6.7148,6.7578,6.8828,6.9648,7.0117,7.1406,7.1992,7.1992,7.1992,7.1992,7.2031,7.25,7.293,7.3398,7.4297,7.5156,7.5937,7.6406,7.6836,7.7187,6.5196,6.6601,6.8124,6.9685,7.226,7.4564,7.5853,7.9055,8.0226,7.7298,7.6908,7.6908,7.6908,7.8585,7.9717,7.9717,7.9717,7.9405,7.8703,7.8508,7.7805,7.64,7.601,7.4448,7.1556,6.8942,6.5429,6.0939,5.5279,5.0905,4.7821,4.5558,4.4934,4.5832,5.1142,5.5903,6.0118,6.3243,6.6131,6.8707,6.9411,7.0191,7.0894,7.0191,6.9528,6.8942,6.8942,6.8474,6.785,6.7499,6.7226,6.6992,6.6561,6.6288,6.6209,6.6679,6.6796,6.6757,6.6601,6.6685,6.6809,6.6809,6.6856,6.6863,6.6869,6.6909,6.6403,6.4648,6.4023,6.2812,5.9765,5.8359,5.7148,5.5547,5.5195,5.4687,5.3437,5.3086,5.2109,4.9726,0.0,4.8984,4.6523,4.6601,4.5351,4.1992,4.3437,4.5469,4.7734,5.0625,5.4609,5.9961,6.1992,6.4062,6.6328,6.6719,6.7344,6.8203,6.9023,6.9844,7.0742,7.1601,7.1992,7.1992,7.1992,7.2109,7.2344,7.3008,7.3515,7.3984,7.5351,7.6015,7.625,7.6953,7.7187,7.7187,6.8748,6.9684,7.066,7.1597,7.4525,7.6789,7.6945,7.9951,8.1786,8.0655,8.0499,8.0499,8.0499,8.0029,7.9717,7.9717,7.9717,7.9678,7.96,7.8858,7.8313,7.8157,7.6634,7.5268,7.4173,7.1636,6.7849,6.2774,5.8285,5.3561,4.8681,4.7704,4.8876,5.2,5.4927,5.8636,6.2774,6.4687,6.742,7.0463,7.0541,7.1089,7.187,7.1792,7.1714,7.1636,7.1636,7.1597,7.1285,6.9685,6.863,6.8083,6.8825,6.8513,6.7732,6.6992,6.6796,6.664,6.5897,6.625,6.6798,6.6798,6.6806,6.6813,6.6814,6.686,6.6398,6.4645,6.3046,6.1367,5.9531,6.0312,5.9922,5.5937,5.7226,5.7851,5.539,5.4375,5.3203,5.1367,4.9883,0.0,4.6484,4.4922,4.3906,4.3516,4.2969,4.4453,4.8555,4.9844,5.3164,5.9101,6.1719,6.3515,6.4531,6.6094,6.7344,6.8203,6.9023,6.9844,7.0742,7.1601,7.1992,7.1992,7.1992,7.2461,7.3164,7.3281,7.4219,7.5664,7.5859,7.6367,7.7109,7.7187,7.7187,7.7187,7.3939,7.3471,7.3744,7.6203,7.6906,7.7804,7.9912,8.1394,8.2176,8.1825,8.1786,8.1786,8.1786,8.1474,8.1277,8.1277,8.1277,8.1044,8.0498,8.0148,7.9718,7.9209,7.8001,7.6947,7.6086,7.3547,7.0229,6.6053,6.1758,5.7542,5.3444,5.2077,5.3287,5.6645,5.8713,6.1759,6.5391,6.7146,6.8981,7.0737,7.1285,7.1675,7.1987,7.1987,7.1987,7.1987,7.1987,7.1987,7.187,7.1206,7.0035,6.8864,6.8669,6.8396,6.8122,6.8318,6.8005,6.7498,6.7185,6.6951,6.6796,6.6796,6.68,6.6805,6.681,6.6815,6.6351,6.4641,6.2927,6.1483,6.0819,6.0429,5.9961,5.9258,5.918,5.8828,5.7773,5.6445,5.4726,5.2461,5.1133,4.9726,4.8047,4.6758,4.625,4.6797,4.3633,4.3555,4.7891,4.9453,5.2734,5.8242,6.1406,6.3437,6.4297,6.6562,6.8125,6.8984,6.9805,7.0625,7.1484,7.1836,7.1992,7.1992,7.1992,7.25,7.3359,7.3867,7.4805,7.5937,7.6484,7.6875,7.7187,7.7187,7.7187,7.7187,7.7765,7.6867,7.6984,7.9951,7.9444,7.9444,8.1901,8.2292,8.2292,8.2292,8.2292,8.2292,8.2292,8.2292,8.2292,8.2292,8.2292,8.2059,8.1435,8.1124,8.0732,8.0107,7.9248,7.835,7.7492,7.5462,7.2845,6.9644,6.5584,6.2109,5.922,5.7465,5.8205,6.1094,6.2539,6.496,6.8044,6.9529,7.0816,7.187,7.2495,7.2729,7.2729,7.2729,7.2729,7.269,7.2456,7.2221,7.1948,7.1714,7.0621,6.9373,6.9294,6.9059,6.8942,6.9294,6.8942,6.8435,6.816,6.7654,6.7185,6.7185,6.6992,6.6799,6.6806,6.6808,6.6303,6.4634,6.2922,6.1715,6.1715,6.0741,6.0078,6.0508,6.0234,5.9492,5.8242,5.7226,5.5703,5.3359,5.1641,5.0391,4.9687,4.8398,4.8164,4.9531,4.6055,4.5391,4.8906,4.9805,5.2695,5.8125,6.1367,6.3437,6.4297,6.6875,6.8633,6.9492,7.0312,7.1172,7.1992,7.1992,7.1992,7.1992,7.2265,7.289,7.375,7.4609,7.5508,7.6328,7.6953,7.7187,7.7187,7.7187,7.7187,7.7187,7.9326,7.9639,8.0185,8.194,8.2253,8.2253,8.2292,8.2292,8.2292,8.2292,8.2292,8.2292,8.2292,8.2292,8.2292,8.2292,8.2292,8.2292,8.2292,8.1474,8.1007,8.0968,8.0146,7.9287,7.8391,7.7492,7.5813,7.3235,6.9722,6.7146,6.5468,6.3711,6.3828,6.5546,6.6367,6.82,7.0698,7.1597,7.2924,7.4447,7.4486,7.4486,7.4486,7.4486,7.4486,7.4369,7.3586,7.2729,7.187,7.101,7.0113,6.9685,7.1402,7.1363,7.0502,6.9645,6.9373,6.9215,6.8318,6.8082,6.8082,6.8082,6.7459,6.6796,6.6796,6.6796,6.6331,6.4663,6.2915,6.1709,6.1709,6.1675,6.0857,5.8357,6.0038,6.0195,5.5937,5.6055,5.5937,5.418,5.0976,4.957,5.1211,4.9062,4.8633,5.1172,5.0586,5.0859,5.2539,5.1094,5.2969,5.8984,6.168,6.3437,6.4297,6.6875,6.8633,6.9492,7.0312,7.1172,7.1992,7.1992,7.1992,7.2031,7.289,7.3789,7.4648,7.5508,7.6406,7.7187,7.7187,7.7187,7.7187,7.7187,7.7187,7.7187,8.1355,8.1472,8.1667,8.2214,8.2292,8.2292,8.2292,8.2292,8.2292,8.2292,8.2292,8.2292,8.2292,8.2292,8.2292,8.2292,8.2292,8.2292,8.2292,8.2059,8.1903,8.1903,8.1044,8.0459,8.0187,7.9326,7.7609,7.4993,7.3315,7.1011,6.82,6.8239,6.8864,6.9996,7.0855,7.1987,7.3315,7.3588,7.4017,7.4486,7.4486,7.4486,7.4486,7.4486,7.4486,7.4486,7.4212,7.3939,7.3666,7.3393,7.2729,7.2065,7.2026,7.1402,7.0776,7.1089,7.0738,7.023,6.9956,6.945,6.8825,6.8239,6.7888,6.7537,6.6952,6.6366,6.5664,6.4537,6.3374,6.2404,6.1819,6.1708,6.1439,6.0618,6.1169,6.0819,5.8319,5.7695,5.6836,5.5078,5.3398,5.2578,5.3125,5.1914,5.1641,5.3086,5.0781,5.0312,5.2578,5.4453,5.6328,5.8242,6.25,6.4922,6.5195,6.7734,6.9453,7.0312,7.1172,7.1719,7.2031,7.2617,7.289,7.293,7.3828,7.4687,7.5508,7.5781,7.6406,7.7187,7.7187,7.7187,7.7187,7.7187,7.7187,7.7187,8.2292,8.2292,8.2292,8.2292,8.2292,8.2292,8.2292,8.2292,8.2292,8.2292,8.2292,8.2292,8.2292,8.2292,8.2292,8.2292,8.2292,8.2292,8.2292,8.2292,8.2292,8.2292,8.1786,8.1356,8.1007,8.0459,7.9248,7.7259,7.6047,7.4212,7.1793,7.2026,7.2417,7.2963,7.351,7.4212,7.4993,7.4993,7.5188,7.5462,7.5462,7.5462,7.5462,7.5462,7.5462,7.5423,7.511,7.4798,7.4447,7.4134,7.351,7.2768,7.2573,7.2103,7.1595,7.1167,7.0855,7.0698,7.0698,7.0309,6.9762,6.9214,6.8825,6.8357,6.7498,6.6405,6.5468,6.4883,6.3834,6.2823,6.2278,6.1934,6.1705,6.1705,6.1711,6.1129,5.941,5.8436,5.7382,5.5976,5.5039,5.4609,5.4922,5.4765,5.5,5.5898,5.457,5.4414,5.6015,5.6601,5.7812,5.9765,6.3594,6.5898,6.6562,6.8437,6.9844,7.0703,7.1562,7.2187,7.25,7.3047,7.3476,7.3828,7.4726,7.539,7.5937,7.625,7.6719,7.7187,7.7187,7.7187,7.7187,7.7187,7.7187,7.7187,8.2292,8.2292,8.2292,8.2292,8.2292,8.2292,8.2292,8.2292,8.2292,8.2292,8.2292,8.2292,8.2292,8.2292,8.2292,8.2292,8.2292,8.2292,8.2292,8.2292,8.2292,8.2292,8.2292,8.1903,8.1124,8.1085,8.0654,7.9795,7.8116,7.6867,7.6049,7.5227,7.4876,7.4876,7.4798,7.5227,7.5971,7.5932,7.6361,7.7101,7.7101,7.7101,7.7101,7.7101,7.7101,7.6984,7.6166,7.5385,7.4564,7.3821,7.2963,7.2378,7.3157,7.3352,7.2806,7.0387,7.0191,7.0776,7.0776,7.0737,7.0698,7.0698,7.0035,6.9176,6.8318,6.6873,6.5741,6.5624,6.4297,6.3125,6.3008,6.2354,6.1775,6.1697,6.1665,6.1006,5.9327,5.8472,5.7654,5.6794,5.6015,5.5898,5.6719,5.7578,5.8398,5.914,6.0703,6.164,6.1719,5.7969,5.8047,6.293,6.4844,6.6601,6.8281,6.9101,6.9922,7.0781,7.168,7.2539,7.3281,7.3437,7.3906,7.4726,7.5625,7.5976,7.6055,7.6875,7.7187,7.7187,7.7187,7.7187,7.7187,7.7187,7.7187,7.7187,8.2292,8.2292,8.2292,8.2292,8.2292,8.2292,8.2292,8.2292,8.2292,8.2292,8.2292,8.2292,8.2292,8.2292,8.2292,8.2292,8.2292,8.2292,8.2292,8.2292,8.2292,8.2292,8.2292,8.2214,8.1981,8.1981,8.1552,8.0693,7.96,7.8975,7.878,7.8585,7.8468,7.8429,7.7765,7.7571,7.7727,7.7062,7.6906,7.7101,7.7101,7.7101,7.7101,7.7101,7.7101,7.7062,7.6867,7.6672,7.6477,7.6242,7.5618,7.4838,7.4369,7.3782,7.3196,7.2571,7.2065,7.1675,7.1675,7.1206,7.0698,7.0698,7.0035,6.9176,6.8318,6.7809,6.7146,6.5858,6.5273,6.457,6.3243,6.2815,6.2466,6.1802,6.1147,6.0333,5.924,5.8934,5.8509,5.7688,5.7962,5.8316,5.8553,5.9332,5.9645,5.9219,6.0156,6.1015,6.164,6.1367,6.2031,6.3945,6.6328,6.8086,6.9101,6.9961,7.082,7.1719,7.2578,7.3086,7.3359,7.4687,7.539,7.5625,7.6523,7.6875,7.6914,7.7109,7.7187,7.7187,7.7187,7.7187,7.7187,7.7187,7.7187,7.7187,8.2292,8.2292,8.2292,8.2292,8.2292,8.2292,8.2292,8.2292,8.2292,8.2292,8.2292,8.2292,8.2292,8.2292,8.2292,8.2292,8.2292,8.2292,8.2292,8.2292,8.2292,8.2292,8.2292,8.2292,8.2292,8.2292,8.2059,8.1591,8.0732,8.0302,8.0302,7.9873,7.9717,7.9678,7.9209,7.8975,7.8975,7.8507,7.8272,7.8272,7.8272,7.8038,7.7687,7.7687,7.7453,7.7101,7.7101,7.7101,7.7101,7.7101,7.6789,7.632,7.5852,7.5384,7.4953,7.4564,7.3588,7.2495,7.2104,7.1636,7.1206,7.0815,7.0348,6.9879,6.9409,6.8668,6.7848,6.6912,6.6131,6.5312,6.4375,6.3555,6.2696,6.1836,6.1295,6.0558,5.9268,5.9433,5.9518,5.9087,5.9793,6.046,6.0893,6.1671,6.1985,6.1562,6.2303,6.2967,6.3476,6.4687,6.539,6.5508,6.7265,6.8789,6.9961,7.0859,7.1719,7.2617,7.3086,7.3711,7.4531,7.5469,7.6133,7.6523,7.6992,7.7187,7.7187,7.7187,7.7187,7.7187,7.7187,7.7187,7.7187,7.7187,7.7187,7.7265,8.2292,8.2292,8.2292,8.2292,8.2292,8.2292,8.2292,8.2292,8.2292,8.2292,8.2292,8.2292,8.2292,8.2292,8.2292,8.2292,8.2292,8.2292,8.2292,8.2292,8.2292,8.2292,8.2292,8.2292,8.2292,8.2292,8.2292,8.2292,8.1552,8.12,8.1161,8.0459,8.0107,8.0107,7.9951,7.9912,7.9873,7.9756,7.9717,7.9717,7.9717,7.9248,7.8586,7.8586,7.8155,7.7492,7.7335,7.7296,7.7296,7.714,7.7101,7.7101,7.7101,7.7101,7.6945,7.6205,7.4993,7.3664,7.2651,7.2182,7.1831,7.1089,7.0815,7.0698,7.0698,6.9565,6.8472,6.8318,6.7068,6.5936,6.5819,6.4375,6.2852,6.1875,6.1602,6.0938,5.9338,5.9854,6.0445,6.0562,6.1389,6.2253,6.3113,6.3854,6.4364,6.4488,6.5191,6.57,6.5976,6.7382,6.7968,6.75,6.8203,6.9336,7.0898,7.1758,7.2578,7.3281,7.3555,7.4453,7.5898,7.6055,7.6484,7.7187,7.7187,7.7187,7.7187,7.7187,7.7187,7.7187,7.7187,7.7187,7.7226,7.7344,7.7383,7.7539,8.2292,8.2292,8.2292,8.2292,8.2292,8.2292,8.2292,8.2292,8.2292,8.2292,8.2292,8.2292,8.2292,8.2292,8.2292,8.2292,8.2292,8.2292,8.2292,8.2292,8.2292,8.2292,8.2292,8.2292,8.2292,8.2292,8.2292,8.2292,8.2176,8.2098,8.2098,8.1942,8.1901,8.1862,8.1122,8.081,8.0732,8.0029,7.9717,7.9717,7.9717,7.9639,7.9483,7.9483,7.9405,7.9209,7.8468,7.8196,7.8079,7.7335,7.7101,7.7101,7.7101,7.7101,7.7062,7.6945,7.6711,7.6164,7.4564,7.308,7.1987,7.1831,7.1245,7.0698,7.0698,7.0502,7.0073,6.9333,6.8396,6.7498,6.6757,6.5235,6.3556,6.1953,6.1094,6.0237,5.922,5.9847,6.0668,6.1409,6.227,6.3134,6.4002,6.4231,6.4623,6.5341,6.5533,6.6236,6.7648,6.7961,6.8744,7.0076,7.0234,7.0781,7.1797,7.2656,7.3164,7.332,7.4805,7.5625,7.5937,7.664,7.707,7.7187,7.7187,7.7187,7.7187,7.7187,7.7187,7.7187,7.7187,7.7187,7.7305,7.8047,7.8281,7.8398,8.2292,8.2292,8.2292,8.2292,8.2292,8.2292,8.2292,8.2292,8.2292,8.2292,8.2292,8.2292,8.2292,8.2292,8.2292,8.2292,8.2292,8.2292,8.2292,8.2292,8.2292,8.2292,8.2292,8.2292,8.2292,8.2292,8.2292,8.2292,8.2292,8.2292,8.2292,8.2292,8.2292,8.2292,8.1864,8.1708,8.1669,8.1278,8.1083,8.1083,8.1083,8.081,8.0381,8.0381,8.0107,7.9639,7.9248,7.9092,7.9053,7.8624,7.8194,7.7804,7.7804,7.7492,7.7101,7.7101,7.6789,7.6125,7.4837,7.3939,7.3002,7.1636,7.1713,7.1869,7.0893,7.0698,7.058,7.0191,6.9411,6.8513,6.7654,6.6484,6.5235,6.3983,6.2696,6.1642,6.1252,6.1564,6.1954,6.2343,6.3594,6.4572,6.4967,6.5393,6.6023,6.6896,6.6932,6.748,6.8738,6.9246,6.9875,7.0661,7.1601,7.2305,7.2695,7.3555,7.4258,7.4726,7.5508,7.6133,7.6601,7.7031,7.7187,7.7187,7.7187,7.7187,7.7187,7.7187,7.7187,7.7265,7.7734,7.789,7.8008,7.8828,7.914,7.9258,8.2292,8.2292,8.2292,8.2292,8.2292,8.2292,8.2292,8.2292,8.2292,8.2292,8.2292,8.2292,8.2292,8.2292,8.2292,8.2292,8.2292,8.2292,8.2292,8.2292,8.2292,8.2292,8.2292,8.2292,8.2292,8.2292,8.2292,8.2292,8.2292,8.2292,8.2292,8.2292,8.2292,8.2292,8.2292,8.2292,8.2292,8.2292,8.2292,8.2292,8.2292,8.1903,8.1317,8.1317,8.0888,8.0263,8.0068,7.999,7.9951,7.9756,7.9248,7.8703,7.8703,7.8116,7.7414,7.7414,7.6789,7.5893,7.5032,7.4642,7.4017,7.2065,7.2454,7.2884,7.1361,7.1166,7.1205,7.0776,7.0152,6.9489,6.8824,6.7849,6.6756,6.5741,6.4492,6.3477,6.3047,6.336,6.3672,6.3867,6.5234,6.6249,6.6444,6.7029,6.7698,6.8331,6.841,6.8764,6.9669,7.0334,7.0886,7.1285,7.2616,7.3398,7.3594,7.4453,7.5234,7.5898,7.6094,7.6562,7.7187,7.7187,7.7187,7.7187,7.7187,7.7187,7.7226,7.7422,7.75,7.7578,7.8437,7.8789,7.8867,7.9687,8.0,8.0117,8.2292,8.2292,8.2292,8.2292,8.2292,8.2292,8.2292,8.2292,8.2292,8.2292,8.2292,8.2292,8.2292,8.2292,8.2292,8.2292,8.2292,8.2292,8.2292,8.2292,8.2292,8.2292,8.2292,8.2292,8.2292,8.2292,8.2292,8.2292,8.2292,8.2292,8.2292,8.2292,8.2292,8.2292,8.2292,8.2292,8.2292,8.2292,8.2292,8.2292,8.2292,8.2253,8.2214,8.2214,8.2175,8.1981,8.12,8.089,8.0771,7.9951,7.9678,7.96,7.96,7.9014,7.8313,7.8313,7.7687,7.6828,7.5932,7.5112,7.4447,7.4251,7.3743,7.304,7.2104,7.2534,7.2649,7.1049,7.0659,7.058,7.0502,6.9136,6.7498,6.5858,6.5507,6.4843,6.3243,6.4375,6.5663,6.6445,6.7342,6.8239,6.902,6.9178,6.9256,6.9296,6.9296,6.9687,7.0544,7.0661,7.1454,7.3075,7.3241,7.3672,7.4492,7.5351,7.5859,7.5898,7.6719,7.7148,7.7187,7.7187,7.7187,7.7187,7.7187,7.7187,7.7265,7.8086,7.8398,7.8476,7.9297,7.9609,7.9726,8.0586,8.0898,8.1015,8.2292,8.2292,8.2292,8.2292,8.2292,8.2292,8.2292,8.2292,8.2292,8.2292,8.2292,8.2292,8.2292,8.2292,8.2292,8.2292,8.2292,8.2292,8.2292,8.2292,8.2292,8.2292,8.2292,8.2292,8.2292,8.2292,8.2292,8.2292,8.2292,8.2292,8.2292,8.2292,8.2292,8.2292,8.2292,8.2292,8.2292,8.2292,8.2292,8.2292,8.2292,8.2292,8.2292,8.2292,8.2292,8.2253,8.1942,8.1825,8.1747,8.1435,8.0966,8.0498,8.0498,7.9912,7.9092,7.8547,7.8157,7.7726,7.6828,7.636,7.5852,7.4759,7.4681,7.4486,7.3119,7.3432,7.3549,7.187,7.1947,7.183,7.0191,6.9801,6.9487,6.8863,6.7848,6.7107,6.699,6.7068,6.7264,6.7576,6.8396,6.902,6.9373,6.9412,6.9606,7.0152,7.0191,7.0582,7.1441,7.2034,7.3101,7.4871,7.4918,7.5077,7.539,7.6289,7.6719,7.6719,7.7031,7.7187,7.7187,7.7187,7.75,7.8008,7.8008,7.8281,7.8789,7.9101,7.9258,7.9336,8.0195,8.0508,8.0625,8.1484,8.1797,8.1836,8.2292,8.2292,8.2292,8.2292,8.2292,8.2292,8.2292,8.2292,8.2292,8.2292,8.2292,8.2292,8.2292,8.2292,8.2292,8.2292,8.2292,8.2292,8.2292,8.2292,8.2292,8.2292,8.2292,8.2292,8.2292,8.2292,8.2292,8.2292,8.2292,8.2292,8.2292,8.2292,8.2292,8.2292,8.2292,8.2292,8.2292,8.2292,8.2292,8.2292,8.2292,8.2292,8.2292,8.2292,8.2292,8.2292,8.2292,8.2292,8.2292,8.2292,8.1903,8.1396,8.1396,8.081,7.9951,7.9053,7.8819,7.8663,7.8077,7.7726,7.714,7.5696,7.5774,7.5774,7.4056,7.433,7.4447,7.2768,7.308,7.304,7.1011,7.1128,7.1322,7.0776,6.9683,6.902,6.9333,6.9137,6.8902,6.8902,6.9684,7.0232,7.0232,7.0232,7.0465,7.105,7.1361,7.191,7.2776,7.3603,7.463,7.5851,7.6167,7.6327,7.6328,7.6914,7.7187,7.7187,7.7187,7.7344,7.7617,7.7617,7.8086,7.8867,7.8867,7.918,7.9726,8.0,8.0117,8.0195,8.1054,8.1406,8.1484,8.207,8.2304,8.2304,8.2292,8.2292,8.2292,8.2292,8.2292,8.2292,8.2331,8.2331,8.2331,8.2292,8.2292,8.2292,8.2292,8.2292,8.2292,8.2292,8.2292,8.2292,8.2292,8.2292,8.2292,8.2292,8.2292,8.2292,8.2292,8.2292,8.2292,8.2292,8.2292,8.2292,8.2292,8.2292,8.2292,8.2292,8.2292,8.2292,8.2292,8.2292,8.2292,8.2292,8.2292,8.2292,8.2292,8.2292,8.2292,8.2292,8.2292,8.2292,8.2292,8.2292,8.2292,8.2292,8.2292,8.1708,8.0849,7.9951,7.9717,7.9717,7.9717,7.9053,7.8196,7.7335,7.7101,7.6633,7.4915,7.519,7.5346,7.3664,7.3939,7.4251,7.343,7.3313,7.2728,7.101,7.0737,7.0426,6.9567,7.0191,7.0737,7.0737,7.148,7.2026,7.2026,7.2026,7.2026,7.2026,7.2807,7.3673,7.4546,7.5365,7.5843,7.5896,7.6755,7.7186,7.7226,7.7187,7.7187,7.7226,7.7226,7.7656,7.8515,7.8515,7.8945,7.9726,7.9726,7.9726,7.9805,8.0664,8.1015,8.1094,8.1953,8.2304,8.2304,8.2304,8.2304,8.2304,8.2292,8.2292,8.2489,8.3035,8.3152,8.3347,8.397,8.4049,8.3814,8.323,8.3152,8.2918,8.237,8.2292,8.2292,8.2292,8.2292,8.2292,8.2292,8.2292,8.2292,8.2292,8.2292,8.2292,8.2292,8.2292,8.2292,8.2292,8.2292,8.2292,8.2292,8.2292,8.2292,8.2292,8.2292,8.2292,8.2292,8.2292,8.2292,8.2292,8.2292,8.2292,8.2292,8.2292,8.2292,8.2292,8.2292,8.2292,8.2292,8.2292,8.2292,8.2292,8.2292,8.2137,8.1747,8.0888,8.0615,8.0498,7.9873,7.9522,7.9092,7.8233,7.7531,7.6945,7.6438,7.6516,7.6203,7.4486,7.4837,7.4993,7.3547,7.3743,7.3978,7.3432,7.3354,7.3275,7.3002,7.3197,7.3354,7.3354,7.3588,7.3744,7.3744,7.3744,7.3744,7.3744,7.4027,7.458,7.5404,7.5723,7.6162,7.6794,7.7067,7.7498,7.8125,7.75,7.75,7.8125,7.8125,7.8555,7.9336,7.9336,7.9805,8.0625,8.0625,8.0976,8.1523,8.1797,8.1914,8.1953,8.2187,8.2304,8.2304,8.2304,8.2304,8.2304,8.2292,8.2567,8.2918,8.3426,8.3777,8.4206,8.4712,8.479,8.4595,8.4089,8.3699,8.3308,8.284,8.2489,8.2292,8.2292,8.2292,8.2292,8.2292,8.2292,8.2292,8.2292,8.2292,8.2292,8.2292,8.2292,8.2292,8.2292,8.2292,8.2292,8.2292,8.2292,8.2292,8.2292,8.2292,8.2292,8.2292,8.2292,8.2292,8.2292,8.2292,8.2292,8.2292,8.2292,8.2292,8.2292,8.2292,8.2292,8.2292,8.2292,8.2292,8.2292,8.2292,8.2292,8.2215,8.1669,8.1513,8.1396,8.0888,8.0498,8.0107,7.9562,7.8508,7.7609,7.7609,7.7335,7.6789,7.5735,7.593,7.5891,7.4525,7.4681,7.4915,7.4564,7.4486,7.4486,7.4486,7.4486,7.4486,7.4486,7.4486,7.4486,7.4486,7.4486,7.4642,7.4993,7.5047,7.5445,7.6269,7.6395,7.6792,7.7694,7.7694,7.8124,7.8984,7.8437,7.8437,7.8984,7.8984,7.9414,8.0195,8.0195,8.0703,8.1523,8.1523,8.1797,8.2304,8.2304,8.2304,8.2304,8.2304,8.2304,8.2304,8.2304,8.2304,8.2304,8.237,8.2996,8.3543,8.3699,8.4401,8.4946,8.5024,8.5024,8.4985,8.4946,8.4167,8.3582,8.3504,8.2762,8.2292,8.2292,8.2292,8.2292,8.2292,8.2292,8.2292,8.2292,8.2292,8.2292,8.2292,8.2292,8.2292,8.2292,8.2292,8.2292,8.2292,8.2292,8.2292,8.2292,8.2292,8.2292,8.2292,8.2292,8.2292,8.2292,8.2292,8.2292,8.2292,8.2292,8.2292,8.2292,8.2292,8.2292,8.2292,8.2292,8.2292,8.2292,8.2292,8.2292,8.2292,8.2292,8.2292,8.2292,8.2292,8.1708,8.1124,8.1124,7.9875,7.8625,7.8547,7.7882,7.7296,7.7218,7.7218,7.6945,7.6088,7.5932,7.5658,7.4876,7.472,7.472,7.472,7.472,7.472,7.472,7.472,7.472,7.472,7.472,7.5071,7.5853,7.5982,7.6385,7.7176,7.7338,7.7772,7.8594,7.8594,7.8984,7.9805,7.9805,7.9805,7.9805,7.9805,8.0273,8.1133,8.1133,8.1562,8.2304,8.2304,8.2304,8.2304,8.2304,8.2304,8.2304,8.2304,8.2304,8.2304,8.2304,8.2304,8.2304,8.3113,8.3386,8.3933,8.5299,8.569,8.6041,8.6742,8.6859,8.6586,8.5924,8.5065,8.4245,8.3582,8.2762,8.2292,8.2292,8.2292,8.2292,8.2292,8.2292,8.2292,8.2292,8.2292,8.2292,8.2292,8.2292,8.2292,8.2292,8.2292,8.2292,8.2292,8.2292,8.2292,8.2292,8.2292,8.2292,8.2292,8.2292,8.2292,8.2292,8.2292,8.2292,8.2292,8.2292,8.2292,8.2292,8.2292,8.2292,8.2292,8.2292,8.2292,8.2292,8.2292,8.2292,8.2292,8.2292,8.2292,8.2292,8.2292,8.2176,8.202,8.202,8.12,8.0265,7.9561,7.9287,7.8936,7.8274,7.8118,7.7844,7.6984,7.6828,7.675,7.6555,7.6555,7.6555,7.6555,7.6555,7.6555,7.6555,7.6555,7.6555,7.6555,7.6555,7.6594,7.6789,7.7465,7.7907,7.8114,7.8784,7.9256,7.9414,7.9453,7.9844,8.0703,8.0703,8.0703,8.0703,8.0703,8.1172,8.2031,8.2031,8.2109,8.2304,8.2304,8.2304,8.2304,8.2304,8.2304,8.2304,8.2304,8.2304,8.2304,8.2304,8.2304,8.2304,8.405,8.4441,8.5026,8.5924,8.6431,8.6859,8.7328,8.7406,8.725,8.6783,8.561,8.4634,8.4167,8.3035,8.2292,8.2292,8.2292,8.2292,8.2292,8.2292,8.2292,8.2292,8.2292,8.2292,8.2292,8.2292,8.2292,8.2292,8.2292,8.2292,8.2292,8.2292,8.2292,8.2292,8.2292,8.2292,8.2292,8.2292,8.2292,8.2292,8.2292,8.2292,8.2292,8.2292,8.2292,8.2292,8.2292,8.2292,8.2292,8.2292,8.2292,8.2292,8.2292,8.2292,8.2292,8.2292,8.2292,8.2292,8.2292,8.2292,8.2292,8.2292,8.1942,8.1396,8.0537,7.999,7.9561,7.9092,7.9014,7.8897,7.8429,7.835,7.835,7.835,7.7999,7.7726,7.7726,7.7375,7.7101,7.7101,7.7101,7.7257,7.7687,7.7726,7.7882,7.8311,7.8753,7.9001,7.9011,7.9447,7.9881,8.0312,8.0312,8.0742,8.1601,8.1601,8.1601,8.1601,8.1601,8.1875,8.2304,8.2304,8.2304,8.2304,8.2304,8.2304,8.2304,8.2304,8.2304,8.2304,8.2304,8.2304,8.2304,8.2304,8.2304,8.2304,8.4946,8.5612,8.6158,8.6314,8.6937,8.7406,8.7406,8.7406,8.7406,8.7406,8.6,8.5024,8.5024,8.3502,8.245,8.2292,8.2292,8.2292,8.2292,8.2292,8.2292,8.2292,8.2292,8.2292,8.2292,8.2292,8.2292,8.2292,8.2292,8.2292,8.2292,8.2292,8.2292,8.2292,8.2292,8.2292,8.2292,8.2292,8.2292,8.2292,8.2292,8.2292,8.2292,8.2292,8.2292,8.2292,8.2292,8.2292,8.2292,8.2292,8.2292,8.2292,8.2292,8.2292,8.2292,8.2292,8.2292,8.2292,8.2292,8.2292,8.2292,8.2292,8.2292,8.2098,8.1396,8.0654,8.0107,7.9951,7.9912,7.9873,7.9717,7.9717,7.9717,7.9717,7.9092,7.8625,7.8625,7.7999,7.7531,7.7531,7.7531,7.7843,7.8547,7.8625,7.8936,7.9639,7.9848,7.9939,7.9909,8.0072,8.0467,8.1211,8.1211,8.1562,8.2304,8.2304,8.2304,8.2304,8.2304,8.2304,8.2304,8.2304,8.2304,8.2304,8.2304,8.2304,8.2304,8.2304,8.2304,8.2304,8.2304,8.2304,8.2304,8.2304,8.2304,8.2304,8.5612,8.6002,8.6353,8.7093,8.7328,8.7406,8.7406,8.7406,8.7406,8.7406,8.6549,8.5924,8.5924,8.4362,8.3074,8.237,8.2292,8.2292,8.2292,8.2292,8.2292,8.2292,8.2292,8.2292,8.2292,8.2292,8.2292,8.2292,8.2292,8.2292,8.2292,8.2292,8.2292,8.2292,8.2292,8.2292,8.2292,8.2292,8.2292,8.2292,8.2292,8.2292,8.2292,8.2292,8.2292,8.2292,8.2292,8.2292,8.2292,8.2292,8.2292,8.2292,8.2292,8.2292,8.2292,8.2292,8.2292,8.2292,8.2292,8.2292,8.2292,8.2292,8.2292,8.2253,8.2137,8.202,8.1747,8.0966,8.0811,8.0576,7.9834,7.9717,7.9717,7.9717,7.96,7.9522,7.9522,7.9405,7.9366,7.9366,7.9366,7.9405,7.9522,7.9522,7.9561,7.9678,8.0395,8.0837,8.0808,8.1557,8.1991,8.2109,8.2109,8.2187,8.2304,8.2304,8.2304,8.2304,8.2304,8.2304,8.2304,8.2304,8.2304,8.2304,8.2304,8.2304,8.2304,8.2304,8.2304,8.2304,8.2304,8.2304,8.2304,8.2304,8.2304,8.2304,8.6588,8.682,8.6937,8.7328,8.7406,8.7406,8.7406,8.7406,8.7406,8.7406,8.6627,8.608,8.608,8.4987,8.4089,8.3736,8.3697,8.3697,8.3697,8.323,8.2957,8.2957,8.2528,8.2292,8.2292,8.2292,8.2292,8.2292,8.2292,8.2292,8.2292,8.2292,8.2292,8.2292,8.2292,8.2292,8.2292,8.2292,8.2292,8.2292,8.2292,8.2292,8.2292,8.2292,8.2292,8.2292,8.2292,8.2292,8.2292,8.2292,8.2292,8.2292,8.2292,8.2292,8.2292,8.2292,8.2292,8.2292,8.2292,8.2292,8.2292,8.2292,8.2292,8.2292,8.2292,8.2292,8.2176,8.1825,8.1747,8.1591,8.1239,8.116,8.116,8.116,8.0732,8.042,8.042,8.0029,7.9717,7.9717,7.9717,7.9873,8.0381,8.042,8.0615,8.1122,8.1527,8.1732,8.1736,8.2097,8.23,8.2304,8.2304,8.2304,8.2304,8.2304,8.2304,8.2304,8.2304,8.2304,8.2304,8.2304,8.2304,8.2304,8.2304,8.2304,8.2304,8.2304,8.2304,8.2304,8.2304,8.2304,8.2304,8.2304,8.2304,8.2304]}]]